GFSCGP_850_temp_000.txt.gz
Temp
18 20 18 18 18 17 17 18 19 20 18 16 19 19 21 21 20 19 18 17 17 17 15 13 11 10 11 11 11 10 10 10 10 8 7 8 7 7 6 7 7 6 5 5
20 18 17 17 17 17 18 18 19 19 18 17 18 19 21 20 19 17 17 18 17 16 14 12 11 10 10 10 10 9 8 9 9 8 8 8 7 7 7 6 5 5 5 5
18 18 16 17 18 17 19 18 18 17 18 19 18 22 22 20 19 17 17 16 15 14 14 13 11 10 9 9 9 8 8 8 8 8 8 7 7 7 6 7 6 6 5 5
18 17 17 17 17 16 17 16 16 16 16 19 16 20 21 20 20 20 18 17 16 15 13 12 12 10 9 9 8 8 8 8 8 8 7 8 8 8 8 6 6 6 5 5
17 16 16 17 16 15 16 16 16 15 15 16 17 17 21 20 20 20 19 17 16 15 13 13 12 11 10 9 8 9 8 7 7 7 8 6 6 6 6 5 5 5 5 5
16 14 16 16 16 15 15 16 17 15 15 15 16 17 21 20 19 19 19 17 15 15 14 14 14 13 11 9 9 9 8 7 6 7 7 7 6 6 5 5 4 4 4 4
17 16 16 14 16 15 17 17 17 16 17 17 16 16 19 20 19 18 17 16 15 14 13 13 12 11 11 10 9 9 8 7 6 6 6 6 6 4 4 3 3 3 2 2
15 17 16 14 15 14 15 15 14 12 15 16 17 15 20 19 18 17 15 15 14 14 14 13 12 11 10 11 9 7 7 7 6 6 6 5 5 3 2 3 3 2 2 1
14 16 15 14 14 14 14 15 14 13 9 11 16 18 19 20 18 17 17 16 15 14 13 13 12 11 12 11 10 8 7 6 5 6 5 4 4 3 3 2 2 1 1 -0
13 13 14 14 13 13 14 14 13 13 11 12 17 17 18 19 18 18 17 16 14 13 13 12 12 11 10 10 9 7 8 7 6 5 5 4 3 3 2 2 1 1 1 -0
13 12 14 15 16 15 14 14 13 13 13 12 13 16 19 18 18 17 17 15 14 14 13 12 11 11 10 8 9 9 7 6 5 4 4 3 2 2 1 1 0 -1 -1 -2
12 12 11 13 15 13 13 13 13 12 13 13 10 12 17 18 17 15 15 15 14 13 12 12 11 10 8 8 8 7 5 4 4 3 3 2 2 1 0 -1 -1 -2 -3 -3
12 11 11 15 14 12 13 13 13 12 9 9 9 13 18 18 18 17 16 15 14 13 12 11 10 9 7 6 5 3 3 3 3 2 2 2 1 -0 -2 -2 -2 -3 -4 -4
11 12 11 12 14 15 13 13 14 12 9 10 12 14 16 16 17 17 15 14 13 11 11 9 9 8 6 4 4 3 2 3 2 1 1 0 -1 -1 -2 -2 -2 -3 -4 -4
11 10 12 12 13 12 11 11 12 11 11 9 12 13 15 16 16 15 14 12 11 10 9 8 8 7 5 4 3 2 2 2 1 0 0 -1 -1 -1 -2 -2 -3 -3 -4 -5
11 9 8 8 11 11 10 11 11 12 12 12 13 13 15 15 15 14 13 12 10 8 8 7 6 6 5 3 3 2 2 0 -0 1 -0 -1 -1 -2 -2 -2 -4 -5 -5 -5
9 7 7 8 10 8 7 9 11 13 13 12 12 13 15 15 14 11 10 9 7 8 6 3 5 5 3 2 2 2 1 0 1 -0 -1 -1 -2 -2 -2 -3 -5 -5 -5 -6
7 5 7 7 7 8 15 16 15 13 13 13 14 13 14 13 11 8 8 7 7 5 3 3 3 3 2 2 2 0 -0 -0 -0 -1 -1 -2 -2 -3 -3 -5 -5 -6 -6 -7
9 7 7 8 9 12 13 14 13 11 11 13 13 13 11 9 7 6 8 7 5 3 2 2 1 1 1 0 -0 -1 -1 -0 -1 -1 -2 -2 -2 -3 -5 -6 -6 -7 -7 -8
7 6 6 8 8 10 13 14 11 10 10 12 11 10 8 6 6 8 8 5 3 2 2 1 0 -0 -1 -1 -1 -1 -1 -1 -2 -2 -2 -2 -3 -4 -6 -6 -7 -7 -8 -8
6 5 5 6 7 9 13 10 9 8 11 9 10 9 9 9 8 6 5 3 2 2 2 1 0 -1 -1 -1 -0 -0 -1 -2 -1 -2 -2 -3 -4 -6 -6 -7 -8 -8 -9 -10
9 7 6 6 7 8 12 9 9 11 10 10 10 9 8 8 5 5 3 2 2 2 1 -0 -1 -1 -1 -1 -1 -1 -1 -2 -2 -2 -3 -4 -5 -6 -7 -8 -8 -9 -9 -10
7 8 10 10 11 13 12 10 9 10 10 9 9 8 7 5 5 3 2 1 2 1 -0 -1 -1 -1 -1 -0 -1 -2 -2 -2 -3 -3 -4 -5 -6 -7 -8 -9 -9 -9 -9 -10
8 9 7 7 9 11 11 10 10 9 8 8 7 6 4 4 2 1 1 2 1 -1 -1 -1 -1 -0 -1 -1 -1 -2 -2 -3 -3 -4 -5 -5 -7 -7 -8 -9 -9 -9 -10 -10
8 6 5 6 7 9 9 9 9 8 8 7 6 5 4 3 2 1 2 1 -1 -1 -1 -1 -1 -1 -2 -2 -2 -2 -3 -3 -4 -5 -5 -7 -8 -8 -9 -10 -10 -10 -11 -11
5 6 6 7 10 9 8 8 9 8 7 6 5 4 3 3 2 1 0 -1 -1 -2 -2 -1 -1 -1 -2 -2 -3 -3 -3 -4 -5 -6 -7 -8 -7 -9 -10 -10 -10 -10 -11 -10

GFSCGP_850_temp_003.txt.gz
Temp
22 24 22 21 21 21 21 21 22 23 22 20 21 22 24 25 24 23 22 21 21 20 20 18 16 14 13 12 11 11 11 10 10 10 10 10 9 9 9 9 8 7 7 7
23 21 21 21 21 21 22 22 22 23 23 21 22 23 25 23 22 21 21 21 20 19 19 18 16 14 13 12 11 11 11 10 9 10 10 10 10 10 9 9 7 7 7 7
21 20 20 20 21 20 22 20 20 20 21 23 22 24 24 23 23 21 20 19 19 18 18 17 15 14 13 12 12 11 11 11 10 10 10 9 8 8 8 8 8 7 6 6
21 20 19 20 20 19 20 20 19 19 20 21 22 22 24 23 23 22 21 20 19 18 17 16 15 15 13 12 11 11 11 11 10 9 9 9 9 9 10 10 9 8 7 6
19 19 19 20 18 18 19 19 19 20 19 20 21 21 25 23 22 22 22 20 19 18 17 16 16 15 14 13 11 11 10 10 10 10 8 8 8 8 8 8 8 7 6 6
20 18 19 19 19 18 18 20 22 20 19 18 21 20 23 24 22 21 21 20 18 17 16 16 16 15 14 13 11 10 10 10 10 9 8 7 7 7 7 7 6 6 5 5
21 19 19 18 19 20 20 19 19 18 19 20 20 19 21 23 22 21 20 19 18 17 16 16 15 15 14 13 12 11 10 10 10 9 8 7 6 6 6 5 5 5 4 3
19 18 19 18 17 17 18 18 16 14 17 18 20 19 22 23 21 20 18 17 17 17 15 15 14 14 13 13 12 12 11 10 9 9 8 7 6 5 4 4 4 4 3 2
17 19 19 17 16 17 18 17 17 15 16 14 18 21 22 23 22 20 19 19 18 16 15 15 14 14 13 12 12 12 11 10 10 8 8 6 4 3 3 4 2 2 2 1
16 15 18 17 17 17 17 17 15 15 12 14 18 19 20 21 22 21 20 18 17 16 16 15 14 13 12 12 12 11 10 10 9 8 6 4 3 2 3 3 3 2 1 0
16 14 16 17 18 18 17 17 16 17 16 14 14 17 21 20 20 20 19 17 17 16 15 14 13 13 12 11 10 10 9 8 7 6 4 2 2 1 3 2 0 0 0 -0
15 14 13 16 18 17 17 17 17 14 14 15 14 14 20 20 20 18 18 18 17 16 14 13 13 12 11 11 10 9 7 6 6 4 2 1 1 2 1 0 -0 -0 -1 -1
15 13 13 17 17 16 17 18 18 16 14 12 10 14 21 20 19 18 18 17 16 15 13 13 12 11 10 10 9 8 6 5 4 3 2 1 0 0 -0 -1 -1 -1 -2 -2
12 13 13 13 15 16 15 16 16 16 12 13 14 15 17 18 18 18 17 16 15 14 13 12 11 10 8 9 8 7 5 4 3 2 2 1 0 -0 -0 -1 -2 -2 -2 -2
13 12 13 14 15 15 15 15 15 15 15 13 15 16 17 17 18 17 15 14 13 12 12 11 9 7 7 7 7 6 4 3 2 2 1 -0 -0 -0 -1 -2 -2 -2 -3 -3
13 10 10 9 12 13 13 14 15 15 15 16 16 16 18 17 16 15 13 12 11 11 11 9 7 5 6 6 6 5 4 3 2 1 0 -0 -0 -1 -1 -2 -2 -3 -3 -3
11 8 8 8 12 9 8 10 13 15 16 16 15 16 16 16 14 13 12 11 10 10 9 7 5 5 6 5 5 4 3 1 -0 -0 -0 -1 -1 -2 -2 -2 -3 -3 -3 -4
9 7 6 7 8 9 15 17 17 16 16 16 16 16 14 13 12 11 10 9 6 5 6 4 4 5 4 3 3 2 0 -0 -1 -0 -0 -1 -1 -2 -3 -3 -3 -4 -4 -5
14 8 7 9 10 12 13 16 15 13 13 15 14 13 12 11 10 8 9 6 5 5 4 4 4 4 3 0 0 0 -0 -1 0 0 -1 -1 -2 -3 -3 -3 -4 -4 -5 -5
11 9 6 8 8 9 14 15 13 14 12 13 12 12 10 9 7 8 6 6 5 4 4 4 3 2 1 0 -1 -1 0 0 0 -1 -2 -2 -3 -3 -4 -4 -5 -5 -6 -6
7 6 6 7 7 10 14 15 12 10 12 11 11 10 9 9 8 7 5 4 4 4 4 2 2 1 -0 -1 -0 0 0 0 -0 -2 -3 -3 -3 -4 -5 -5 -6 -6 -7 -8
10 7 7 7 7 9 14 14 9 10 11 11 10 9 8 7 6 5 4 3 3 3 3 1 0 -0 -0 -0 -0 0 1 -0 -2 -3 -3 -3 -4 -5 -5 -6 -6 -7 -8 -8
9 11 11 11 12 14 14 13 12 12 11 9 7 9 7 6 6 5 3 3 3 2 1 -0 -1 -1 -1 -0 -0 -0 -1 -1 -2 -3 -4 -4 -5 -6 -6 -7 -7 -8 -7 -8
8 9 9 10 11 12 12 10 10 10 8 9 8 8 7 6 6 4 4 3 3 1 -0 -1 -1 -1 -0 -1 -1 -1 -2 -2 -3 -4 -5 -6 -6 -6 -7 -7 -8 -8 -9 -9
8 8 7 9 10 10 9 9 10 8 8 9 8 7 7 5 5 3 3 3 1 -0 -1 -1 -1 -0 -0 -1 -2 -3 -2 -3 -4 -5 -6 -6 -7 -7 -8 -8 -8 -9 -9 -10
7 7 6 6 8 8 9 10 10 9 7 7 7 7 7 6 4 3 2 0 -1 -1 -2 -1 -1 -1 -1 -2 -3 -4 -4 -4 -4 -5 -7 -7 -8 -8 -8 -8 -9 -9 -10 -10

GFSCGP_850_temp_006.txt.gz
Temp
23 23 21 22 22 22 22 22 23 23 24 23 22 23 24 25 24 24 23 22 22 21 21 21 19 17 16 14 13 12 12 11 11 10 10 10 10 9 9 9 9 8 8 8
23 22 21 22 23 22 22 22 22 22 23 22 22 23 24 24 23 22 22 21 20 20 19 19 18 17 15 14 13 12 12 11 11 10 10 10 10 10 10 9 9 8 8 7
22 21 21 22 22 20 21 21 20 20 21 23 23 24 24 23 22 21 20 20 20 19 18 18 17 16 15 14 13 12 12 12 11 11 10 10 10 10 10 9 9 8 8 7
22 21 21 21 21 20 19 21 19 20 20 19 22 21 24 24 22 22 21 20 20 19 18 17 17 16 15 15 14 13 12 12 11 11 11 10 10 10 9 10 9 9 8 7
20 20 20 21 20 20 19 19 19 21 21 20 22 21 23 24 23 22 22 21 19 18 18 17 16 16 16 15 14 13 12 12 11 11 11 10 10 9 9 9 9 8 8 7
21 20 20 20 20 21 20 20 21 23 20 18 22 21 21 23 23 23 22 21 19 18 17 16 16 16 15 15 14 13 12 12 11 11 11 10 10 9 8 8 8 8 7 6
22 21 20 19 19 21 20 19 17 17 18 18 21 20 21 23 24 22 21 19 18 17 16 16 15 15 14 14 14 13 12 12 11 11 10 10 10 9 8 7 7 6 6 5
19 19 20 19 18 17 18 18 16 14 16 16 18 18 22 24 23 21 20 19 18 18 17 16 16 15 14 13 13 13 12 12 12 11 11 10 9 8 7 6 5 5 5 4
17 19 20 19 18 18 18 17 18 15 14 14 16 20 22 24 23 21 20 20 18 17 17 16 15 14 14 13 12 12 12 11 11 11 10 10 9 8 7 5 4 4 3 2
17 15 19 19 19 19 18 18 15 14 12 14 17 17 18 21 20 20 20 19 18 17 16 15 14 14 13 12 12 11 11 11 10 9 9 9 8 7 5 4 3 2 1 -0
17 15 16 17 19 18 18 17 17 17 15 13 13 16 19 18 19 19 19 18 17 17 16 15 14 13 12 11 10 10 10 10 9 8 8 7 7 4 3 2 1 -1 -2 -2
15 14 12 15 18 19 18 17 17 13 13 14 13 13 18 19 20 19 19 18 17 16 15 14 13 13 11 10 9 9 9 9 8 7 6 5 4 2 2 1 0 -1 -2 -2
14 14 12 16 18 18 17 17 17 17 12 13 10 13 18 18 19 19 18 16 15 15 13 12 12 11 10 9 9 7 8 7 7 5 4 3 2 1 1 0 -0 -1 -2 -1
13 13 13 12 14 15 14 15 16 15 12 13 13 15 17 18 18 18 16 14 14 13 13 12 11 9 8 8 6 7 7 7 5 4 3 2 1 1 0 -0 -2 -2 -2 -2
14 11 13 14 14 14 13 13 14 15 15 13 14 16 17 18 18 15 14 13 12 12 11 9 8 8 7 6 6 6 6 6 5 3 3 2 1 0 -1 -2 -2 -2 -2 -2
14 9 9 9 12 13 12 13 14 14 15 15 15 16 18 17 15 14 13 12 11 9 8 6 7 6 5 5 5 5 5 5 4 3 2 1 -1 -1 -2 -2 -2 -2 -2 -3
12 8 6 9 10 9 8 10 13 14 16 16 13 15 17 16 13 12 11 11 8 7 6 7 5 6 5 5 4 3 3 3 3 1 -0 -1 -2 -2 -2 -2 -2 -2 -3 -3
10 6 5 7 6 8 14 16 15 14 15 15 15 15 15 13 11 10 10 7 7 5 5 5 5 5 5 4 3 3 1 0 0 -1 -1 -1 -1 -1 -2 -2 -3 -3 -3 -4
14 6 7 7 9 11 12 14 14 13 12 14 13 13 11 10 8 8 8 6 5 5 5 5 5 4 3 3 2 1 0 -0 -1 -1 0 -0 -1 -2 -2 -3 -3 -4 -4 -5
10 6 9 9 8 8 12 14 14 14 11 11 10 10 9 8 6 6 7 6 5 4 4 5 4 3 3 1 0 -0 0 1 1 0 -0 -1 -2 -2 -3 -3 -4 -5 -5 -6
7 6 7 8 8 9 13 14 13 9 8 8 9 8 8 7 7 6 6 6 5 4 5 4 2 2 1 0 -0 0 1 1 -1 -0 -1 -2 -3 -3 -4 -4 -5 -5 -6 -7
9 8 7 6 7 8 14 14 8 10 10 9 8 7 7 7 7 7 6 6 5 4 4 2 2 0 -0 -1 -1 -0 0 -0 -0 -1 -2 -3 -3 -4 -5 -5 -6 -6 -7 -7
8 10 9 10 10 13 13 12 11 9 9 8 7 8 7 7 7 6 5 5 4 3 2 2 0 -0 -1 -1 0 -0 -0 -1 -1 -2 -3 -4 -4 -5 -6 -6 -7 -7 -8 -8
9 10 8 8 10 11 11 10 9 9 8 7 7 6 6 7 7 7 6 4 3 2 1 -0 -1 -1 -1 -0 -1 -1 -1 -2 -2 -3 -4 -4 -5 -6 -6 -7 -8 -8 -8 -9
8 8 7 7 9 9 9 9 9 8 8 6 5 6 7 7 6 6 4 3 1 0 -1 -1 -1 -1 -1 -0 -1 -2 -3 -3 -3 -4 -4 -5 -6 -6 -7 -8 -8 -8 -9 -10
8 7 6 7 9 8 8 8 9 8 5 5 7 6 6 5 4 3 2 1 -1 -1 -1 -1 -1 -0 -0 -1 -2 -3 -3 -4 -4 -4 -5 -6 -6 -7 -8 -8 -9 -9 -9 -10

GFSCGP_850_temp_012.txt.gz
Temp
20 15 16 18 18 18 18 16 16 17 17 16 15 14 15 18 17 17 18 18 18 19 19 20 20 18 17 17 16 16 15 15 14 13 13 12 12 11 11 10 10 10 10 10
15 16 19 18 18 17 16 17 15 15 17 16 15 15 14 16 16 18 18 17 17 17 18 18 18 17 17 16 16 16 15 15 14 14 14 13 12 11 11 11 10 10 9 9
16 18 20 18 16 16 16 16 16 15 14 15 16 16 17 18 17 17 18 18 18 18 17 17 17 17 16 16 16 15 15 14 14 13 13 12 12 11 11 11 11 10 10 9
18 19 18 17 17 16 15 16 16 15 14 14 16 13 16 17 17 17 17 18 18 18 17 17 16 16 16 15 15 15 14 14 13 13 12 12 11 11 11 11 11 10 10 9
17 18 17 17 17 17 15 15 15 15 13 14 14 14 16 18 17 17 14 16 17 17 17 16 16 15 15 15 15 14 14 14 13 13 12 12 12 11 11 11 11 10 10 9
17 19 17 17 17 17 16 15 14 14 13 11 15 14 14 14 15 14 15 17 17 16 16 16 16 16 15 15 14 14 13 12 12 12 12 11 11 11 11 11 11 10 10 9
15 16 17 18 15 15 13 11 9 11 10 11 14 13 14 15 16 16 16 16 17 17 17 16 16 15 14 14 14 13 12 12 12 12 11 11 11 10 10 10 10 10 9 9
12 12 15 17 16 15 14 13 8 11 10 10 12 13 15 15 16 17 17 17 17 16 16 15 14 14 13 12 12 12 12 12 11 11 11 11 10 9 9 9 9 9 7 6
11 13 15 16 16 16 15 12 14 11 9 8 10 13 15 15 14 15 16 16 16 15 14 13 12 12 12 12 12 11 10 10 10 10 10 9 9 8 8 8 8 8 6 5
13 11 14 14 15 15 16 14 11 7 8 10 11 11 12 14 14 14 13 13 13 12 12 12 12 11 11 10 10 10 10 10 10 8 7 7 7 7 7 6 5 5 4 3
12 10 11 12 14 13 12 11 12 12 8 8 8 9 11 14 13 11 13 13 12 12 11 11 11 11 10 10 9 8 8 7 7 7 6 6 6 6 6 6 5 4 2 2
12 9 7 11 12 13 14 12 11 6 10 7 8 10 14 12 13 13 12 11 11 11 10 10 10 9 9 9 8 8 8 7 6 5 5 5 5 5 4 3 3 2 2 1
12 8 7 10 11 11 12 12 11 10 5 7 5 7 13 13 13 11 9 10 10 10 10 9 9 9 8 8 8 7 6 5 5 4 4 5 4 3 3 2 2 1 0 -0
12 9 9 8 10 10 10 11 11 10 4 8 9 10 11 11 9 9 9 9 9 8 8 8 8 8 7 7 6 5 5 4 4 3 4 3 2 1 1 0 0 -0 -1 -1
10 8 9 9 10 10 10 10 10 10 9 7 9 9 10 8 8 9 9 8 8 8 7 7 8 7 6 6 5 5 4 4 3 3 2 2 2 0 -1 -1 -1 -2 -2 -2
9 6 8 8 9 9 8 9 9 9 9 9 8 9 8 8 8 8 8 7 7 7 7 7 7 6 6 5 5 4 3 2 2 0 1 1 -1 -1 -1 -1 -3 -2 -1 -2
8 5 4 9 5 6 7 8 8 9 10 9 7 8 8 7 7 7 7 8 7 7 7 7 6 5 5 4 4 3 2 2 0 -0 -1 -1 -1 -1 -1 -2 -2 -2 -2 -2
5 2 3 6 5 7 10 10 10 9 9 9 8 8 7 7 7 7 7 7 7 6 6 6 6 5 4 4 3 2 2 1 0 -1 -1 -2 -2 -2 -2 -2 -2 -2 -3 -3
7 3 4 4 6 8 8 9 10 8 8 8 7 8 8 8 7 7 6 6 5 6 6 6 5 5 4 3 2 1 0 0 -0 -0 -1 -1 -2 -2 -2 -2 -2 -3 -3 -4
4 3 3 5 6 6 7 9 10 9 6 8 8 7 8 7 5 6 4 4 5 6 6 5 4 4 2 2 1 -0 -1 -1 -0 -1 -2 -2 -3 -2 -2 -3 -4 -4 -5 -5
2 3 2 -0 4 3 6 9 10 4 7 8 8 7 6 5 5 4 3 5 5 5 4 4 3 2 1 -0 -1 -2 -2 -2 -2 -2 -2 -2 -2 -3 -4 -4 -4 -5 -6 -6
5 3 4 2 4 5 9 9 7 7 8 8 7 6 5 4 4 2 4 3 4 3 2 2 1 0 -1 -1 -1 -2 -2 -2 -2 -2 -2 -3 -3 -4 -4 -5 -6 -6 -7 -8
6 6 4 5 4 8 9 9 9 8 8 7 5 4 3 2 3 4 4 3 3 2 0 0 -1 -1 -1 -1 -1 -1 -1 -2 -2 -2 -3 -3 -4 -4 -5 -6 -6 -7 -8 -9
6 8 3 5 8 8 9 9 8 8 6 5 4 3 3 2 3 3 3 2 1 -0 -1 -2 -1 -1 -2 -1 -1 -1 -2 -2 -2 -3 -3 -4 -4 -5 -6 -7 -8 -9 -9 -10
6 6 5 6 7 7 8 8 7 5 4 4 3 2 3 3 3 2 2 1 -0 -1 -2 -2 -2 -3 -3 -3 -3 -2 -3 -3 -3 -4 -4 -5 -5 -6 -7 -8 -9 -9 -10 -10
7 7 5 6 8 7 7 6 5 4 3 2 2 3 3 3 2 2 1 -1 -2 -2 -2 -3 -3 -3 -3 -3 -2 -3 -3 -4 -4 -4 -5 -6 -6 -8 -9 -9 -9 -10 -10 -11

GFSCGP_850_temp_015.txt.gz
Temp
18 14 15 17 17 17 17 16 15 16 16 15 14 12 14 14 16 16 17 16 17 18 19 20 19 18 17 17 16 16 15 15 14 14 14 13 13 13 12 12 12 11 11 11
15 16 18 16 16 16 16 16 15 14 15 14 14 13 14 14 15 14 16 16 18 19 19 19 18 17 17 17 16 15 15 15 14 14 13 13 13 13 12 12 11 11 11 11
15 18 18 17 15 15 15 16 15 14 13 15 13 15 15 15 16 16 15 16 17 18 17 17 17 17 16 16 15 15 15 15 14 13 13 13 12 12 12 12 12 11 11 11
17 17 17 15 16 15 14 16 15 14 14 13 13 14 15 15 16 13 14 15 16 17 16 16 16 17 17 16 16 15 15 14 14 13 12 12 12 11 11 11 11 11 11 10
17 17 16 16 16 15 15 14 13 14 13 13 13 12 14 13 15 14 14 16 16 16 17 17 17 16 16 15 15 15 14 14 13 12 12 12 12 11 11 11 10 10 10 10
15 17 17 17 16 16 14 14 12 12 11 11 14 13 11 13 14 14 15 15 16 16 17 16 16 15 15 15 14 13 13 12 12 12 12 11 11 11 11 10 10 9 10 10
13 15 15 16 15 14 12 11 9 11 9 11 13 13 12 14 15 16 15 16 16 16 16 15 15 14 14 13 12 12 12 12 12 12 11 11 10 10 10 9 8 8 8 8
11 12 14 15 15 15 14 12 8 11 9 9 11 12 13 14 15 16 15 15 15 16 15 14 13 13 12 12 12 11 11 11 11 10 10 10 9 9 8 7 7 7 7 7
10 12 13 15 14 14 14 11 12 9 8 7 9 12 13 13 12 13 13 13 12 11 12 12 12 12 11 11 11 10 10 9 9 8 7 7 6 7 7 6 6 6 6 6
12 11 13 13 14 14 14 13 10 7 7 10 10 10 11 13 11 12 11 10 11 11 11 11 11 10 10 9 9 9 8 7 7 7 6 6 6 6 6 6 6 5 5 4
11 10 11 12 12 13 11 10 10 10 7 8 7 9 10 11 10 10 9 10 10 10 10 10 10 10 9 9 8 8 7 7 7 6 5 5 5 4 5 5 5 5 3 2
11 8 7 12 11 11 12 10 9 7 9 6 6 9 11 11 10 9 9 9 10 10 10 9 9 9 8 8 7 7 6 6 6 5 4 3 3 3 3 3 3 2 2 0
11 7 6 10 11 11 11 11 10 7 5 8 6 7 10 12 9 9 9 9 9 9 9 9 8 8 7 7 6 6 6 5 4 4 3 3 2 2 2 1 1 1 0 -1
12 8 8 7 10 9 9 10 10 9 4 7 8 9 10 9 8 8 9 8 8 8 8 8 7 7 7 6 6 6 5 4 4 3 3 2 1 2 1 -0 -1 -1 -2 -3
9 8 8 8 8 8 9 9 9 8 7 7 8 8 9 8 7 8 8 7 7 7 7 7 6 6 6 6 6 5 4 4 3 3 2 0 -0 -1 -1 -2 -2 -3 -2 -3
8 6 7 7 7 7 7 8 7 7 7 7 7 7 8 8 8 7 7 7 6 7 7 6 6 6 6 6 5 5 4 3 2 1 1 -1 -1 -1 -2 -2 -3 -3 -3 -3
7 4 5 6 5 4 5 6 7 8 9 8 6 7 7 6 7 7 7 7 7 6 4 5 6 6 6 5 4 3 3 2 1 0 -0 -1 -2 -2 -2 -3 -3 -3 -3 -3
3 2 2 6 5 6 9 9 9 8 8 8 8 7 7 7 7 7 7 5 5 4 4 5 5 5 5 4 3 2 1 1 -0 -1 -1 -2 -2 -2 -3 -2 -3 -3 -3 -4
5 3 4 6 5 6 8 9 10 9 8 7 7 7 8 7 7 7 5 4 4 4 4 4 4 4 3 3 2 1 -1 -1 -2 -2 -3 -3 -3 -3 -3 -3 -3 -4 -4 -4
3 2 2 4 5 6 7 8 10 8 6 7 8 7 6 6 5 5 3 2 2 3 3 3 2 2 1 1 -0 -1 -1 -3 -2 -2 -3 -2 -2 -3 -3 -4 -4 -4 -5 -5
2 3 3 3 5 4 5 8 9 5 6 9 7 7 6 4 5 3 3 4 3 3 3 2 1 0 -0 -1 -1 -1 -2 -2 -2 -3 -3 -3 -3 -3 -4 -4 -5 -5 -6 -6
5 3 2 2 3 4 8 8 7 7 9 8 6 5 4 3 2 3 3 3 3 2 1 0 -0 -1 -1 -2 -2 -2 -2 -2 -3 -4 -3 -3 -3 -4 -4 -5 -6 -6 -7 -7
6 6 4 4 5 8 9 9 9 8 7 6 5 4 3 2 3 3 3 2 2 1 0 -1 -2 -2 -2 -2 -3 -2 -3 -4 -3 -3 -3 -4 -4 -5 -5 -6 -7 -7 -8 -9
6 7 4 6 7 8 9 8 8 7 6 5 3 2 1 1 3 2 2 2 1 1 -1 -2 -2 -3 -3 -3 -3 -4 -4 -4 -3 -4 -4 -4 -5 -6 -7 -7 -8 -8 -9 -9
6 6 5 6 7 7 8 7 6 6 4 2 2 1 1 2 3 2 2 1 1 -0 -1 -2 -2 -2 -3 -3 -3 -3 -3 -4 -4 -4 -5 -5 -6 -7 -7 -8 -8 -9 -10 -10
6 6 5 6 8 7 7 5 4 3 2 1 1 4 3 3 3 2 1 1 0 -1 -2 -2 -3 -3 -3 -3 -3 -4 -4 -4 -5 -5 -5 -6 -7 -8 -8 -9 -9 -10 -10 -11

GFSCGP_850_temp_018.txt.gz
Temp
17 13 14 16 16 16 16 15 15 14 15 14 13 12 12 13 14 14 15 15 16 17 18 18 18 18 17 16 16 16 16 15 15 14 14 13 13 13 12 12 12 12 12 11
14 15 17 14 15 16 16 15 14 13 14 14 13 13 13 13 12 13 14 15 16 18 18 19 19 18 17 17 16 16 16 15 15 14 14 13 13 12 12 12 12 12 11 11
14 17 16 16 14 14 14 15 15 14 12 14 12 14 13 15 15 15 15 16 17 18 18 18 18 17 17 17 16 16 15 15 14 13 13 12 12 12 12 12 11 11 11 10
16 16 15 15 15 14 14 15 14 13 13 13 12 13 14 12 13 13 15 16 15 16 17 17 17 17 17 16 15 15 15 14 13 12 12 12 11 11 11 11 10 10 10 10
16 16 15 15 16 15 14 13 13 13 12 12 12 11 13 12 13 13 13 15 16 16 16 16 15 15 15 15 15 14 13 12 12 11 11 11 11 11 10 10 10 10 9 9
14 16 15 16 15 14 13 12 11 10 10 10 13 12 11 12 13 13 13 15 15 15 15 15 14 14 14 13 12 12 12 12 12 11 11 11 10 10 10 9 9 8 8 8
12 14 14 15 14 13 12 10 9 11 9 11 12 11 11 13 12 12 12 14 14 15 14 13 13 13 12 12 11 11 11 11 11 10 10 10 9 9 8 8 8 8 7 7
10 12 13 14 14 14 13 11 7 11 8 9 10 12 12 13 13 12 13 13 12 12 11 11 11 11 11 11 11 10 10 10 10 9 9 8 8 7 6 7 7 6 6 5
10 12 12 14 13 13 13 10 11 8 7 7 9 10 12 10 10 10 10 11 10 10 11 11 10 10 10 10 10 10 9 9 8 8 7 6 5 6 6 6 5 5 5 5
11 10 12 12 14 13 12 12 10 6 7 10 9 9 11 10 9 9 8 9 10 10 10 10 10 9 9 8 8 7 6 6 6 6 6 5 4 4 4 4 4 4 4 4
11 9 11 11 11 11 10 10 9 8 7 6 7 8 10 9 9 9 8 9 9 9 9 9 9 9 8 7 7 7 6 7 6 6 5 4 3 3 3 3 3 3 2 1
10 7 7 11 11 10 10 10 8 6 8 5 5 7 10 9 9 8 8 8 9 8 8 8 8 8 7 7 7 7 6 6 5 5 4 3 3 2 2 2 2 0 -1 -1
11 7 6 9 10 10 10 10 8 6 4 8 7 7 9 10 10 9 8 8 8 8 8 8 8 8 7 6 6 6 5 5 5 4 3 3 2 2 1 -0 -1 -1 -2 -2
11 7 8 7 9 8 8 9 8 8 6 7 8 9 10 10 7 8 8 8 8 8 7 7 6 6 6 6 6 6 5 5 4 3 2 2 1 -0 -1 -1 -2 -2 -3 -3
8 8 7 7 7 7 8 7 7 7 7 7 9 7 8 7 7 8 8 8 8 7 6 6 5 5 5 6 6 5 4 3 2 2 1 1 -1 -2 -2 -2 -3 -3 -3 -3
7 6 6 5 6 6 5 6 7 7 6 7 7 6 7 8 8 8 8 7 6 5 4 4 4 5 5 4 4 3 2 2 2 1 0 -1 -2 -2 -2 -2 -3 -3 -3 -3
7 4 3 4 4 4 5 7 6 8 7 8 7 8 7 7 7 7 7 6 5 5 4 4 4 3 3 3 2 1 1 1 0 -1 -1 -1 -2 -2 -2 -3 -3 -3 -3 -3
2 2 2 3 3 5 9 8 9 8 7 7 6 6 7 7 7 6 6 5 4 4 4 3 2 2 2 2 2 1 0 -0 -1 -1 -2 -2 -2 -2 -2 -3 -3 -3 -4 -4
4 2 4 6 5 6 9 9 9 7 7 8 6 7 7 7 6 6 5 3 3 4 3 2 2 2 2 1 -0 -1 -1 -2 -2 -2 -2 -3 -3 -3 -3 -3 -4 -4 -5 -5
2 1 2 4 6 5 7 8 9 8 5 7 8 8 7 6 4 5 3 3 4 3 2 2 2 1 0 -0 -1 -1 -2 -2 -3 -3 -3 -3 -3 -3 -4 -4 -4 -5 -6 -6
1 3 5 5 5 5 6 7 8 5 7 7 8 8 6 4 4 1 2 4 3 2 2 2 1 -0 -1 -2 -2 -2 -2 -3 -4 -4 -4 -4 -4 -4 -4 -5 -6 -6 -7 -7
5 3 2 2 3 3 7 8 7 8 7 7 7 6 5 2 2 2 4 4 3 2 2 1 0 -1 -2 -2 -2 -3 -3 -4 -4 -4 -4 -4 -4 -5 -5 -6 -6 -7 -7 -8
5 6 5 5 4 7 8 9 9 9 7 6 5 4 3 1 2 4 3 2 2 1 1 1 -0 -2 -2 -2 -3 -3 -3 -3 -4 -4 -4 -4 -5 -5 -6 -7 -8 -8 -8 -9
6 7 4 6 7 7 9 9 8 7 5 4 3 1 -0 1 3 2 2 2 1 1 1 0 -1 -2 -2 -3 -3 -3 -3 -4 -4 -4 -5 -5 -5 -6 -7 -8 -8 -9 -9 -10
5 6 5 5 7 7 7 8 6 4 3 2 0 1 1 2 2 2 2 1 1 0 0 -1 -2 -2 -3 -3 -3 -3 -4 -4 -4 -5 -5 -6 -6 -7 -8 -8 -9 -9 -10 -11
6 6 5 6 8 7 6 4 3 2 -0 -1 1 2 2 2 2 1 1 1 0 -0 -0 -1 -2 -2 -3 -3 -3 -4 -4 -5 -5 -5 -6 -6 -6 -7 -8 -9 -9 -10 -10 -11

GFSCGP_850_temp_021.txt.gz
Temp
17 17 16 16 15 16 16 16 15 15 15 16 15 15 16 14 14 13 13 15 16 16 17 18 18 18 18 17 17 16 16 15 15 14 14 13 13 13 13 12 12 11 11 11
16 16 16 15 15 16 16 16 16 15 14 15 15 16 15 14 13 12 14 14 16 17 18 18 19 18 17 17 16 16 15 15 14 13 13 13 12 13 13 12 12 12 11 11
15 16 15 16 15 15 15 16 15 15 14 14 15 17 16 15 14 14 14 15 15 16 17 17 16 17 16 16 15 15 14 13 13 12 12 12 12 12 12 12 11 11 10 10
15 15 15 15 15 14 15 14 14 14 15 17 13 17 16 14 15 14 13 15 16 16 15 15 15 14 14 14 14 13 13 12 12 11 11 10 10 10 10 10 10 10 10 9
15 15 15 15 15 14 15 13 13 13 14 14 15 16 16 14 14 14 14 13 14 15 14 14 14 13 12 12 12 11 11 11 11 10 10 10 10 10 9 9 9 9 9 9
14 15 14 15 14 14 13 13 13 12 13 15 13 15 14 14 13 14 13 10 11 13 13 12 12 11 11 10 11 11 11 11 11 11 10 10 10 10 9 9 9 9 8 8
13 14 14 14 15 14 14 13 14 15 15 15 13 13 13 12 12 12 11 9 10 11 11 11 11 11 11 11 11 11 11 11 11 10 10 9 9 8 7 6 6 6 5 6
13 14 14 13 14 14 13 13 13 13 13 13 11 13 13 12 11 10 10 10 10 10 10 10 10 10 10 10 10 9 10 11 10 9 8 7 6 5 5 5 4 4 4 5
11 13 13 13 12 13 13 13 11 10 8 11 12 12 13 11 11 10 10 10 10 10 10 10 10 9 9 9 9 9 8 8 7 7 7 6 5 4 4 3 4 4 4 3
11 12 12 12 13 13 13 12 13 11 11 12 13 12 14 12 12 10 9 9 9 10 9 10 9 9 8 8 7 7 6 6 6 5 5 4 3 3 3 3 3 2 2 1
11 11 12 12 12 12 12 12 10 11 10 10 9 13 12 12 11 11 9 8 8 9 8 7 7 7 7 6 6 6 6 6 5 5 4 4 3 3 2 2 2 1 1 -1
10 9 10 12 11 11 11 11 10 11 10 9 9 11 11 11 10 9 8 8 9 8 7 7 7 7 7 7 6 6 6 6 5 4 4 3 3 2 2 1 -0 -1 -2 -2
10 9 10 12 11 11 11 11 9 8 7 9 9 11 11 9 9 8 8 9 9 8 8 6 7 7 7 6 5 5 5 5 4 3 2 2 2 1 0 -1 -1 -1 -2 -3
11 8 10 11 11 10 10 9 9 10 8 10 10 11 12 12 10 8 9 8 8 8 6 6 6 5 4 3 4 4 4 3 2 2 1 1 0 -1 -2 -2 -2 -3 -3 -3
9 9 8 9 9 8 9 9 9 9 9 9 11 11 11 11 9 9 8 8 7 7 6 5 4 3 3 3 3 3 3 2 1 0 -0 -1 -1 -2 -2 -2 -3 -3 -3 -3
7 8 6 6 7 7 7 8 8 8 8 8 9 9 10 8 8 7 7 7 6 5 4 3 3 3 3 3 2 2 1 0 -0 -1 -1 -2 -1 -2 -2 -3 -2 -3 -3 -3
7 6 6 7 5 6 7 8 8 8 8 9 9 11 8 8 7 7 7 6 4 3 3 3 3 3 2 2 1 1 0 -0 -1 -1 -2 -3 -2 -2 -3 -3 -3 -3 -3 -4
3 4 4 6 5 8 11 9 10 9 10 9 8 8 8 8 8 6 5 4 3 4 4 4 2 2 2 2 1 -0 -1 -2 -2 -2 -2 -3 -3 -3 -3 -3 -3 -4 -4 -5
5 3 5 6 6 8 10 10 9 8 10 9 8 8 8 7 5 7 4 3 3 3 3 2 2 2 2 1 -0 -1 -2 -2 -3 -3 -3 -4 -4 -4 -4 -4 -4 -5 -5 -6
3 3 5 5 6 7 9 9 8 8 8 7 8 7 7 7 5 6 2 2 3 3 2 2 2 1 1 -0 -1 -2 -2 -2 -3 -4 -4 -4 -4 -4 -4 -5 -5 -6 -6 -7
3 3 5 6 6 7 8 7 8 7 9 8 8 7 6 6 5 1 1 4 2 2 2 2 1 1 -0 -1 -2 -2 -3 -3 -3 -4 -4 -4 -4 -5 -5 -5 -6 -7 -7 -8
7 5 4 3 5 5 7 8 8 9 7 7 6 5 4 2 1 1 3 2 3 3 2 1 1 0 -1 -2 -3 -3 -3 -3 -3 -3 -4 -4 -5 -5 -5 -6 -7 -8 -8 -9
6 7 7 6 7 7 7 9 8 7 6 4 4 2 1 0 1 2 2 3 2 2 1 1 0 -0 -1 -2 -3 -3 -3 -3 -4 -4 -4 -5 -5 -6 -6 -7 -8 -8 -9 -10
6 6 5 6 8 8 9 8 6 5 4 3 2 1 -0 -0 1 2 2 2 2 1 1 0 -0 -1 -1 -2 -2 -3 -3 -4 -4 -5 -5 -5 -6 -6 -7 -7 -8 -9 -10 -11
7 6 6 5 7 7 7 5 4 3 2 1 0 0 1 2 2 2 2 1 0 -0 -0 -1 -1 -1 -2 -2 -3 -3 -4 -4 -5 -5 -5 -6 -6 -7 -7 -8 -9 -9 -10 -11
6 6 5 6 8 6 4 2 2 1 1 1 1 2 2 2 2 1 1 0 -1 -1 -1 -1 -2 -2 -2 -3 -3 -3 -4 -5 -5 -5 -6 -6 -7 -7 -8 -8 -9 -9 -10 -11

GFSCGP_850_temp_024.txt.gz
Temp
20 23 22 21 21 21 21 21 21 21 20 20 20 21 20 19 20 20 19 19 18 18 16 15 16 17 16 16 15 13 13 13 14 13 12 12 12 12 11 11 10 11 11 11
22 20 20 20 20 20 20 20 20 20 19 19 20 20 20 19 18 18 19 18 18 18 16 15 14 15 15 15 15 14 13 13 13 13 13 13 12 11 11 11 9 9 11 11
21 19 18 19 20 20 20 19 19 19 19 19 20 20 20 19 18 18 18 18 17 16 16 15 13 14 14 14 14 13 12 12 13 12 10 10 10 10 10 9 9 10 11 10
20 18 19 19 19 19 19 18 18 18 19 21 19 21 19 19 19 18 17 16 16 15 15 14 13 13 13 13 13 12 11 11 11 11 10 11 9 9 9 8 7 8 9 9
18 19 19 19 18 18 18 17 17 17 19 19 20 21 19 19 18 18 16 14 14 13 13 12 11 11 10 11 11 11 9 10 10 10 10 10 9 8 7 9 8 6 6 6
18 17 19 18 18 17 17 17 17 18 19 18 19 19 20 19 17 17 15 13 12 12 12 11 11 11 10 9 9 9 9 8 10 10 9 10 9 7 6 6 6 6 5 5
19 18 18 17 19 18 19 19 19 18 18 19 17 18 18 16 16 15 15 13 12 12 12 12 11 11 10 9 9 9 8 8 8 8 7 6 6 6 5 5 5 4 4 4
18 18 17 17 17 17 17 17 17 16 17 18 16 18 17 16 15 14 13 13 12 12 11 11 11 10 10 9 8 8 8 8 7 7 6 7 7 6 5 4 3 3 3 2
17 17 17 16 16 16 17 16 16 15 13 14 18 17 16 15 14 14 13 13 12 12 11 11 11 10 9 9 8 7 8 8 7 6 6 5 4 4 3 2 2 2 2 1
15 16 16 16 16 16 17 16 16 16 14 15 18 17 18 15 15 14 14 13 12 11 11 11 10 9 8 8 8 7 6 6 6 5 4 4 3 3 2 1 1 0 0 -0
15 15 16 16 16 16 16 16 15 16 14 14 14 17 17 16 16 14 13 12 11 11 10 9 9 8 8 7 7 6 6 5 5 4 3 3 2 1 1 0 -0 -1 -1 -1
14 14 15 15 14 14 15 15 15 14 14 13 13 14 16 16 14 12 12 11 11 10 10 9 9 8 8 7 6 5 4 4 3 3 3 2 1 1 0 -1 -1 -2 -2 -2
14 14 15 15 15 15 15 15 14 13 12 12 11 15 15 14 13 14 12 12 11 10 10 9 9 8 7 6 5 4 4 3 3 2 2 2 1 -0 -1 -1 -2 -2 -2 -3
12 14 14 15 15 14 14 14 14 13 11 13 14 15 16 17 16 14 13 11 11 10 10 9 8 7 6 5 4 3 3 2 1 1 1 1 -0 -1 -2 -2 -2 -2 -2 -2
14 13 13 14 14 14 13 13 14 13 13 12 13 15 16 16 15 13 11 10 10 10 8 7 6 6 4 4 3 2 1 0 0 0 0 -0 -1 -2 -2 -2 -3 -3 -3 -3
12 12 10 10 12 13 12 13 13 13 13 13 13 13 15 13 12 11 11 10 9 9 7 5 4 4 3 2 1 1 0 -0 -0 -0 -0 -2 -2 -3 -3 -3 -3 -3 -3 -4
11 11 10 10 10 10 9 12 13 13 14 13 12 14 13 13 11 11 10 9 8 7 5 4 4 3 2 1 1 0 -0 -0 -0 -1 -1 -2 -2 -3 -3 -3 -3 -3 -4 -4
7 7 6 8 8 10 13 14 14 13 13 14 14 14 12 11 10 9 9 7 5 3 2 3 3 2 2 1 1 -0 -0 -1 -1 -1 -2 -2 -3 -3 -3 -4 -4 -4 -5 -5
9 7 6 7 9 12 12 13 13 12 12 13 12 11 11 10 9 10 5 2 1 1 2 3 2 1 1 1 0 -0 -0 -0 -1 -2 -3 -3 -3 -4 -4 -4 -5 -5 -6 -6
7 7 8 6 7 9 13 13 10 11 11 11 10 9 8 6 5 7 1 1 0 1 3 2 2 1 1 1 -1 -1 -1 -1 -1 -2 -3 -3 -4 -4 -5 -5 -5 -6 -6 -6
5 5 7 7 7 10 13 10 9 9 9 9 8 7 6 5 3 1 1 1 2 3 3 2 2 1 1 -0 -1 -1 -1 -1 -2 -3 -3 -4 -4 -5 -5 -6 -6 -6 -7 -8
10 7 6 6 6 7 10 10 8 9 8 8 7 5 4 2 1 0 1 2 3 3 3 3 1 1 0 -1 -1 -1 -1 -1 -2 -3 -4 -4 -5 -5 -6 -6 -6 -7 -7 -8
10 11 11 10 11 12 11 9 9 8 7 5 3 2 1 0 0 2 3 3 3 3 2 2 1 0 -0 -1 -1 -1 -1 -2 -3 -4 -4 -5 -6 -6 -6 -7 -7 -7 -8 -9
12 10 9 9 11 11 10 9 5 4 4 2 2 1 1 1 2 2 3 3 3 2 1 1 0 -0 -0 -0 -1 -2 -2 -4 -4 -4 -5 -5 -6 -6 -6 -7 -7 -8 -9 -10
11 11 10 10 9 9 9 5 3 2 1 1 1 1 1 2 2 2 2 2 1 0 -0 -0 -1 -1 -1 -1 -2 -2 -3 -4 -5 -5 -6 -6 -7 -7 -7 -8 -8 -9 -10 -10
9 10 8 7 8 7 4 2 2 1 1 1 1 2 2 2 1 1 1 0 0 -0 -1 -1 -1 -2 -2 -2 -2 -3 -4 -5 -5 -6 -6 -7 -7 -7 -8 -8 -9 -9 -10 -10

GFSCGP_850_temp_027.txt.gz
Temp
24 25 25 24 24 24 24 24 24 24 23 23 24 24 23 23 23 23 23 22 21 21 19 17 16 16 16 15 15 15 15 14 13 14 14 14 14 13 13 12 11 10 10 9
24 24 23 23 23 23 23 23 23 23 23 22 24 23 23 22 22 22 22 21 20 18 17 16 15 14 14 13 13 13 13 12 12 13 12 12 12 12 11 11 10 10 9 10
24 23 21 22 22 22 23 22 22 22 23 23 23 23 22 22 21 20 20 19 19 19 17 16 15 13 13 12 13 12 12 11 11 12 12 12 12 12 12 11 10 10 9 8
22 21 22 22 21 21 22 21 20 21 21 23 23 23 22 22 21 20 19 18 18 18 17 15 14 13 12 12 11 12 11 11 10 11 10 10 10 11 11 9 9 8 8 8
21 21 21 21 20 21 21 20 20 21 21 23 23 23 22 22 21 20 18 17 16 16 15 15 14 13 12 11 11 11 11 10 10 9 10 9 9 8 8 9 8 7 7 7
21 20 21 21 20 20 20 20 21 21 22 20 23 22 22 22 21 19 18 16 16 15 15 14 14 13 13 11 11 10 11 11 10 9 8 8 7 7 7 7 7 7 6 6
21 21 21 20 21 21 22 21 20 20 20 20 21 21 21 19 19 19 17 16 15 15 14 14 14 13 12 11 11 10 11 10 10 9 8 8 7 7 7 6 6 5 5 4
21 19 20 20 19 19 20 20 18 17 19 21 20 20 20 19 17 16 16 15 15 15 14 14 13 13 12 12 11 10 10 10 9 9 8 7 7 6 5 5 4 4 3 3
20 20 19 19 19 19 20 19 19 18 16 16 21 20 19 18 18 17 16 16 15 14 14 14 13 12 11 11 10 10 9 8 8 8 7 6 6 5 5 4 3 3 2 2
18 19 19 19 19 19 19 19 18 18 14 16 21 21 21 17 17 17 17 16 15 14 14 13 12 12 10 10 10 9 8 8 7 7 6 5 5 5 4 3 2 2 1 0
19 18 19 19 19 19 19 19 18 18 17 16 16 19 20 19 19 19 17 16 15 14 13 13 12 11 10 10 9 8 7 7 6 6 5 5 4 4 3 2 2 1 -0 -1
17 18 17 19 18 18 18 18 18 16 16 16 15 15 19 19 18 16 16 15 14 13 13 12 11 11 10 9 8 7 6 6 5 4 4 4 3 3 2 1 1 -1 -1 -2
17 17 17 18 17 17 17 18 17 16 14 13 13 15 19 18 17 16 15 15 14 13 13 12 11 10 9 8 7 6 5 4 3 3 3 3 3 1 0 -1 -1 -1 -2 -2
14 17 17 16 17 18 17 17 17 16 14 14 15 17 19 19 18 17 16 15 14 13 12 11 10 9 8 7 6 5 4 3 3 2 2 2 1 -0 -1 -1 -1 -2 -2 -2
16 15 17 17 17 17 17 17 17 16 16 14 15 16 17 17 16 15 15 13 13 13 12 10 9 8 7 6 5 4 3 3 2 2 2 2 -1 -1 -1 -2 -2 -2 -2 -2
15 14 13 13 16 16 16 16 16 16 16 16 16 15 16 16 15 15 14 13 12 11 9 7 6 5 5 5 4 3 3 2 2 2 2 1 -1 -1 -2 -2 -2 -2 -2 -3
14 13 12 11 12 12 11 14 16 16 16 15 14 15 16 16 14 12 11 10 9 6 6 5 4 4 4 4 3 3 2 2 2 1 1 -0 -1 -1 -2 -2 -2 -3 -3 -3
11 11 8 9 8 11 16 17 16 16 16 16 16 16 15 14 11 10 7 6 6 4 3 3 3 4 5 3 3 3 2 2 2 2 1 -0 -2 -2 -2 -2 -3 -3 -3 -4
13 11 8 8 11 13 14 15 14 13 13 15 14 14 13 11 10 10 6 3 3 2 3 2 4 5 4 3 3 3 2 2 2 1 0 -1 -2 -2 -2 -2 -3 -3 -4 -4
11 11 10 8 8 10 14 15 13 13 12 13 12 11 10 10 8 6 3 3 2 2 3 5 4 5 4 4 3 2 2 1 1 1 -0 -1 -2 -2 -2 -3 -4 -4 -4 -5
7 7 8 9 8 11 14 13 12 10 10 10 10 7 5 5 3 2 2 2 2 4 5 5 5 5 4 4 3 2 2 2 1 1 -1 -2 -2 -3 -3 -4 -4 -4 -4 -5
9 7 7 8 7 8 13 12 10 10 10 8 7 4 2 2 2 2 2 4 5 5 5 5 4 4 3 3 3 2 2 2 1 -1 -1 -2 -3 -3 -4 -4 -4 -4 -5 -6
12 13 11 11 12 14 13 11 9 8 7 5 3 3 2 2 3 4 4 5 5 5 4 4 3 2 2 2 2 2 1 -0 -2 -2 -2 -3 -4 -4 -4 -4 -4 -5 -6 -7
14 14 11 11 12 13 12 10 6 5 4 3 3 2 3 3 4 4 4 4 4 4 3 2 2 1 1 1 1 1 0 -1 -2 -2 -3 -4 -4 -4 -5 -5 -5 -6 -7 -8
12 13 12 11 12 10 6 5 5 4 3 2 2 3 4 4 4 4 4 3 3 2 2 1 1 1 1 0 0 -0 -0 -2 -3 -4 -5 -5 -5 -5 -6 -6 -7 -7 -8 -9
11 12 10 9 7 6 4 3 3 2 3 3 3 4 4 4 3 3 3 2 2 1 1 1 1 0 -1 -1 -1 -3 -3 -3 -4 -5 -5 -5 -6 -6 -7 -7 -7 -8 -8 -9

GFSCGP_850_temp_030.txt.gz
Temp
24 24 24 24 24 24 25 25 25 25 24 23 24 24 24 24 24 24 23 23 22 19 17 16 17 17 16 16 16 16 15 15 14 14 14 14 14 14 13 13 12 12 11 11
25 23 23 24 24 24 24 24 24 24 24 23 24 24 24 23 23 23 22 20 19 18 16 15 14 15 15 14 14 14 13 13 13 13 13 13 12 12 12 12 11 11 10 10
23 23 23 23 23 23 24 23 22 22 23 24 23 23 22 22 22 21 20 20 19 18 16 15 14 13 13 13 13 12 12 12 12 12 12 12 12 12 12 11 11 11 10 9
23 23 23 23 23 22 22 22 21 22 22 21 24 21 22 22 21 21 20 19 19 18 16 15 14 13 12 12 12 12 11 11 11 11 11 10 10 10 10 10 9 9 8 8
22 22 22 22 21 21 22 21 21 21 21 22 23 22 23 22 20 20 19 18 17 17 16 15 14 13 12 11 11 11 11 11 11 10 9 9 8 8 8 8 8 7 7 7
22 22 22 21 21 21 22 21 22 22 21 19 22 23 21 21 21 20 18 17 17 16 15 15 14 14 13 12 11 11 11 11 11 10 9 9 8 7 7 7 7 6 6 5
22 22 21 21 21 22 22 21 19 18 19 19 22 22 20 20 21 20 18 17 16 16 15 15 14 14 13 12 12 11 10 10 10 10 9 8 8 7 7 6 5 5 4 3
21 19 21 21 20 20 21 20 18 17 16 18 22 21 19 20 19 18 18 17 16 15 15 15 14 13 13 12 11 11 10 9 9 8 8 7 7 6 6 5 5 4 3 2
21 20 20 20 20 20 20 19 20 18 18 16 19 20 20 19 18 18 17 17 16 15 15 14 14 13 12 11 11 10 9 9 8 8 7 6 6 5 5 5 4 3 2 1
19 19 20 20 20 20 20 20 18 18 14 16 19 20 17 18 18 18 18 17 16 15 15 14 13 13 12 11 10 10 9 8 7 7 6 6 5 5 4 4 3 2 2 1
19 19 19 20 19 19 19 19 19 19 18 15 15 18 20 19 19 18 18 17 16 15 14 14 13 12 11 10 10 9 8 7 6 6 5 4 4 3 3 3 2 2 1 0
17 19 17 19 19 19 19 18 18 15 15 15 15 15 20 19 18 18 17 16 15 15 14 13 12 11 10 10 9 8 7 6 5 4 4 3 3 3 2 2 1 0 -1 -1
17 18 16 18 18 18 18 19 18 17 14 13 12 14 20 19 15 16 16 15 14 14 14 13 12 10 10 9 8 7 6 5 4 3 3 3 2 2 1 0 -0 -0 -1 -1
14 18 17 16 18 18 17 18 18 18 13 14 14 15 17 18 16 16 15 15 14 14 12 11 10 9 8 8 7 6 5 4 3 3 3 2 2 1 0 -1 -1 -1 -1 -2
17 15 17 17 18 18 17 17 17 17 17 14 16 16 17 16 16 16 13 12 12 11 10 8 8 7 7 6 5 5 5 4 3 3 2 2 2 -0 -0 -1 -2 -2 -2 -2
16 14 13 13 17 16 15 16 16 17 17 17 16 15 17 17 14 13 12 10 10 8 7 7 6 5 5 5 5 5 4 4 3 3 2 2 1 -0 -1 -2 -2 -2 -2 -2
15 13 12 11 11 11 11 13 16 16 16 16 14 16 16 14 12 11 10 9 8 6 6 5 4 4 4 4 5 4 3 3 3 3 2 2 0 -1 -1 -2 -2 -2 -3 -3
11 11 8 8 8 11 16 17 16 15 16 16 16 16 13 12 11 9 7 6 5 4 4 3 3 4 4 5 5 4 4 3 3 2 2 2 0 -1 -1 -2 -2 -3 -3 -3
15 10 8 9 11 13 15 15 14 13 13 15 14 12 11 9 10 8 5 4 3 3 3 3 4 5 5 5 5 3 4 3 3 2 2 1 -0 -1 -1 -2 -2 -3 -3 -4
13 11 10 8 8 10 14 16 14 14 11 12 10 9 7 7 7 7 3 3 3 3 4 5 6 6 5 5 4 4 3 3 3 2 1 -0 -2 -2 -2 -3 -4 -4 -4 -4
7 7 8 9 8 10 14 14 13 10 10 9 7 6 5 5 4 3 3 4 4 5 6 6 5 5 4 3 3 2 2 2 1 1 -2 -1 -2 -3 -2 -4 -4 -4 -4 -4
8 7 6 8 8 8 13 12 8 10 9 7 6 4 4 4 3 4 5 5 5 5 5 5 4 3 3 2 2 2 2 1 1 -0 -1 -2 -3 -3 -4 -4 -4 -4 -5 -5
13 12 11 10 10 13 12 9 8 8 6 5 5 4 3 4 5 5 5 5 5 4 4 3 3 2 2 2 2 1 1 -0 -1 -2 -2 -3 -3 -4 -4 -5 -5 -5 -5 -6
15 15 12 12 13 13 10 8 5 5 4 4 4 3 4 4 5 5 5 4 4 3 3 2 2 1 1 1 0 -0 -1 -2 -2 -3 -3 -3 -3 -5 -5 -5 -5 -6 -6 -7
13 13 13 12 13 13 6 5 4 4 4 3 4 4 5 5 4 4 4 3 3 2 2 1 1 1 1 0 -0 -1 -2 -3 -3 -4 -4 -4 -5 -6 -5 -5 -6 -7 -7 -8
11 12 10 10 10 9 5 5 4 3 3 4 4 4 4 4 4 3 2 2 2 1 1 0 0 -0 -1 -1 -2 -2 -3 -4 -5 -5 -5 -5 -6 -6 -6 -7 -7 -7 -8 -8

GFSCGP_850_temp_033.txt.gz
Temp
23 18 19 21 22 23 22 21 20 20 21 22 21 20 20 21 21 17 17 16 15 15 16 16 16 17 17 16 17 17 16 14 14 13 13 13 13 13 13 12 12 12 11 10
20 18 21 23 23 22 22 21 19 20 21 20 20 20 19 20 19 19 17 16 15 15 15 15 15 16 16 15 15 16 16 15 14 13 13 13 13 13 12 12 11 10 10 9
18 21 23 22 20 20 19 19 19 20 20 21 20 19 18 19 20 19 18 17 16 15 14 14 14 14 14 14 14 14 14 13 13 13 12 12 12 11 11 11 10 9 8 8
20 22 22 21 20 19 19 19 19 19 18 16 19 15 17 17 17 17 17 17 16 15 14 13 13 13 13 12 12 12 11 11 11 11 11 11 10 10 10 9 9 8 8 8
20 20 19 19 19 20 19 20 19 19 17 17 17 17 16 18 16 15 16 16 16 15 15 14 13 13 12 12 12 11 11 11 10 10 10 9 9 8 8 7 7 7 7 6
20 21 19 19 21 21 20 19 18 18 16 14 17 17 16 17 16 15 16 16 16 15 14 14 14 13 12 12 11 11 11 10 10 9 9 8 8 7 7 7 6 6 5 5
20 19 20 21 18 20 19 16 13 14 12 14 17 16 15 16 17 16 15 16 15 15 15 14 14 13 12 12 11 11 10 10 9 9 9 8 7 7 6 6 5 5 5 4
17 17 18 20 19 18 18 18 10 15 11 13 17 15 15 15 16 17 16 16 15 15 15 14 14 13 12 12 11 11 10 10 9 8 8 7 6 6 5 5 5 4 4 3
17 17 18 18 19 18 17 15 18 15 13 11 14 16 16 15 15 16 16 16 15 15 15 14 13 13 13 12 11 10 9 9 9 8 7 7 6 5 5 4 4 3 3 2
18 16 19 19 19 19 18 18 14 12 12 14 14 15 14 15 15 15 16 15 15 15 14 14 13 12 11 11 10 10 9 9 8 7 7 6 6 5 4 3 3 3 2 1
15 15 17 19 17 16 16 16 16 15 11 10 9 12 15 15 14 14 15 15 14 14 14 14 13 12 11 10 10 9 8 8 7 6 6 6 4 3 3 3 2 2 1 0
16 15 13 16 17 18 18 17 16 8 12 10 8 10 14 12 13 14 14 15 14 14 13 12 12 11 10 9 8 8 8 7 6 6 5 4 3 2 2 2 2 1 -0 -1
14 14 10 14 15 16 17 18 18 14 8 10 6 9 16 15 15 14 14 15 12 11 11 10 10 9 8 8 7 7 6 5 5 4 4 3 2 2 2 2 1 0 -1 -2
14 15 13 10 15 15 16 16 16 15 7 9 9 12 14 11 11 12 11 11 10 10 10 9 9 8 7 7 6 5 5 5 4 4 3 3 2 2 2 1 0 -0 -1 -2
13 12 13 13 14 15 15 14 13 13 13 11 11 14 13 12 10 11 10 10 9 9 8 7 6 6 6 5 5 5 5 5 4 4 3 3 2 2 2 0 0 -1 -1 -2
14 10 11 12 12 12 12 12 12 14 15 14 13 13 11 11 11 9 8 8 6 6 5 5 5 5 5 5 5 5 5 4 4 3 3 3 2 2 1 0 -1 -1 -2 -3
11 8 6 7 8 7 7 12 14 14 13 13 12 12 10 9 7 7 6 6 5 4 5 4 5 5 5 5 5 5 5 4 3 3 2 2 1 0 -1 -1 -3 -2 -2 -3
8 7 4 4 5 6 12 13 13 12 12 11 10 9 8 8 6 7 6 5 5 5 5 5 5 5 5 5 4 4 4 3 3 3 2 2 0 -1 -2 -3 -2 -2 -3 -4
11 5 3 5 5 8 11 14 12 11 10 9 8 7 7 7 8 4 5 5 5 5 5 5 5 5 4 4 3 3 3 2 2 2 1 0 0 -2 -3 -3 -3 -4 -5 -4
9 6 4 1 2 4 9 12 13 13 7 8 7 6 5 7 3 4 5 5 5 5 5 5 4 4 4 3 2 2 2 2 1 0 -0 -1 -1 -1 -3 -3 -3 -4 -4 -4
3 5 3 1 2 5 9 13 13 7 7 6 6 5 5 4 4 4 5 5 5 5 5 4 4 3 3 2 2 2 1 1 0 -0 -1 -1 -2 -2 -3 -4 -4 -4 -4 -5
4 3 5 6 5 4 12 11 8 7 7 6 6 6 5 4 4 5 5 5 5 4 3 3 3 2 2 2 1 1 0 -0 -1 -1 -1 -2 -3 -3 -4 -4 -5 -5 -5 -5
7 7 5 6 5 10 11 10 9 9 7 6 5 4 4 4 4 4 5 4 3 3 2 2 2 1 1 1 0 0 -1 -1 -1 -2 -2 -3 -4 -4 -5 -5 -5 -5 -5 -6
11 11 6 8 10 10 8 7 7 7 6 6 5 4 4 4 4 4 4 3 2 2 1 1 1 0 -0 -0 -1 -1 -1 -2 -2 -3 -3 -4 -5 -5 -6 -5 -5 -6 -6 -7
9 11 10 8 8 7 6 6 6 5 5 4 4 4 4 4 4 3 3 2 1 1 1 -0 -1 -1 -1 -1 -2 -2 -3 -3 -3 -3 -4 -6 -6 -6 -6 -6 -6 -7 -7 -8
11 9 5 4 9 9 6 5 5 5 4 4 4 4 4 4 3 2 2 1 1 0 -0 -1 -1 -2 -3 -3 -4 -4 -4 -4 -4 -5 -5 -7 -7 -7 -7 -7 -8 -8 -8 -9

GFSCGP_850_temp_036.txt.gz
Temp
21 17 18 19 18 19 21 19 18 19 21 21 18 18 18 15 15 13 14 14 13 14 14 15 15 15 15 15 15 14 13 12 12 11 11 12 12 12 12 11 11 10 10 10
17 18 20 20 19 19 19 18 18 19 20 19 17 18 16 15 14 14 14 14 14 13 14 14 15 14 15 13 13 13 12 12 12 13 12 12 12 12 11 10 10 9 9 9
17 19 22 19 18 18 17 17 18 19 19 19 17 17 16 15 15 14 14 15 15 15 14 14 14 13 13 13 13 13 12 12 12 12 11 11 11 11 11 10 10 9 9 8
19 21 19 18 18 18 17 19 19 18 16 16 17 14 16 15 14 14 13 14 14 14 14 14 13 13 13 13 13 13 12 11 11 11 12 12 11 10 9 9 9 8 8 7
19 18 17 18 19 19 18 19 19 18 16 16 15 14 14 14 13 13 12 13 13 14 14 14 13 13 13 13 12 12 12 11 11 11 10 10 9 9 8 7 7 7 6 6
18 19 18 18 19 19 19 18 15 15 14 13 16 15 13 13 14 13 13 13 14 14 14 13 13 13 12 12 12 11 11 11 11 10 10 10 9 9 8 7 7 6 5 5
18 18 18 19 17 17 17 14 12 13 11 12 16 14 14 14 15 14 12 14 14 14 14 14 13 13 12 12 11 11 11 10 10 10 9 8 8 7 6 6 6 5 5 4
15 15 17 18 18 17 17 15 10 14 11 12 14 13 13 13 14 15 15 15 14 14 14 14 13 13 12 12 12 11 11 10 9 9 8 8 7 6 6 5 5 4 3 2
15 16 18 18 18 17 17 14 15 12 11 10 13 14 14 14 15 15 14 14 13 13 14 14 13 12 12 11 11 10 10 9 9 8 8 7 6 6 5 5 4 3 2 2
17 15 18 18 18 17 17 16 14 10 12 13 12 13 12 13 13 14 13 13 13 14 13 13 12 11 11 10 10 9 9 8 8 8 7 6 5 5 4 4 3 2 2 1
15 13 16 17 16 15 15 14 14 12 10 9 8 11 13 12 12 12 13 14 14 13 12 11 10 10 9 9 9 8 8 8 7 6 6 6 5 4 4 4 3 2 2 1
14 12 12 16 17 17 17 16 13 8 13 8 7 9 13 12 14 14 14 12 12 11 10 9 9 9 9 8 7 7 6 6 6 5 5 5 5 4 3 3 3 2 1 1
14 12 9 12 13 15 16 16 14 10 7 10 6 9 12 13 9 10 10 10 10 9 9 9 9 9 9 8 7 6 5 5 5 5 4 4 3 3 3 2 2 1 1 0
13 12 11 10 13 13 15 15 13 11 6 8 8 11 12 10 8 9 8 9 9 8 8 7 7 7 6 6 6 5 5 5 5 4 4 3 3 3 2 1 1 1 -1 -1
12 11 12 12 12 13 14 13 12 13 11 9 11 10 9 9 8 9 9 8 8 7 7 6 6 5 5 5 5 5 5 4 4 4 4 3 2 2 2 0 -0 -1 -3 -2
11 9 11 12 10 9 12 11 11 12 14 12 9 9 9 9 9 8 7 7 6 5 5 5 5 5 5 5 4 4 4 4 3 3 3 2 2 1 1 -0 -1 -1 -3 -3
10 6 6 7 6 7 7 11 13 13 11 12 10 8 8 7 6 6 5 5 5 5 5 5 5 5 4 4 4 3 3 3 2 2 1 1 1 0 -1 -1 -2 -2 -3 -4
7 5 2 4 4 6 11 11 12 9 9 8 8 7 7 7 6 5 5 5 5 5 5 5 4 4 4 4 3 2 2 2 1 1 1 0 -0 -1 -1 -1 -1 -3 -4 -4
9 3 3 3 4 8 11 12 11 11 9 8 7 6 6 7 5 4 5 5 5 5 5 4 4 3 3 2 2 2 2 1 1 1 0 -0 -1 -1 -2 -2 -3 -2 -4 -4
7 4 3 3 3 4 8 12 13 12 7 8 7 6 6 6 2 3 5 5 5 5 4 3 3 2 2 2 2 1 1 1 1 -0 -1 -1 -2 -2 -3 -4 -4 -4 -5 -5
4 1 3 -1 0 4 7 11 12 7 7 7 7 7 6 4 6 5 5 5 4 4 3 3 3 2 2 1 1 0 -0 -1 -1 -1 -1 -2 -2 -3 -4 -4 -5 -5 -6 -6
5 3 2 1 0 5 9 10 9 8 8 8 6 6 5 5 4 4 4 4 4 3 3 2 2 1 1 0 -0 -1 -1 -2 -2 -2 -2 -2 -3 -4 -4 -5 -5 -5 -6 -6
8 6 5 6 5 9 10 11 11 10 8 6 6 6 5 4 4 4 4 4 3 3 2 2 1 1 0 -1 -1 -2 -2 -3 -3 -3 -3 -3 -3 -5 -6 -5 -6 -6 -6 -7
9 9 5 6 9 9 10 9 9 8 7 6 5 5 4 4 4 4 3 3 3 2 1 1 0 -0 -1 -2 -2 -3 -4 -4 -4 -4 -4 -4 -4 -6 -6 -6 -6 -7 -7 -8
8 10 8 6 5 6 6 7 7 6 6 6 5 4 4 4 3 3 3 2 2 1 0 -0 -1 -1 -2 -2 -3 -3 -5 -5 -5 -5 -5 -6 -7 -7 -6 -7 -7 -8 -8 -8
9 8 5 5 9 8 7 7 6 6 5 4 4 4 4 4 3 3 2 1 1 0 -1 -1 -1 -2 -2 -3 -3 -4 -6 -6 -6 -6 -6 -7 -7 -7 -8 -8 -8 -8 -9 -9

GFSCGP_850_temp_039.txt.gz
Temp
20 16 18 18 18 19 18 18 17 19 19 18 18 15 12 12 13 12 12 12 13 14 13 13 14 15 15 15 15 16 14 12 12 12 12 11 12 11 11 11 11 11 10 10
16 18 19 18 18 18 17 17 18 19 17 17 15 13 12 13 12 11 11 11 12 12 13 13 13 14 14 13 13 13 12 12 12 12 11 11 11 11 11 10 10 10 10 9
17 19 19 18 17 17 16 17 17 18 17 16 15 14 13 12 12 12 12 12 13 14 14 13 13 12 12 12 12 12 12 12 12 12 11 11 11 11 11 10 10 9 9 8
18 17 18 17 17 17 17 18 18 18 16 15 15 13 14 14 12 11 11 12 12 12 13 13 13 13 13 12 12 12 12 12 12 12 12 12 11 11 10 9 8 8 7 6
18 17 17 17 18 18 18 18 18 17 14 15 15 13 12 12 12 11 11 12 12 13 13 14 13 13 12 13 13 12 12 12 11 11 11 10 10 9 9 8 7 6 6 5
17 18 18 18 18 18 18 16 14 12 13 13 15 13 12 11 12 11 11 12 13 13 13 13 13 13 13 12 12 12 11 11 11 11 10 10 9 9 8 7 6 6 5 5
16 17 16 18 18 17 15 13 12 13 11 12 13 13 13 13 12 12 11 12 12 12 13 13 13 13 13 12 11 11 10 10 10 10 10 9 8 7 6 6 5 5 4 3
14 15 16 17 17 17 16 14 9 14 11 12 13 12 12 12 13 14 13 13 13 14 14 13 14 13 11 11 11 10 10 10 10 9 9 8 7 6 6 5 5 4 3 2
14 15 17 17 17 17 16 13 14 10 9 9 11 13 13 13 11 12 14 13 13 13 13 13 12 11 11 11 10 10 10 9 9 8 7 7 6 5 5 5 4 4 3 2
15 15 17 17 17 16 15 15 13 9 11 13 11 12 11 11 11 12 12 13 13 12 12 12 11 11 10 10 9 9 9 8 8 7 6 6 5 5 4 4 3 3 2 2
15 13 15 16 15 15 14 14 11 11 9 9 8 10 11 11 12 12 12 12 12 11 11 11 10 10 10 9 9 8 7 7 6 5 5 5 4 4 3 3 2 2 2 1
13 11 11 15 14 15 15 15 11 7 12 7 6 9 12 10 11 12 11 10 9 10 9 9 9 9 8 8 7 6 5 5 5 5 5 4 4 3 3 2 2 2 1 1
13 11 9 12 12 14 15 14 10 9 6 9 6 8 10 9 9 9 9 8 8 8 8 8 8 8 7 6 6 5 5 5 5 4 4 3 3 3 2 2 2 1 0 -1
13 10 11 10 12 12 14 13 12 10 6 8 8 11 8 8 7 7 7 8 8 7 7 7 7 6 6 5 5 5 4 4 4 3 3 3 3 2 2 1 1 0 -0 -1
11 11 12 10 10 13 14 13 11 11 10 9 10 9 9 7 6 7 7 7 7 6 6 6 5 5 5 4 4 4 4 4 3 3 3 3 2 2 1 1 -0 -1 -1 -2
9 9 11 11 8 8 11 11 10 10 11 10 9 8 8 8 8 7 6 6 6 5 5 5 5 4 4 4 4 4 3 3 3 3 2 1 1 0 -0 -1 -1 -1 -2 -2
8 6 6 7 5 7 7 9 10 12 11 10 8 8 7 6 6 6 6 6 6 5 5 5 4 4 4 4 3 3 2 2 2 1 1 0 -0 -1 -1 -1 -2 -2 -3 -3
6 3 1 4 3 7 10 9 11 10 9 8 7 6 7 7 7 7 6 6 5 5 4 4 4 4 3 3 2 2 1 1 0 0 -0 -1 -1 -1 -2 -2 -3 -4 -4 -4
7 2 2 3 4 7 11 10 9 10 9 7 6 6 7 6 5 4 5 5 5 4 4 4 3 3 3 2 1 1 0 -0 -0 -0 -1 -1 -2 -2 -2 -2 -4 -4 -4 -5
5 3 3 2 3 5 9 11 12 11 7 8 7 6 5 4 2 3 5 5 4 4 4 4 3 2 2 1 1 0 -0 -0 -1 -1 -2 -2 -2 -3 -3 -3 -4 -4 -4 -5
4 -0 2 -3 0 4 7 10 11 8 7 8 8 8 6 3 6 6 5 4 4 4 3 2 2 2 1 0 0 0 -0 -1 -2 -3 -3 -3 -3 -4 -4 -4 -5 -5 -5 -6
4 3 1 1 1 6 9 9 8 8 9 10 8 7 6 6 5 4 4 4 3 3 3 2 2 1 1 0 0 -0 -1 -2 -2 -4 -4 -4 -4 -4 -4 -5 -6 -6 -6 -7
6 6 5 5 5 8 9 9 11 10 11 8 8 7 6 5 4 4 4 3 3 3 2 1 1 1 0 -0 -1 -1 -2 -3 -4 -5 -5 -5 -5 -5 -5 -6 -6 -7 -7 -7
7 8 5 6 9 7 10 10 9 9 9 8 7 6 5 5 4 4 3 3 2 2 1 1 0 0 -0 -1 -2 -3 -3 -4 -5 -6 -6 -6 -6 -7 -7 -7 -7 -7 -8 -8
7 7 6 5 6 6 8 8 9 8 7 7 6 6 5 4 4 4 3 2 2 1 0 0 -0 -1 -1 -2 -2 -3 -4 -5 -6 -7 -7 -6 -7 -7 -7 -7 -8 -8 -9 -9
8 6 5 5 10 9 10 10 8 7 6 6 5 4 4 4 3 3 2 2 1 -0 -1 -1 -1 -1 -2 -2 -3 -3 -4 -5 -7 -7 -7 -7 -7 -8 -8 -9 -9 -9 -9 -9

GFSCGP_850_temp_042.txt.gz
Temp
18 16 17 17 17 18 18 17 18 17 18 16 13 11 10 11 12 11 11 12 12 14 13 14 14 14 14 13 13 12 12 12 11 10 10 10 11 11 11 11 11 10 10 10
16 16 18 16 17 16 16 16 17 17 15 15 12 11 10 11 10 10 10 10 11 11 11 12 12 12 12 12 12 13 13 12 12 11 11 11 11 11 11 11 10 10 9 9
16 18 17 17 16 16 15 16 17 17 16 14 14 13 11 11 11 10 10 11 11 12 12 12 13 13 12 13 13 13 13 12 12 12 12 11 11 11 10 9 9 8 8 7
17 17 17 16 16 16 17 17 17 16 15 15 14 14 13 11 10 10 10 11 11 11 12 12 13 13 13 13 13 13 12 12 12 12 11 11 11 10 9 8 8 7 7 6
17 17 17 16 17 17 17 15 16 15 13 14 14 12 12 11 11 10 10 10 11 12 12 12 12 13 13 13 12 12 12 12 11 11 10 10 9 9 8 7 7 6 6 5
16 17 17 17 16 17 16 14 12 11 11 12 14 13 12 10 11 10 10 11 12 12 12 13 12 13 13 12 11 11 11 10 10 10 9 9 9 8 7 6 6 5 5 4
15 15 15 17 17 16 13 13 11 12 11 11 12 12 12 12 11 11 10 12 12 13 13 13 12 11 11 11 10 10 10 10 10 9 8 8 7 7 6 5 5 5 4 3
13 14 16 16 17 16 15 13 10 14 11 12 12 12 12 11 12 13 13 14 13 13 12 12 11 11 10 10 10 10 9 9 9 8 7 7 6 5 5 4 4 4 3 3
14 15 16 16 16 16 15 12 12 9 9 9 10 12 12 10 10 11 12 13 13 12 12 11 11 11 10 10 10 9 9 8 8 7 6 5 5 4 4 4 4 3 3 2
14 14 16 16 16 15 16 13 13 9 11 13 11 11 10 10 10 10 10 11 12 12 11 11 11 10 10 10 9 9 8 7 7 6 5 5 4 4 3 3 3 3 2 2
13 12 14 15 14 14 14 13 10 9 8 8 7 10 10 10 10 10 11 12 11 11 10 10 10 10 9 8 9 8 7 6 6 5 5 4 4 3 3 2 2 2 1 1
12 10 11 14 14 13 14 14 11 7 11 7 6 8 10 9 11 12 10 9 8 9 9 8 8 8 8 8 8 7 7 5 5 4 4 4 3 3 2 2 2 1 1 0
12 10 9 12 12 13 15 12 9 7 6 8 5 8 9 8 8 8 7 7 7 7 7 7 8 8 7 7 7 6 5 5 4 4 3 3 3 2 2 1 1 0 -0 -0
12 9 10 10 12 11 13 12 10 10 6 8 7 10 9 8 6 6 7 7 7 7 7 7 7 7 6 5 5 5 4 4 4 3 3 3 2 1 1 0 -0 -0 -1 -1
10 11 11 9 9 11 13 11 10 10 10 10 10 8 9 7 5 6 7 6 7 7 7 7 6 5 5 5 5 4 3 3 3 2 2 1 1 0 -0 -1 -1 -1 -2 -2
8 9 10 10 7 7 10 10 9 9 9 8 9 8 8 8 8 6 6 6 6 7 6 5 5 4 4 4 4 3 3 2 2 1 1 0 -0 -1 -1 -2 -2 -2 -3 -4
7 6 6 7 5 6 6 8 8 9 9 8 8 8 6 6 6 6 6 6 6 6 5 5 4 4 4 3 3 2 2 1 1 0 -0 -0 -1 -2 -2 -2 -2 -2 -4 -4
5 4 1 3 3 6 11 9 8 10 10 8 8 7 7 7 7 7 7 7 6 5 5 4 4 4 3 2 2 2 1 1 0 -0 -1 -2 -2 -2 -3 -3 -3 -3 -5 -5
6 2 2 3 4 7 12 8 8 9 9 7 7 5 6 7 6 6 6 6 6 5 4 4 3 3 2 2 1 1 1 0 -0 -1 -1 -2 -3 -3 -3 -4 -4 -4 -4 -4
5 3 3 -0 3 5 9 10 11 11 7 8 8 5 5 5 3 4 8 6 5 4 4 3 3 2 2 1 1 0 0 -0 -0 -0 -1 -2 -3 -4 -4 -4 -4 -5 -5 -5
3 0 2 -3 0 4 6 10 11 8 8 8 9 8 5 4 6 7 7 5 4 4 3 3 2 2 1 1 0 -0 -0 -0 -0 -1 -2 -3 -4 -5 -5 -5 -6 -6 -6 -6
4 4 3 0 -1 6 8 9 8 8 10 12 10 9 8 6 6 6 4 4 3 3 3 2 1 1 0 -0 -0 -0 -0 -1 -1 -2 -3 -4 -5 -5 -6 -6 -6 -6 -6 -7
6 6 4 5 5 8 9 8 11 10 10 10 10 9 8 7 6 5 4 3 3 2 2 1 1 1 -0 -1 -1 -1 -1 -1 -2 -3 -4 -5 -6 -6 -6 -7 -7 -7 -7 -7
6 7 4 6 9 7 10 10 9 9 9 10 10 9 7 6 5 4 3 3 2 2 1 1 0 -0 -1 -1 -1 -2 -2 -2 -3 -4 -6 -7 -7 -7 -7 -7 -7 -7 -8 -8
6 6 5 5 6 7 10 11 11 9 9 9 7 7 6 5 3 2 3 2 2 1 1 0 -0 -1 -1 -2 -2 -2 -3 -3 -4 -5 -7 -7 -7 -7 -7 -7 -8 -8 -9 -9
7 6 4 5 10 9 11 11 11 8 7 7 6 5 4 2 3 3 3 2 1 1 0 -1 -1 -2 -2 -2 -2 -3 -4 -5 -6 -6 -7 -7 -7 -7 -8 -8 -9 -10 -10 -10

GFSCGP_850_temp_045.txt.gz
Temp
18 19 19 19 18 18 18 18 19 18 17 15 14 14 12 11 11 11 11 12 13 13 14 14 15 15 14 13 12 12 13 11 12 10 11 10 10 11 11 11 10 10 10 9
18 18 17 16 17 17 17 17 17 17 15 16 14 13 12 11 10 10 10 10 12 12 12 13 13 12 12 12 12 12 12 11 11 11 10 10 11 11 10 10 9 9 8 8
17 18 17 17 16 18 16 17 17 18 16 15 16 16 14 11 10 9 9 10 11 11 11 12 12 13 13 13 13 13 12 12 12 11 11 11 11 10 10 9 9 8 7 7
17 16 17 16 17 17 17 16 16 17 17 18 15 18 15 12 11 11 10 10 10 11 11 12 13 13 13 13 13 13 12 12 11 11 11 10 10 10 9 8 8 7 6 6
17 17 17 17 16 16 16 15 16 15 16 16 16 18 16 12 12 11 10 10 11 12 12 13 13 12 12 12 12 12 12 11 11 11 10 10 9 8 7 7 6 6 5 5
15 16 16 17 15 15 14 16 15 14 15 16 15 16 17 14 13 12 11 10 11 12 12 12 12 13 12 12 11 11 11 11 10 10 9 9 8 7 6 6 5 5 5 4
16 16 16 16 17 16 16 16 15 16 15 16 13 14 16 14 13 14 12 11 12 12 12 12 12 11 11 11 10 10 10 9 9 9 8 8 7 6 6 5 5 4 4 4
15 16 16 15 16 17 15 16 15 15 15 15 13 15 16 13 12 12 12 12 13 12 12 11 11 11 11 10 10 10 9 9 9 8 7 6 6 5 5 4 4 4 3 3
15 15 15 15 15 16 15 15 14 12 10 13 14 14 14 12 11 12 12 11 11 12 11 11 10 10 10 9 9 9 9 8 7 7 6 5 5 4 4 3 3 3 2 2
14 15 15 15 15 14 16 14 14 13 13 14 14 13 16 13 13 12 12 12 11 11 11 11 10 9 9 9 9 8 8 7 6 6 5 5 4 3 3 3 3 2 2 1
13 14 14 15 15 15 15 14 11 12 12 13 13 15 12 13 13 13 13 11 10 10 10 9 9 8 8 8 7 7 7 6 6 5 5 4 4 3 3 3 2 2 1 1
13 12 13 15 14 14 14 14 13 13 13 9 11 14 11 11 12 11 11 10 10 9 8 8 7 7 7 7 7 7 6 5 5 5 4 4 3 3 3 2 1 1 0 -0
12 12 13 14 15 14 14 13 11 10 9 11 12 14 10 9 9 9 9 7 8 8 7 7 7 7 7 7 6 6 5 5 4 4 4 4 3 2 1 0 -0 -0 -1 -1
12 11 13 14 14 12 13 12 11 12 11 11 12 13 12 10 9 7 7 6 7 7 7 7 7 7 6 6 5 5 5 4 4 4 3 2 1 0 -0 -1 -1 -1 -1 -1
12 13 11 10 9 11 12 12 11 12 12 13 13 12 13 12 10 8 6 6 6 6 6 7 6 6 5 5 5 4 4 4 3 2 1 1 0 -0 -1 -1 -2 -2 -2 -2
9 10 10 10 8 8 11 11 11 10 10 11 10 11 11 8 8 6 6 5 6 6 6 6 5 5 5 4 4 3 3 2 2 1 1 -0 -1 -1 -2 -2 -2 -3 -3 -3
9 8 9 10 7 8 10 11 11 10 10 12 12 13 8 7 7 7 6 6 7 7 6 5 5 5 4 4 3 3 2 1 1 0 0 -0 -1 -2 -2 -3 -3 -3 -3 -4
7 6 5 8 5 10 13 10 10 11 10 10 10 9 9 8 7 6 7 7 7 7 6 5 4 4 4 3 3 2 1 1 0 0 0 -0 -1 -2 -3 -4 -4 -4 -4 -4
6 5 5 8 8 10 12 9 10 10 12 10 11 8 6 6 6 6 7 7 7 7 5 4 4 3 3 2 2 1 1 0 0 0 -0 -1 -1 -2 -4 -4 -4 -4 -4 -5
6 5 8 4 9 10 11 10 10 10 11 9 9 6 5 6 8 10 8 7 6 5 4 4 3 3 2 2 1 1 0 -0 -0 -1 -1 -1 -2 -3 -4 -5 -5 -5 -6 -6
6 4 7 2 8 8 9 9 10 11 12 8 9 8 5 7 8 8 8 6 5 4 4 3 3 2 2 1 1 0 -0 -1 -1 -1 -1 -2 -3 -3 -4 -5 -6 -6 -6 -6
8 6 5 2 6 9 8 9 10 11 10 11 10 11 10 9 7 7 6 4 4 4 3 2 2 2 1 0 -0 -1 -1 -1 -2 -2 -2 -2 -3 -3 -4 -6 -6 -7 -7 -7
8 8 8 8 9 9 9 9 11 10 10 10 10 10 8 6 6 5 4 4 3 2 2 2 2 1 0 -0 -1 -1 -2 -2 -2 -2 -2 -3 -4 -5 -6 -6 -7 -7 -7 -7
7 6 7 7 9 7 9 11 10 10 9 9 9 9 8 6 5 4 3 2 1 2 2 1 1 0 -0 -1 -1 -2 -2 -2 -2 -2 -4 -5 -5 -6 -6 -7 -7 -7 -8 -8
7 6 7 7 7 8 10 10 11 10 9 8 8 7 6 5 4 3 1 0 1 2 1 1 0 -0 -1 -1 -1 -2 -2 -2 -3 -4 -6 -6 -6 -7 -7 -7 -8 -8 -8 -9
6 7 7 7 9 9 9 9 9 9 7 6 6 5 4 4 2 1 0 1 1 1 1 -0 -1 -1 -1 -2 -2 -2 -2 -4 -7 -7 -7 -7 -7 -7 -8 -8 -8 -8 -9 -9

GFSCGP_850_temp_048.txt.gz
Temp
21 22 22 23 23 23 23 23 23 23 22 22 22 20 19 17 18 17 17 17 16 15 13 13 15 15 15 14 13 13 12 12 12 11 11 10 10 10 11 11 10 10 9 9
22 22 21 21 21 22 22 23 22 21 20 22 21 20 18 17 17 17 17 16 15 14 13 12 12 11 11 11 11 12 11 12 11 11 10 10 10 10 9 10 10 9 9 8
23 21 19 21 21 22 22 22 21 22 20 21 21 20 18 16 15 15 15 15 15 15 13 12 12 11 11 11 11 11 11 11 11 11 11 11 11 10 9 9 8 8 8 7
21 20 21 22 21 21 22 20 21 21 22 22 20 22 21 18 17 16 14 15 14 14 13 13 12 12 12 11 11 11 11 11 12 11 10 10 10 10 8 7 7 6 6 6
20 21 21 21 20 20 20 20 21 21 22 22 21 22 22 18 17 16 15 15 14 13 13 13 13 13 12 12 10 10 10 9 10 10 9 9 9 8 7 7 7 5 5 5
20 19 21 20 19 20 19 20 21 21 21 20 22 21 23 21 20 17 16 15 14 14 13 13 13 12 11 11 11 11 10 10 10 10 9 9 8 7 7 6 6 5 5 4
20 20 20 19 20 19 20 21 20 19 19 20 18 19 22 19 18 18 16 15 14 14 13 13 12 12 11 10 10 10 9 9 10 9 8 8 7 6 5 5 5 5 5 4
20 19 20 19 20 21 20 21 19 18 18 19 17 19 21 18 17 17 16 15 15 14 13 13 12 12 11 10 10 9 9 9 9 8 7 6 5 5 5 5 4 4 4 3
20 19 19 18 19 20 19 19 19 17 15 17 20 20 19 17 17 16 16 16 15 14 13 13 12 11 11 10 9 8 8 7 8 7 7 6 5 4 4 4 3 3 2 2
19 18 19 18 19 18 20 19 18 18 16 17 20 19 21 18 17 17 17 16 15 14 13 12 11 10 9 8 8 8 7 7 7 6 6 5 4 4 3 3 2 2 1 1
20 20 18 18 19 20 18 18 18 19 17 18 18 21 19 19 19 18 17 16 15 13 12 11 10 8 8 7 7 7 6 6 6 5 4 4 4 3 3 2 1 1 1 1
17 19 18 19 18 18 19 19 19 18 17 16 16 19 17 17 17 17 17 16 14 12 10 9 8 7 7 7 6 7 6 6 5 4 3 3 3 2 2 1 1 0 -0 -1
17 18 17 17 18 17 18 18 18 16 16 16 15 19 17 15 15 16 16 13 11 10 9 8 8 7 7 6 6 6 5 5 4 4 3 3 2 2 1 1 0 -0 -1 -1
16 17 19 18 19 19 17 17 17 18 16 18 18 20 17 17 16 15 15 13 11 9 9 8 8 7 6 5 5 4 4 4 4 3 3 2 2 1 0 -0 -1 -1 -2 -2
17 17 17 15 15 16 17 17 17 17 18 16 19 19 20 19 17 16 13 12 10 10 9 8 7 6 6 5 5 4 4 4 4 3 2 1 1 0 -0 -1 -2 -2 -3 -3
15 16 15 14 13 14 15 16 17 17 18 18 18 18 19 17 15 14 12 11 10 9 8 8 7 6 5 4 4 5 4 3 3 2 1 0 -0 -1 -1 -2 -2 -2 -2 -3
15 14 14 15 12 13 12 15 17 17 17 17 17 18 16 15 14 13 12 10 10 9 8 7 6 5 4 4 4 3 3 3 2 1 -0 -1 -1 -1 -1 -2 -2 -3 -3 -3
13 13 11 12 9 12 18 15 15 17 18 18 17 16 16 15 13 13 12 10 9 8 7 6 4 4 3 3 2 3 3 2 1 0 0 -1 -1 -1 -2 -2 -3 -3 -4 -4
13 12 9 11 13 16 18 15 14 14 17 17 16 16 13 11 10 10 10 10 9 8 7 5 4 4 3 2 3 2 1 0 -1 -1 -1 -2 -2 -3 -3 -3 -3 -4 -5 -5
12 12 13 9 12 13 16 14 12 14 15 14 15 14 12 10 13 16 9 8 7 6 5 4 3 3 2 3 2 1 -0 -1 -1 -2 -1 -2 -3 -4 -4 -4 -4 -4 -5 -5
9 8 10 10 11 14 15 13 12 14 15 13 13 13 11 13 13 10 9 6 6 5 4 3 3 2 2 2 1 0 -1 -2 -2 -1 -2 -3 -4 -5 -5 -4 -6 -5 -5 -6
12 11 9 8 9 11 12 12 13 14 12 11 11 12 11 9 7 7 6 5 4 3 3 3 2 2 2 1 1 -1 -1 -2 -2 -3 -3 -4 -5 -5 -5 -6 -5 -6 -6 -7
13 14 14 13 15 13 12 13 11 10 11 11 10 10 9 7 6 5 4 3 2 3 1 0 0 1 1 1 -0 -2 -2 -2 -2 -3 -4 -5 -5 -5 -5 -6 -6 -7 -7 -7
12 10 12 11 15 13 12 12 11 10 10 9 8 8 8 7 5 4 2 2 2 0 -1 -1 1 1 -0 -0 -1 -2 -2 -2 -3 -5 -6 -4 -5 -6 -6 -7 -7 -7 -7 -7
13 11 12 12 14 13 11 10 9 8 8 7 7 6 6 6 4 2 1 0 -1 -1 -1 0 1 0 -0 -1 -2 -2 -2 -2 -5 -5 -6 -7 -7 -7 -7 -7 -7 -7 -7 -8
11 13 11 12 10 11 9 6 8 7 6 5 5 4 3 2 1 1 -1 -1 -0 0 0 0 0 -1 -2 -2 -2 -2 -3 -5 -5 -6 -6 -7 -7 -7 -7 -7 -7 -7 -8 -8

GFSCGP_850_temp_051.txt.gz
Temp
22 22 22 23 24 24 25 24 24 24 25 24 24 23 23 23 22 21 21 20 20 19 17 16 15 15 16 15 14 12 12 12 12 11 10 10 11 10 9 9 8 8 8 7
23 21 23 24 24 24 24 24 23 24 24 24 24 23 22 21 21 21 21 20 20 18 16 15 15 14 14 13 12 11 11 11 10 11 11 11 10 10 11 9 8 8 8 9
21 22 23 23 23 24 24 23 23 23 23 24 24 23 22 22 22 21 21 21 20 18 17 16 15 13 12 12 11 12 12 12 12 12 11 11 11 10 10 9 9 8 9 8
19 20 23 23 24 24 22 24 24 24 23 22 24 22 22 22 21 20 19 20 19 18 17 16 15 14 13 13 13 13 13 12 12 12 12 11 12 12 11 10 9 8 7 6
22 23 23 23 23 23 22 23 24 24 24 22 24 23 22 22 21 20 19 19 18 17 16 16 15 14 14 13 13 13 12 12 11 11 11 11 11 10 9 9 7 7 6 6
19 22 24 23 22 23 23 23 23 23 23 22 24 24 23 23 23 22 20 19 18 17 16 16 15 14 13 12 11 11 11 11 10 10 10 10 9 9 9 8 7 7 7 6
22 23 22 22 22 23 23 23 21 20 21 21 23 22 24 23 22 23 20 18 17 17 16 16 15 14 13 12 11 11 11 11 10 9 9 8 8 8 7 7 7 6 6 6
21 20 22 23 23 23 23 23 21 19 20 22 22 21 23 22 21 21 20 18 17 16 16 16 15 15 13 12 11 11 11 10 9 8 8 7 7 7 6 6 6 5 5 5
22 21 22 22 22 23 22 21 22 21 20 19 22 23 21 21 21 20 19 18 17 17 16 16 15 14 13 12 12 11 11 10 8 7 7 6 6 6 5 5 4 4 4 4
23 21 22 21 21 21 21 22 20 21 17 18 23 23 23 20 20 20 20 19 18 17 16 16 15 14 13 12 11 10 10 9 6 6 7 6 6 5 5 4 4 3 3 2
23 22 20 21 21 22 21 21 21 21 21 19 19 22 23 22 21 20 20 19 18 17 16 16 15 14 12 11 10 8 8 7 6 7 6 5 5 5 4 4 3 3 2 2
22 22 20 21 22 22 22 22 22 19 19 19 19 20 22 22 21 21 20 19 18 17 16 15 14 12 11 10 9 8 7 6 6 6 5 5 4 4 4 3 3 2 1 1
21 20 19 20 20 20 20 21 21 21 19 19 17 20 21 20 20 20 20 19 18 17 15 14 12 11 10 9 8 7 5 6 6 5 5 5 4 4 3 3 2 1 1 0
17 21 20 19 21 22 20 21 21 20 18 18 20 22 21 20 20 20 19 19 17 15 14 13 11 11 10 8 7 6 6 5 5 5 5 4 4 3 2 2 1 1 0 -1
19 19 20 21 20 20 20 21 21 20 20 19 20 22 23 22 21 20 19 18 16 14 13 12 11 10 9 7 6 6 5 5 4 4 4 4 3 2 2 1 1 -0 -1 -1
19 18 18 17 19 18 18 20 20 20 20 21 21 21 23 22 20 19 18 17 16 14 13 12 11 10 9 8 6 5 5 4 3 3 3 2 2 1 1 1 0 -0 -1 -1
18 18 16 16 16 17 14 17 19 20 21 20 19 21 21 20 19 18 18 16 15 14 13 12 11 9 8 7 6 5 4 3 3 2 2 1 1 0 0 0 -0 -0 -1 -1
17 17 15 14 10 12 20 19 19 19 20 21 21 21 20 19 18 17 16 16 14 13 12 11 10 8 7 6 5 4 3 3 2 2 1 1 0 -0 -1 -1 -1 -1 -1 -2
17 16 12 11 15 18 19 19 18 18 18 20 19 20 19 16 15 16 15 14 14 12 11 10 8 7 6 5 4 3 3 2 2 1 0 -0 -1 -1 -1 -1 -1 -2 -2 -2
15 16 15 12 12 12 18 17 16 17 17 18 18 18 16 15 15 17 14 13 12 11 10 8 7 6 4 3 3 2 2 2 1 0 -1 -1 -1 -2 -2 -2 -3 -3 -3 -3
11 11 12 13 11 15 19 16 15 15 16 16 16 17 16 16 14 12 12 11 10 9 8 7 4 3 3 2 1 1 1 1 1 -1 -1 -2 -2 -2 -3 -3 -4 -4 -3 -4
13 12 9 12 8 11 16 15 15 15 15 14 15 15 14 13 9 10 10 9 8 7 5 3 3 3 1 0 1 1 1 1 -1 -2 -2 -2 -2 -3 -3 -3 -3 -4 -4 -5
15 17 16 15 16 16 16 16 14 13 14 13 13 13 12 11 9 9 8 7 6 3 3 3 2 0 0 1 -0 -0 -1 -1 -2 -2 -3 -3 -4 -4 -4 -3 -4 -5 -6 -6
17 15 15 14 17 17 15 14 14 13 12 12 11 10 11 11 10 8 7 4 3 2 1 -1 -1 -0 1 -0 -1 -1 -2 -2 -3 -3 -3 -3 -5 -6 -6 -6 -5 -5 -6 -6
16 15 15 15 16 16 14 11 10 10 9 9 8 9 9 10 8 6 4 2 0 -1 -1 -1 0 0 -0 -1 -2 -2 -2 -3 -3 -3 -3 -4 -4 -6 -7 -6 -6 -6 -6 -6
15 16 13 13 12 13 11 8 8 9 9 8 8 7 7 6 4 2 -0 -1 -1 -1 -2 -1 -0 -0 -1 -1 -1 -2 -2 -3 -3 -4 -4 -4 -5 -6 -7 -7 -7 -7 -7 -7

GFSCGP_850_temp_054.txt.gz
Temp
22 21 20 20 22 23 23 23 23 23 25 24 24 23 23 24 23 22 22 21 20 20 19 17 17 17 17 17 15 14 14 13 12 11 11 11 11 10 11 11 11 11 9 9
20 19 22 22 23 23 24 23 24 25 25 24 24 23 24 24 24 23 22 22 21 20 18 16 16 16 16 16 15 15 13 12 12 11 11 10 10 11 11 10 10 9 9 8
18 15 19 22 23 23 23 21 21 23 24 24 24 23 23 23 23 23 22 21 20 19 17 16 15 15 14 14 14 13 12 12 12 12 12 11 11 10 10 10 9 8 8 7
18 20 19 21 23 24 20 22 21 23 22 21 22 19 19 23 22 23 22 21 21 20 18 17 15 14 14 13 12 12 12 12 13 12 12 11 11 11 11 10 9 8 8 7
20 19 20 22 23 23 19 21 22 24 23 21 19 18 19 21 22 22 22 21 21 20 18 17 15 15 13 13 13 13 13 13 12 12 12 11 12 11 10 9 9 8 8 7
22 20 21 22 23 24 23 21 23 23 23 18 19 19 20 20 22 22 21 20 20 19 18 16 16 15 14 13 13 13 13 12 11 11 11 11 11 10 9 9 8 8 7 7
21 21 24 23 23 23 23 22 20 14 15 20 24 21 21 19 19 21 21 20 19 18 17 16 15 14 13 13 12 12 12 11 10 10 10 10 9 9 9 8 7 7 7 6
21 20 23 23 23 17 19 22 16 17 15 20 20 21 22 23 23 23 21 20 19 18 17 17 15 14 13 12 11 12 12 11 10 9 9 8 8 8 7 7 6 6 5 5
19 20 18 23 24 20 22 21 22 21 21 19 21 23 22 22 22 22 21 20 18 18 17 17 16 15 13 12 12 12 12 11 10 9 8 7 7 8 7 6 5 5 4 4
17 15 18 22 22 23 22 23 20 21 17 18 21 22 21 20 21 21 21 20 19 18 17 17 16 15 14 13 12 12 12 11 9 8 7 7 7 6 5 5 4 4 4 3
20 15 21 22 21 22 21 21 21 22 21 18 17 20 22 22 22 21 21 20 19 18 17 17 16 15 14 13 12 11 11 10 8 7 7 6 6 5 5 4 4 4 3 2
22 22 20 21 23 23 22 22 22 18 19 20 18 19 23 23 22 21 21 20 19 18 17 17 16 15 14 12 11 10 9 8 7 6 6 6 6 5 4 4 4 3 2 2
22 20 18 20 22 22 21 22 22 22 20 18 15 19 22 22 22 21 21 20 19 18 18 17 16 14 13 12 10 9 8 7 7 6 6 5 5 5 4 4 3 2 2 1
19 21 20 18 20 21 21 21 22 21 16 17 18 20 22 21 21 21 20 20 20 19 18 17 15 13 12 11 10 8 7 6 6 6 5 5 5 4 3 3 2 1 1 0
20 19 20 21 22 21 20 21 22 21 21 18 19 20 22 23 21 21 20 20 19 18 17 16 14 13 11 10 8 7 6 5 5 5 5 4 4 3 2 2 1 1 0 -0
19 18 18 18 20 20 19 20 20 21 21 21 21 21 23 22 21 21 20 20 19 17 16 15 14 12 11 9 8 7 6 6 5 4 4 3 3 2 1 1 1 0 0 -0
19 17 16 15 17 16 13 17 19 20 21 21 19 21 22 21 20 19 19 19 18 17 16 15 13 12 10 9 8 7 6 5 4 3 3 2 2 1 1 0 -0 -0 -0 -0
18 17 15 13 11 12 18 21 20 19 20 21 21 21 21 20 19 18 18 18 17 16 15 14 12 11 10 8 7 6 5 4 3 2 2 1 1 0 -0 -1 -1 -1 -1 -1
19 16 12 10 14 17 18 20 19 19 18 20 19 19 19 16 16 17 17 16 16 15 14 12 11 10 8 7 5 4 4 3 3 2 1 1 0 -0 -1 -1 -1 -2 -2 -2
17 17 13 11 10 11 18 18 18 18 16 18 18 18 17 16 14 15 15 14 14 13 12 11 9 8 6 5 4 3 2 2 2 1 2 1 -0 -2 -2 -2 -2 -3 -3 -3
11 10 10 12 10 13 19 18 16 15 15 16 16 17 17 16 13 13 13 12 12 11 10 9 7 6 4 3 2 1 0 1 2 1 1 -0 -1 -2 -2 -2 -2 -3 -3 -3
11 11 9 12 9 10 18 16 15 15 16 15 15 15 14 11 10 11 11 11 10 8 7 5 4 4 2 1 0 -0 0 0 1 0 -0 -1 -2 -2 -2 -2 -3 -3 -3 -4
15 16 14 13 13 16 17 16 14 14 14 14 13 13 13 12 11 10 10 8 6 5 4 4 2 1 -0 -1 -1 0 1 -0 -1 -1 -2 -2 -2 -3 -3 -3 -3 -4 -4 -5
18 17 15 15 18 17 16 15 14 13 12 12 11 11 11 11 11 9 7 5 4 3 2 1 1 0 -1 -1 0 -0 -1 -1 -2 -2 -2 -2 -3 -3 -4 -4 -5 -6 -6 -6
17 16 16 16 17 17 13 11 10 10 10 10 9 9 10 10 9 7 5 4 2 1 1 0 -1 -1 0 0 -0 -1 -1 -2 -2 -2 -3 -3 -3 -4 -4 -6 -7 -7 -7 -7
17 16 14 13 12 13 10 9 9 10 9 9 8 6 6 6 5 3 1 1 1 0 0 -0 -0 -0 0 -1 -0 -1 -1 -1 -2 -2 -3 -3 -4 -4 -5 -6 -7 -7 -7 -7

GFSCGP_850_temp_057.txt.gz
Temp
20 17 18 19 19 19 20 19 19 20 20 19 18 19 19 20 19 19 19 20 20 19 19 18 18 17 16 15 14 14 14 14 13 12 13 12 12 11 11 10 10 11 11 10
17 17 20 20 20 20 19 20 18 21 21 21 18 19 19 17 17 20 20 18 20 18 18 17 17 17 16 16 15 14 14 13 13 12 12 11 11 11 10 10 10 10 9 9
17 18 18 18 18 18 20 19 20 20 19 22 21 19 18 19 17 18 20 19 19 18 17 17 16 16 16 16 15 15 14 13 12 12 11 11 10 10 9 10 10 10 9 9
17 19 19 18 18 19 18 21 20 20 18 17 19 15 18 18 20 16 18 18 19 18 17 16 16 15 15 14 13 13 13 13 12 12 11 11 11 10 10 10 10 9 8 9
18 18 18 18 19 21 19 20 20 19 18 18 18 14 16 19 18 18 19 20 19 18 17 16 16 15 15 14 14 13 13 12 12 12 12 11 11 11 10 10 9 8 8 7
18 21 19 18 20 21 21 20 19 16 17 15 18 16 15 16 19 19 20 20 20 18 17 16 16 15 14 13 13 13 13 12 12 12 12 11 11 10 10 9 8 8 8 7
19 19 21 21 19 21 19 18 14 13 12 14 19 17 17 18 17 18 18 20 19 18 17 16 15 14 14 13 13 12 12 12 12 12 11 11 10 10 9 9 9 8 8 7
16 17 18 21 20 19 18 17 13 14 12 14 17 17 19 19 20 20 18 20 19 17 17 16 14 14 13 13 13 13 13 12 12 11 11 11 10 9 9 9 8 7 7 6
17 17 18 20 20 20 16 14 17 16 16 14 16 17 18 19 18 16 17 19 18 17 17 16 15 14 14 13 13 12 12 12 11 10 10 10 9 9 8 7 7 6 5 5
16 16 15 17 19 20 19 17 16 14 16 16 16 17 16 17 18 17 17 17 18 17 17 16 15 14 14 14 13 12 12 11 10 10 9 9 8 7 7 7 7 5 4 4
15 15 15 17 17 17 18 18 19 17 14 13 12 15 17 17 17 16 17 18 18 17 17 16 15 15 14 13 13 12 12 11 11 9 8 8 7 7 6 5 4 4 4 3
16 13 12 15 17 19 20 19 17 11 16 14 11 13 20 17 17 19 18 19 18 18 17 17 16 15 14 13 12 12 11 11 10 9 8 7 7 5 4 4 4 4 3 3
18 16 13 16 17 19 19 19 19 18 13 15 10 13 19 19 18 20 20 19 18 18 17 17 16 15 14 13 12 11 10 9 8 7 7 6 5 5 4 4 4 3 3 2
19 17 15 13 16 18 19 19 19 17 9 13 13 16 17 17 18 19 20 19 19 18 17 17 16 14 13 12 11 10 9 8 7 7 6 5 4 3 4 4 3 3 2 1
16 15 18 17 18 18 19 19 18 18 16 13 15 16 17 17 16 19 20 20 19 18 17 16 14 13 12 11 10 9 8 8 7 6 5 5 4 4 3 3 2 2 1 1
16 14 17 16 17 16 16 17 17 17 17 18 17 17 18 19 20 19 19 19 19 17 16 15 14 12 12 11 10 9 8 7 5 5 4 4 3 3 3 2 2 2 1 0
14 14 10 13 12 13 10 15 16 16 17 17 16 16 17 17 16 18 18 18 18 17 16 15 14 13 12 11 10 8 6 5 5 4 4 3 2 2 2 2 2 0 -0 -1
14 13 9 8 9 9 14 17 18 17 17 16 16 14 14 15 16 17 17 17 16 16 15 14 13 12 10 9 8 6 6 5 4 3 2 1 1 0 1 0 -0 -1 -1 -1
14 9 8 8 8 12 15 17 18 17 15 15 14 14 15 16 16 14 15 15 15 14 14 13 12 10 9 7 6 6 4 3 3 1 1 0 -0 1 0 -0 -1 -2 -2 -2
13 10 7 5 7 8 12 16 17 17 11 14 14 14 15 15 8 9 14 13 13 13 12 11 9 8 7 5 5 4 3 2 1 1 1 0 0 0 -1 -2 -2 -2 -2 -3
6 5 6 3 5 8 13 15 17 11 10 15 15 13 14 9 11 12 12 12 11 10 9 8 7 6 5 4 3 2 2 1 1 1 -0 -0 -0 -1 -1 -1 -2 -2 -3 -3
9 6 5 6 7 8 14 15 12 11 14 14 13 12 12 11 11 11 10 9 8 7 6 6 5 4 3 2 2 2 1 1 0 -0 -1 -1 -1 -2 -2 -2 -2 -2 -3 -4
9 10 8 8 8 11 15 14 14 14 13 12 12 12 12 11 10 10 8 7 6 5 5 4 4 2 2 2 2 1 0 -0 -0 -1 -1 -1 -2 -2 -3 -3 -3 -3 -3 -4
14 15 11 11 14 13 12 12 12 12 11 11 11 11 11 10 9 7 6 5 4 4 3 3 2 2 2 1 0 -0 -0 -1 -1 -1 -1 -2 -2 -3 -3 -3 -3 -4 -5 -5
12 13 13 12 10 10 9 10 10 10 10 9 9 9 9 9 5 5 4 4 3 3 2 2 1 0 -0 -0 -0 -0 -1 -1 -1 -2 -2 -2 -2 -2 -3 -3 -4 -5 -5 -6
13 12 8 7 10 9 8 9 9 9 8 7 8 7 6 7 5 4 3 2 2 1 1 0 -0 -0 0 -0 -0 -1 -1 -1 -1 -2 -2 -2 -2 -2 -3 -4 -4 -4 -4 -5

GFSCGP_850_temp_060.txt.gz
Temp
19 17 16 18 19 19 18 18 16 17 17 17 16 17 16 17 17 15 14 13 14 16 16 16 15 15 15 15 15 15 14 13 13 13 13 12 12 12 11 10 10 10 11 11
16 15 18 19 18 17 17 17 17 18 18 16 16 17 17 16 17 18 16 16 15 15 15 15 15 14 14 14 14 14 14 14 13 13 13 12 12 11 10 10 10 10 10 10
15 16 18 18 17 17 17 16 18 17 19 18 17 17 18 18 17 18 18 18 18 17 16 15 14 15 15 14 14 14 14 13 13 12 12 11 10 10 10 10 10 10 9 9
16 17 18 17 18 17 15 18 19 20 17 16 18 15 16 17 17 16 17 17 18 18 17 16 16 15 15 15 14 14 13 12 12 11 11 12 12 12 11 11 10 9 9 9
17 16 17 18 18 18 16 19 19 19 16 16 17 15 15 17 16 17 17 17 17 17 17 17 17 17 15 15 14 13 12 12 11 11 11 11 12 11 11 10 9 9 9 8
17 19 18 17 18 18 19 19 15 14 14 15 17 16 15 16 18 18 17 18 18 17 16 16 16 16 16 15 14 12 12 12 11 11 11 11 11 11 10 9 9 8 7 8
18 18 20 19 19 18 18 15 13 13 12 14 17 15 16 17 17 17 17 17 17 17 16 16 16 16 15 15 13 13 12 11 11 12 11 11 10 10 10 9 9 8 7 7
15 16 18 20 19 18 16 16 12 15 13 14 17 16 17 17 18 19 20 19 18 17 17 16 15 15 14 13 13 12 12 11 11 11 11 11 10 9 9 8 7 7 7 6
15 16 15 18 18 18 16 15 14 14 14 13 14 17 17 18 17 17 17 17 15 16 16 16 15 15 14 13 13 12 12 11 12 11 11 10 10 9 9 8 7 6 6 6
16 16 16 16 18 18 17 16 14 12 15 15 15 15 15 17 18 15 14 15 16 16 16 16 15 14 14 14 13 12 12 12 12 12 11 10 10 9 8 7 7 7 5 5
15 15 16 16 17 17 16 16 16 14 12 12 11 13 15 16 16 14 14 17 17 16 16 15 15 14 15 14 13 13 12 12 12 11 10 10 9 8 6 6 6 6 5 4
15 13 13 16 17 17 16 16 15 11 15 12 10 13 17 15 15 17 17 17 17 17 17 16 16 15 14 14 13 13 12 13 12 10 9 8 7 6 5 4 4 4 4 4
14 14 12 14 15 16 16 17 17 14 10 13 9 12 16 17 15 17 17 17 18 17 17 16 16 15 14 14 14 12 12 11 10 8 7 7 6 5 4 4 3 3 3 3
17 14 13 12 14 16 17 18 17 14 9 12 11 15 16 16 16 16 17 18 18 18 17 16 15 14 14 13 12 11 10 9 8 7 7 6 5 4 4 3 3 3 3 2
15 15 16 15 16 17 17 17 18 17 15 13 14 13 16 16 15 17 19 19 18 16 15 16 14 13 12 11 11 10 9 9 7 6 6 5 4 4 3 3 3 2 2 2
14 15 16 16 14 14 16 16 15 16 17 16 15 15 15 17 16 17 18 18 18 17 15 15 13 12 12 11 10 10 9 7 6 6 6 5 4 4 3 2 2 2 1 1
13 12 9 12 11 13 10 13 15 16 15 16 15 15 15 13 14 15 17 18 17 16 15 14 13 13 12 11 10 8 7 6 6 6 5 4 3 2 2 2 1 1 0 -0
11 10 7 7 8 9 13 15 15 14 14 14 13 13 13 13 13 15 16 17 16 14 13 13 13 12 11 10 8 7 6 5 5 4 3 2 2 2 2 1 0 0 -1 -1
12 8 7 7 8 11 14 16 15 15 14 12 12 12 12 13 14 12 14 15 15 14 13 13 12 11 9 8 7 6 4 4 4 3 2 2 2 2 1 0 -0 -1 -1 -2
10 8 8 6 7 8 11 14 16 14 10 13 13 12 13 12 7 8 11 13 13 13 12 11 10 9 8 6 5 4 3 2 2 1 2 1 1 1 0 -0 -1 -1 -2 -2
5 4 6 2 4 7 11 14 15 12 10 13 13 13 12 8 9 9 9 11 11 10 10 9 7 6 5 4 4 3 2 2 2 1 1 1 0 -0 -1 -1 -1 -2 -2 -2
9 6 5 4 3 9 13 14 12 11 12 12 12 12 10 10 9 8 8 9 8 8 6 6 5 4 3 3 3 2 2 1 1 1 1 1 0 -0 -1 -1 -2 -2 -2 -2
10 9 7 8 7 10 13 13 14 13 12 11 12 11 11 10 8 8 7 7 6 5 5 4 4 3 3 3 3 1 1 1 1 1 0 -0 -1 -1 -1 -2 -2 -2 -3 -3
13 11 9 10 10 9 10 12 12 13 12 11 11 10 10 9 7 6 5 5 4 4 4 3 3 2 2 2 1 1 0 0 -0 -0 -1 -1 -1 -1 -2 -2 -2 -3 -3 -4
10 11 10 7 8 9 9 10 10 10 10 11 10 10 9 9 5 5 4 3 3 2 2 2 1 1 0 0 -0 -0 -1 -1 -1 -1 -1 -1 -2 -2 -2 -2 -2 -3 -3 -3
11 10 8 7 10 9 8 8 9 9 9 9 9 8 6 7 5 4 3 2 2 2 1 1 0 -0 -0 -0 -1 -1 -1 -1 -1 -2 -2 -2 -2 -3 -3 -3 -3 -4 -4 -4

GFSCGP_850_temp_063.txt.gz
Temp
18 15 15 17 16 17 17 16 16 16 16 16 15 15 14 14 14 14 13 13 13 15 16 15 15 14 13 13 13 13 14 13 13 12 12 12 12 11 11 11 11 11 11 11
16 16 16 18 17 17 17 16 15 16 16 16 14 15 15 13 14 15 14 13 14 15 15 15 14 13 13 14 13 13 14 13 12 12 12 12 12 12 11 10 10 10 10 10
15 16 17 17 17 17 16 16 15 15 17 17 15 16 15 14 15 15 14 16 16 17 16 16 15 14 14 14 14 14 14 13 13 13 12 12 11 11 10 10 10 10 10 10
15 16 17 17 16 16 16 16 15 16 16 15 17 14 15 14 15 14 14 14 15 16 16 16 15 14 15 15 14 15 14 14 13 12 11 11 12 12 11 11 10 10 9 8
16 16 16 16 17 17 16 17 17 18 16 16 16 14 15 15 15 16 15 15 15 16 16 16 16 16 15 15 14 14 14 14 13 12 10 11 11 11 11 10 10 9 8 7
16 17 16 16 18 17 18 17 15 13 13 14 16 15 14 14 17 17 17 16 16 16 16 16 16 16 16 15 14 14 13 13 12 11 11 11 12 11 11 10 9 8 7 7
17 17 18 18 18 17 16 14 13 13 11 13 15 15 15 16 16 16 17 17 16 16 16 16 16 16 16 15 14 14 13 12 12 11 11 11 11 11 11 10 9 8 7 6
15 15 18 19 18 17 15 15 12 15 13 13 15 15 16 17 17 16 19 18 17 15 15 15 15 15 15 15 15 14 13 12 11 11 11 11 11 10 10 9 8 7 7 7
14 15 16 16 18 17 16 15 14 13 12 12 13 14 16 15 15 15 14 16 15 16 16 16 16 16 16 16 15 14 12 12 11 11 11 11 10 10 9 8 7 7 5 5
15 16 16 16 17 17 16 14 13 11 14 14 13 14 14 16 16 14 14 14 16 16 15 16 16 16 16 15 15 13 12 12 12 12 11 11 10 9 8 8 7 6 5 4
14 14 15 16 16 15 15 14 15 13 11 12 11 13 13 15 15 15 13 16 17 15 15 16 16 16 15 15 14 13 12 12 12 11 11 10 10 9 8 7 6 5 5 4
14 12 12 15 16 16 16 15 14 11 14 10 9 11 15 14 14 16 17 16 16 17 17 17 16 15 14 14 13 13 13 12 11 11 11 10 9 8 6 6 6 4 4 4
14 12 12 14 15 15 15 14 14 12 9 11 8 11 15 14 15 18 16 17 17 17 16 16 15 15 14 13 13 13 12 11 11 10 8 7 6 6 6 5 4 4 4 3
16 12 14 12 14 15 16 17 15 13 9 12 10 14 15 15 15 16 17 18 17 17 16 16 15 14 13 12 12 12 11 10 10 8 8 7 7 7 6 5 4 3 3 3
14 14 14 14 15 16 17 16 15 14 13 12 13 12 14 14 14 16 19 18 17 16 15 15 14 13 13 12 12 11 10 10 9 8 8 7 7 6 4 4 3 3 3 3
13 13 15 14 14 14 15 15 15 14 15 13 13 13 13 15 16 15 15 17 18 17 15 15 14 13 13 12 11 10 10 9 8 7 7 6 5 4 3 2 2 3 3 1
12 10 9 12 11 12 10 11 13 14 14 14 13 13 14 13 12 12 14 16 16 15 15 14 14 13 12 11 10 10 9 8 7 6 5 4 3 2 2 2 2 2 2 1
10 9 6 7 8 9 13 13 14 13 13 12 13 12 11 11 10 11 13 15 15 15 14 12 12 11 11 10 9 9 8 6 5 5 4 3 2 2 2 2 1 1 1 0
11 7 6 7 8 10 14 14 12 13 13 12 11 10 11 12 13 11 12 13 13 13 13 12 11 11 10 9 8 7 5 5 4 3 2 2 2 1 1 1 1 1 1 -0
9 7 7 3 7 8 11 13 15 13 11 12 11 9 10 12 9 7 10 12 13 12 12 11 10 10 9 7 6 5 4 3 2 2 2 2 1 0 1 1 1 0 -0 -1
5 4 6 2 5 7 10 13 15 12 10 13 13 12 11 9 9 10 9 10 11 11 10 9 8 8 6 5 4 4 3 2 2 2 1 1 1 1 1 0 -0 -1 -1 -1
9 7 4 2 3 9 12 12 12 10 12 13 12 13 12 11 9 9 8 9 9 9 8 6 6 5 3 3 3 2 2 2 1 1 0 1 0 0 -0 -1 -1 -1 -2 -2
11 9 8 8 8 10 12 13 14 15 14 12 13 12 13 10 8 8 8 7 6 5 5 4 4 3 2 2 2 1 1 -0 -0 0 0 -0 -0 -1 -1 -1 -2 -2 -2 -2
11 9 8 9 10 10 10 12 13 13 13 12 12 12 12 11 8 7 6 5 4 4 3 3 3 2 2 1 0 -0 -0 -0 -0 -1 -1 -1 -2 -2 -2 -2 -2 -3 -3 -3
9 9 8 7 7 8 9 10 12 11 11 11 10 11 11 10 6 6 4 3 3 2 2 2 1 0 -1 -0 -0 -0 -0 -1 -1 -1 -1 -1 -2 -2 -2 -2 -3 -3 -3 -4
10 9 8 8 8 9 9 9 10 10 10 10 10 8 7 8 6 4 3 2 2 1 0 -0 -1 -1 -0 -1 -1 -1 -1 -1 -1 -1 -2 -2 -2 -3 -3 -3 -3 -4 -4 -5

GFSCGP_850_temp_066.txt.gz
Temp
16 14 14 15 14 15 16 16 15 15 15 16 15 15 12 13 13 13 13 13 12 13 15 14 14 14 13 13 13 13 13 12 12 12 12 12 12 11 11 11 11 11 11 11
15 15 16 16 16 16 16 16 15 15 16 15 13 14 14 12 13 13 13 13 14 13 13 14 15 15 14 14 14 13 12 13 13 12 12 12 12 11 11 11 11 10 10 10
14 16 16 17 17 16 16 16 15 15 15 15 14 15 14 13 14 14 14 15 15 15 15 15 14 15 15 15 15 14 14 13 13 13 12 12 11 11 10 10 10 10 10 9
15 16 15 16 16 15 15 15 15 15 15 14 16 14 14 14 14 13 14 14 15 15 16 17 16 16 16 16 15 14 13 13 13 12 12 12 11 11 11 11 10 9 9 8
16 15 15 15 16 16 15 17 16 17 15 15 15 13 14 14 14 14 14 15 16 16 16 16 16 16 16 16 15 14 14 13 12 12 12 11 10 10 10 10 9 9 9 8
15 16 15 15 17 16 17 16 14 12 12 13 15 14 13 13 15 16 16 15 16 17 16 16 16 16 15 15 14 14 13 13 13 12 12 10 10 10 10 10 9 9 8 7
16 16 17 17 18 16 15 14 12 12 11 13 14 14 14 16 15 15 15 16 17 17 16 16 16 16 15 15 14 13 13 13 12 12 11 11 10 10 11 11 10 9 9 8
14 14 16 17 17 15 15 14 11 15 13 13 14 14 16 16 16 16 16 17 16 16 17 17 16 16 16 15 15 15 14 14 13 11 11 10 10 10 11 10 10 9 9 7
13 15 16 16 17 17 15 14 13 11 11 11 12 13 15 16 15 15 14 16 17 16 17 18 16 16 16 16 15 15 14 14 13 11 11 11 11 11 11 10 10 9 8 6
14 15 16 16 16 15 16 13 13 10 14 13 12 13 13 16 15 14 13 13 16 17 16 17 17 17 16 16 16 15 14 14 12 12 11 11 11 11 11 10 9 8 7 5
13 14 15 15 15 15 14 14 12 12 10 12 10 12 12 15 15 14 14 15 15 15 16 17 17 17 16 16 16 15 14 13 12 12 12 12 12 11 10 9 8 7 6 6
13 12 12 14 15 15 14 14 12 11 13 9 9 10 14 13 13 15 16 17 16 16 16 15 16 16 15 15 16 14 14 13 12 12 11 11 10 9 8 7 5 5 5 5
13 12 12 13 14 14 15 14 13 10 8 10 8 11 14 13 13 17 16 18 19 17 16 15 15 15 15 14 15 13 13 12 12 11 10 10 9 7 7 6 6 5 5 3
15 11 12 13 13 13 14 14 12 12 8 11 9 13 14 14 14 14 17 18 18 18 17 17 16 16 15 15 14 13 13 13 11 9 9 9 8 7 6 6 5 4 3 3
13 13 12 13 14 14 15 15 12 12 12 12 13 11 13 14 13 15 17 17 16 17 18 17 15 15 14 13 14 14 13 11 9 9 8 6 6 6 5 4 3 3 3 3
11 13 13 14 13 13 14 13 13 13 13 12 12 12 12 14 15 14 14 15 15 15 15 15 15 14 13 13 12 10 9 8 8 8 6 5 5 4 3 2 3 2 2 2
11 10 9 12 10 12 10 11 12 13 12 12 11 12 14 14 11 9 11 12 14 15 15 15 13 13 12 11 10 9 8 8 8 6 5 5 4 3 3 2 2 2 1 0
9 9 7 7 7 9 13 12 12 11 11 12 11 12 12 11 9 9 10 11 13 13 13 13 12 12 11 10 10 9 8 7 6 5 4 3 2 2 2 1 0 1 1 1
10 7 6 9 8 10 13 13 12 12 12 11 10 10 9 10 10 9 10 12 12 12 12 12 11 10 10 9 8 7 6 5 4 3 2 2 1 1 1 1 0 0 0 0
8 6 8 4 7 8 10 12 13 13 10 10 10 8 8 10 9 7 9 9 10 11 10 10 9 9 8 7 6 6 5 4 3 2 2 2 0 1 0 -0 1 0 -0 -0
6 4 6 2 5 7 9 13 13 11 10 11 12 11 11 9 8 8 8 9 10 9 9 8 7 7 6 5 5 4 3 2 2 2 2 1 1 -0 0 -0 -0 -1 -1 -1
10 7 5 3 4 10 11 11 11 10 12 12 13 12 11 11 8 8 8 8 8 8 6 6 6 5 3 3 4 3 2 2 2 2 0 -0 -0 -1 -1 -1 -1 -2 -2 -2
11 10 9 9 9 10 12 13 15 15 14 13 14 13 13 11 8 7 7 7 6 6 5 4 4 2 2 2 2 1 1 0 0 -1 -0 -1 -1 -1 -1 -2 -2 -2 -2 -3
10 9 9 9 10 8 11 12 13 14 14 14 14 14 13 12 8 7 6 5 4 4 3 3 3 2 1 1 0 0 0 -1 -0 -0 -1 -1 -1 -1 -1 -2 -2 -3 -3 -3
9 9 8 7 7 8 9 11 13 13 13 13 13 13 12 11 7 6 5 4 3 3 2 2 2 1 0 -0 -1 -1 -1 -0 -1 -1 -1 -1 -1 -1 -1 -2 -2 -3 -3 -5
8 8 8 9 12 12 12 13 12 12 12 12 12 10 9 9 8 5 3 3 2 2 1 1 0 0 -1 -1 -1 -1 -1 -1 -1 -1 -1 -1 -1 -2 -2 -3 -3 -3 -4 -6

GFSCGP_850_temp_069.txt.gz
Temp
16 17 17 17 16 17 17 17 17 17 17 17 17 17 15 13 13 13 13 13 13 13 13 13 13 13 12 13 12 12 12 12 12 12 12 11 11 12 12 12 11 11 11 11
16 16 16 16 16 17 17 17 17 17 16 16 16 17 16 15 14 14 14 13 13 14 12 12 13 13 13 13 13 13 13 12 12 12 12 12 12 12 12 11 11 10 11 11
16 17 15 16 16 16 17 16 16 17 16 16 15 17 16 15 14 14 14 14 13 14 15 14 13 13 13 13 14 14 13 13 12 12 12 12 12 11 10 10 10 10 10 10
16 15 16 16 16 16 16 16 16 16 16 18 16 18 17 16 15 15 14 14 15 14 15 15 15 14 14 14 14 14 13 13 13 12 12 12 12 12 11 11 11 10 10 9
17 15 15 16 16 16 17 16 16 16 16 16 16 17 19 15 16 16 16 15 15 17 16 16 16 15 15 14 15 14 13 13 12 12 12 12 11 10 10 10 10 10 9 9
16 15 16 17 16 16 16 16 15 14 15 16 16 17 19 19 18 18 17 16 15 17 17 17 17 17 16 15 15 14 14 13 13 12 12 12 11 10 9 10 10 9 9 9
16 16 16 16 17 16 16 16 16 16 16 17 15 15 18 18 17 17 18 16 17 17 18 18 17 17 17 16 15 14 14 14 14 12 12 11 11 10 9 10 10 9 9 9
16 16 16 16 18 18 16 17 16 16 15 16 14 16 20 17 17 16 16 15 16 17 17 18 18 18 17 17 16 15 15 14 14 13 12 12 11 10 9 10 10 10 10 9
14 15 15 16 16 17 16 16 15 13 12 14 15 16 18 16 17 16 16 15 15 16 16 17 18 18 17 17 16 16 15 15 14 13 12 11 10 10 10 11 10 10 9 8
15 16 15 15 16 15 16 15 15 14 14 15 15 15 17 19 19 16 17 17 17 15 15 16 16 17 17 16 16 16 15 15 14 14 12 11 10 10 11 10 9 9 8 6
14 15 15 15 16 17 15 15 14 15 14 15 15 17 16 18 18 17 17 17 18 18 18 17 16 16 16 16 16 15 15 15 14 13 12 11 11 11 10 10 9 8 7 5
14 13 14 16 15 15 15 16 15 15 14 12 13 15 16 16 15 14 15 16 18 19 19 18 17 15 15 15 15 15 15 15 14 13 12 11 11 11 10 8 8 6 5 6
13 13 14 15 15 15 16 15 14 12 11 13 14 16 15 15 16 16 15 17 17 18 18 17 16 17 16 15 15 15 14 15 14 13 12 12 10 9 9 6 6 6 5 5
15 13 15 15 16 15 14 14 13 15 13 14 14 16 17 17 16 17 16 17 17 17 17 18 18 17 16 15 14 15 15 14 13 13 12 9 8 6 5 6 4 5 4 3
15 15 13 14 14 14 15 15 13 15 15 15 17 14 17 17 17 16 16 16 17 17 16 16 16 16 15 15 14 15 15 14 13 9 8 7 5 5 5 4 3 3 2 2
12 14 12 14 12 13 14 15 13 13 14 14 14 14 15 15 14 14 14 14 15 16 16 14 14 13 13 13 13 12 11 9 8 8 7 5 5 5 3 3 3 2 2 1
12 11 11 13 11 13 12 13 14 14 14 15 14 16 14 14 14 12 11 12 13 14 14 13 12 12 11 10 10 9 8 8 7 6 5 5 4 3 2 2 1 1 1 1
10 11 9 10 9 11 15 13 14 14 14 13 13 13 14 13 9 9 10 10 11 12 13 13 12 11 10 9 9 8 8 7 6 5 5 3 2 2 1 0 1 0 1 0
11 9 9 10 11 12 14 13 13 13 16 13 13 13 11 8 8 8 9 10 11 11 12 12 11 11 10 9 8 7 6 6 5 4 3 2 2 1 1 1 1 0 0 0
8 8 11 7 11 12 13 13 12 14 14 14 12 12 10 8 12 13 9 9 10 10 11 11 10 9 8 7 6 6 5 4 3 2 2 2 1 1 1 0 -0 -0 -0 -0
8 7 10 7 10 11 11 12 13 14 16 14 12 11 9 11 11 10 8 8 8 8 8 8 7 7 6 5 5 5 3 3 2 2 2 1 1 1 0 -0 -0 -0 -0 -1
10 9 9 7 8 12 11 11 13 14 13 14 12 12 10 11 9 7 7 6 6 7 6 6 6 5 4 4 4 3 2 1 1 1 1 1 1 -0 -0 -0 -0 -1 -1 -2
11 11 11 11 12 12 12 15 16 15 15 14 13 12 12 10 7 6 6 6 5 5 5 4 5 3 2 2 3 2 1 1 1 1 0 0 -0 -0 -0 -1 -1 -2 -2 -2
10 9 11 11 12 10 11 13 14 14 14 15 14 13 12 12 8 6 6 5 5 4 4 3 3 2 1 1 1 1 1 1 0 0 -0 -0 -0 -1 -1 -1 -2 -2 -3 -4
10 10 9 10 10 9 12 12 12 13 13 13 12 13 12 12 8 7 5 4 3 3 2 2 2 1 1 1 1 0 -0 -0 -0 -0 -1 -1 -1 -1 -1 -2 -3 -4 -5 -6
9 10 10 11 12 14 16 18 16 13 13 13 13 11 9 10 9 6 4 3 2 2 1 1 1 1 0 -1 -1 -1 -1 -1 -1 -1 -1 -1 -2 -2 -3 -4 -4 -5 -6 -7

GFSCGP_850_temp_072.txt.gz
Temp
19 20 20 22 22 22 21 21 21 22 22 21 22 22 22 19 18 18 17 17 16 15 14 12 12 11 11 11 11 11 11 12 12 12 11 11 12 12 12 12 12 12 12 11
20 20 22 21 21 20 21 20 21 21 21 19 22 22 23 20 19 19 18 18 17 14 14 14 13 12 11 11 11 11 11 11 12 11 11 10 11 12 11 11 12 11 11 11
20 21 20 20 20 20 20 20 20 20 21 20 20 22 22 21 20 18 18 18 18 17 14 14 13 13 12 12 11 11 11 11 11 11 11 10 10 12 11 11 11 11 11 10
21 21 20 20 20 20 20 21 21 20 20 21 20 21 22 22 21 20 19 18 18 18 17 15 14 14 13 13 12 12 12 12 11 11 11 12 11 10 10 11 10 10 10 10
20 20 19 19 20 20 20 20 20 20 21 21 21 21 23 22 22 22 21 19 19 18 18 17 16 15 14 13 13 12 12 11 11 12 12 11 10 10 11 11 10 10 10 10
21 19 20 21 20 20 20 19 20 20 21 20 21 21 23 23 23 23 23 21 19 19 18 17 17 16 15 13 12 12 12 11 12 12 12 12 10 11 11 10 10 9 9 10
20 20 21 19 20 19 20 20 19 18 19 19 20 20 22 23 23 22 23 22 21 20 19 18 18 16 15 14 13 13 12 12 11 13 12 12 12 12 11 10 10 7 8 9
19 19 20 21 21 21 20 21 19 18 18 20 18 20 22 23 22 22 21 20 19 20 19 18 18 17 16 14 15 16 15 14 14 14 13 12 12 12 11 10 9 8 8 8
19 20 20 20 20 21 19 19 20 19 17 18 21 21 23 23 22 22 22 20 20 19 19 18 18 17 16 14 16 17 16 15 15 15 13 13 12 11 11 10 9 8 7 7
20 19 20 19 19 19 20 21 19 19 17 17 20 20 21 22 22 22 23 23 20 18 18 18 17 17 16 15 14 16 15 16 15 14 13 13 12 11 11 10 9 7 6 7
21 20 18 18 19 20 18 19 19 20 19 18 18 20 22 22 23 22 23 21 21 19 18 17 17 16 15 15 14 13 14 14 12 14 13 12 10 10 10 9 9 8 7 8
21 20 18 19 20 20 21 21 20 18 18 18 18 19 23 23 22 21 21 21 20 19 18 17 16 16 15 14 13 13 13 13 12 11 11 10 10 9 10 9 8 8 6 5
19 18 18 18 18 18 19 20 20 19 18 18 17 19 21 21 21 21 21 21 20 19 19 17 16 15 14 14 13 13 12 12 14 11 12 12 11 10 9 8 8 6 6 5
18 20 19 18 19 21 19 20 20 20 18 19 19 20 22 22 22 22 22 20 20 19 19 18 16 15 14 13 12 11 10 11 13 11 12 11 10 11 9 8 4 5 5 4
19 19 19 20 21 21 20 20 20 19 20 19 20 21 22 22 22 22 21 19 18 19 18 17 17 16 13 12 11 10 12 13 11 10 9 9 8 8 6 5 5 5 3 3
18 18 19 18 19 19 19 20 20 20 20 20 20 20 22 22 21 20 20 18 18 17 17 16 15 14 12 10 9 9 11 10 8 8 8 8 7 5 6 5 5 3 3 3
16 18 17 17 17 17 14 17 19 20 19 20 19 21 22 21 20 19 19 15 15 14 13 13 13 11 10 9 9 8 8 8 8 8 7 5 5 5 4 3 3 3 2 1
16 16 17 16 11 13 19 19 21 20 20 21 20 21 21 20 18 14 12 13 12 11 10 10 10 9 8 8 7 7 6 5 7 6 5 5 5 4 3 2 2 1 1 1
16 16 14 13 15 18 17 15 18 18 19 21 21 21 20 18 14 14 9 9 9 8 8 8 8 7 7 6 6 6 7 6 6 5 4 4 3 2 1 1 1 0 -0 -0
14 14 16 12 14 14 18 20 18 19 18 21 20 19 19 14 16 19 9 10 9 8 7 7 7 6 7 6 5 6 6 5 5 4 3 1 1 1 1 0 -0 -0 -0 -1
11 11 12 14 13 17 17 15 16 16 18 19 19 18 16 16 16 11 9 8 7 7 6 6 5 5 5 4 4 4 3 4 3 2 1 1 1 1 1 0 0 -0 -1 -1
13 13 11 13 12 13 14 14 17 20 16 17 16 16 15 12 9 7 6 6 6 5 5 4 4 4 4 3 3 2 2 1 2 1 1 1 1 0 0 -0 -1 -1 -1 -1
14 15 16 15 17 18 15 19 17 16 18 15 16 14 13 9 7 6 6 5 5 4 4 4 4 3 2 2 2 1 1 0 1 1 1 0 0 -0 -0 -0 -0 -1 -1 -2
14 12 14 15 18 17 15 16 13 13 14 13 13 13 11 10 7 6 5 5 4 4 3 3 2 1 1 0 -0 -0 1 1 1 1 0 -0 -0 -0 -0 -1 -1 -2 -2 -3
17 15 15 17 17 14 14 13 14 13 15 15 13 11 10 9 7 6 5 4 4 3 2 2 1 -0 -1 0 2 2 1 1 0 -0 -0 -0 -0 -1 -1 -2 -3 -3 -4 -4
15 16 15 15 18 16 19 16 16 15 16 16 14 11 9 8 7 5 4 4 2 2 1 0 -0 0 1 1 1 0 -0 -0 -1 -1 -1 -1 -1 -2 -3 -4 -6 -4 -6 -6

GFSCGP_850_temp_075.txt.gz
Temp
21 22 22 23 24 24 23 23 23 23 24 23 23 24 24 23 22 20 20 18 16 14 13 12 11 12 12 11 11 11 11 11 11 11 11 11 11 11 12 11 11 12 10 11
22 21 23 24 24 23 22 22 23 24 24 22 23 24 24 24 23 21 20 19 18 17 15 13 12 12 13 12 12 12 12 11 11 12 12 12 12 10 11 11 11 12 12 12
22 23 24 22 22 22 22 22 22 22 23 23 23 23 24 25 23 22 21 20 19 18 16 15 14 14 13 12 12 12 12 11 11 13 12 12 12 10 10 11 10 12 12 10
22 24 22 22 22 22 21 23 22 22 22 19 24 20 22 25 24 23 22 21 20 19 17 16 15 14 14 14 13 13 13 12 12 12 13 13 12 11 11 10 10 12 11 11
22 22 22 21 22 23 22 22 22 22 22 23 23 23 24 25 24 24 24 22 21 20 19 17 16 16 15 14 14 13 13 14 14 12 12 13 13 13 11 10 10 12 11 10
23 23 23 23 23 23 23 22 22 22 22 20 23 23 23 24 25 25 25 23 22 21 21 20 18 17 16 15 14 14 14 14 14 13 12 12 12 12 11 11 12 11 10 9
22 22 23 22 22 22 22 21 20 19 20 20 22 22 24 24 25 25 25 24 23 22 21 21 20 18 18 17 15 14 14 14 14 12 12 11 12 12 11 11 12 11 10 9
20 20 22 22 22 22 22 22 20 18 19 21 22 21 24 25 25 24 24 24 23 23 22 21 21 20 19 17 16 15 14 14 14 13 11 12 11 11 10 10 9 11 10 8
21 21 24 23 23 23 22 21 23 21 21 20 22 24 25 25 25 24 24 24 23 22 22 22 21 20 19 18 17 15 14 14 14 13 12 11 11 11 10 10 9 10 9 8
22 21 23 22 23 23 22 23 20 21 18 17 22 22 23 24 24 24 25 24 23 22 22 22 22 21 20 19 17 15 14 15 14 13 12 11 11 10 10 10 9 10 9 8
23 21 22 22 21 21 21 21 22 22 20 19 19 22 23 24 24 24 24 23 23 22 21 21 21 21 20 19 17 15 14 15 15 14 12 11 11 11 10 10 9 9 8 7
22 21 21 21 23 23 24 22 22 20 20 21 20 21 24 24 24 24 24 23 23 22 22 21 20 20 19 19 18 16 15 15 15 14 12 11 11 10 10 10 9 8 7 7
21 20 19 20 21 21 21 22 23 22 22 20 18 19 24 24 24 23 23 23 23 22 22 21 20 19 19 18 17 16 15 15 15 14 11 10 10 10 11 10 10 9 8 6
20 20 20 19 21 21 20 21 22 22 20 19 20 21 23 24 23 24 24 23 23 23 22 21 20 19 18 17 16 16 15 14 13 11 11 10 10 10 9 9 8 8 7 6
20 19 20 21 22 22 22 22 21 21 21 20 21 22 23 24 24 24 23 23 23 22 22 21 21 20 18 16 15 15 13 12 10 9 9 9 9 9 8 7 6 6 5 6
20 19 20 20 21 22 21 22 22 22 22 22 22 22 24 24 24 23 23 22 22 21 20 20 20 19 17 15 14 13 10 9 8 8 8 8 8 7 7 6 6 5 4 4
19 19 19 18 20 20 18 20 21 22 22 22 21 22 24 24 23 23 22 22 20 19 18 17 17 17 15 13 11 10 8 7 7 7 7 7 7 6 5 5 4 3 3 3
17 18 18 16 13 15 19 21 22 21 22 22 22 23 23 23 23 22 19 19 18 16 15 15 15 14 12 11 9 8 7 6 7 7 7 6 5 5 4 3 2 2 2 1
17 16 16 14 16 18 20 19 20 20 21 23 22 23 23 22 20 20 17 15 16 14 13 13 12 11 10 8 7 7 6 6 6 5 4 4 3 4 3 2 2 2 1 1
17 16 15 14 15 15 19 21 21 22 19 22 23 22 22 21 18 21 14 12 11 11 11 10 10 10 9 8 6 5 5 4 4 3 2 3 4 2 2 2 1 1 1 1
12 13 13 14 14 18 21 21 21 18 19 22 22 22 21 20 19 15 12 11 11 10 10 9 9 9 8 7 6 5 4 4 3 2 2 2 2 2 1 1 1 0 0 -0
13 13 12 14 13 13 18 17 18 20 21 21 20 21 20 18 13 12 11 10 9 9 8 9 8 8 7 7 6 6 5 3 2 2 1 1 1 1 0 0 -0 -1 -1 -2
15 15 15 17 17 19 17 20 19 20 20 20 19 19 18 14 12 11 10 9 9 9 9 8 8 7 6 5 5 5 3 2 1 1 1 0 0 -0 -1 -1 -1 -2 -2 -3
18 19 17 17 19 19 19 18 18 18 18 18 17 17 16 13 12 11 10 9 9 9 8 7 6 5 4 4 3 3 3 2 1 0 -0 -1 -1 -1 -2 -2 -2 -3 -3 -4
18 18 17 17 18 19 18 18 17 18 16 16 16 16 15 14 12 11 10 9 9 8 7 6 6 4 4 3 2 1 1 1 -0 -1 -1 -2 -1 -2 -2 -2 -2 -3 -2 -3
18 17 17 16 18 18 18 17 18 17 16 15 15 15 14 13 12 10 10 9 8 6 5 4 3 2 1 0 -0 -1 -1 -1 -2 -2 -2 -2 -2 -2 -3 -5 -4 -4 -4 -4

GFSCGP_850_temp_078.txt.gz
Temp
21 20 20 22 23 24 24 23 23 24 24 23 23 24 24 23 23 21 17 16 14 12 10 10 10 10 9 9 10 11 10 10 10 9 9 10 10 11 11 12 11 11 11 11
21 20 22 23 24 24 23 23 23 24 25 24 23 23 24 23 23 21 19 16 15 14 12 11 11 10 10 11 11 10 10 10 10 10 10 11 11 12 12 11 11 11 11 11
21 22 24 23 23 22 22 22 22 23 24 24 23 23 24 24 24 21 21 18 16 15 13 12 12 11 11 11 11 10 11 11 11 11 11 12 12 11 12 11 11 11 12 12
22 23 23 23 22 23 22 24 24 23 22 21 20 20 23 23 23 23 21 21 19 17 15 13 13 13 12 12 11 12 12 12 12 12 12 12 12 11 12 12 11 11 12 11
21 22 22 22 22 23 22 24 23 22 22 22 21 20 24 24 22 24 23 21 20 19 17 15 14 14 13 13 12 12 13 13 13 13 12 13 12 12 12 12 11 11 11 12
22 24 24 23 24 23 24 23 22 22 22 20 22 22 21 21 23 25 24 22 22 20 19 17 16 15 14 14 13 13 13 13 13 13 13 13 13 13 12 11 11 11 11 11
22 22 24 24 22 24 23 21 19 17 18 19 22 21 23 22 25 25 25 24 22 22 20 18 17 16 15 14 14 13 13 13 14 14 13 14 13 13 12 12 12 12 12 12
20 20 23 24 22 22 22 21 20 17 13 17 19 21 24 25 25 25 25 25 24 23 22 20 18 17 16 16 15 14 14 14 14 14 14 14 13 12 12 12 13 12 12 12
20 21 23 24 23 23 22 21 23 21 20 18 19 19 24 25 25 25 25 25 24 24 23 22 21 19 18 17 16 15 14 14 14 15 14 14 12 12 12 13 13 11 11 11
21 20 23 24 23 23 22 23 20 21 18 18 21 22 17 21 23 24 24 24 24 23 23 23 22 21 19 18 17 16 15 15 15 14 14 13 13 11 12 12 11 10 10 9
21 21 22 24 22 22 22 21 21 22 21 18 17 21 19 21 22 24 25 24 24 23 22 22 22 22 21 20 18 17 16 15 15 14 14 13 12 11 11 11 10 10 10 9
21 21 19 21 23 23 23 22 21 20 20 20 18 19 24 24 24 24 24 24 24 23 23 22 21 21 22 21 19 18 17 15 15 15 14 13 12 12 10 10 10 10 10 9
20 19 18 20 22 22 21 22 23 22 21 20 17 19 24 25 24 24 24 23 23 23 23 22 21 21 20 21 20 18 17 16 15 15 14 14 13 12 10 10 9 9 9 9
17 20 20 19 20 21 20 22 23 22 18 19 20 21 23 24 23 24 23 22 21 23 23 22 22 21 20 19 19 18 17 16 15 15 14 14 14 10 10 10 9 9 8 8
18 17 20 21 21 22 22 21 21 21 21 20 21 21 22 24 24 24 24 22 23 23 23 22 22 21 20 19 18 17 17 16 15 15 14 11 10 10 9 9 9 9 8 6
18 18 19 19 21 21 21 22 22 22 22 22 22 22 24 24 24 23 24 23 23 23 22 21 21 21 19 18 17 16 16 15 14 11 10 10 9 9 9 8 8 7 6 5
14 17 17 16 20 20 17 20 22 22 22 22 21 22 23 23 24 24 23 22 22 22 21 19 19 19 18 16 16 15 14 12 11 10 9 8 8 8 8 7 7 6 5 4
12 14 16 15 13 15 19 22 22 21 21 22 22 23 23 23 23 23 22 21 21 19 18 17 17 17 16 15 14 12 11 11 10 8 8 8 8 7 6 6 5 4 4 3
11 12 10 13 15 18 20 20 20 20 20 22 22 23 23 23 21 22 21 19 18 18 16 15 15 14 13 12 12 11 10 9 8 8 7 7 6 5 5 4 3 3 2 2
12 12 12 12 13 13 17 20 21 20 17 22 22 21 22 22 19 20 18 16 15 14 14 13 13 12 11 10 10 9 8 7 6 6 6 5 4 4 4 3 2 2 2 1
10 10 11 12 12 16 19 20 20 17 17 21 22 22 22 21 19 18 16 14 13 13 12 11 11 10 8 8 7 8 7 6 5 4 3 3 3 3 2 2 2 1 1 1
10 10 11 12 10 13 18 18 18 19 20 21 21 21 21 19 17 15 14 13 12 11 11 10 10 9 8 7 6 5 5 5 4 3 3 3 2 2 1 1 1 1 0 -0
12 12 12 15 15 18 18 19 20 20 20 19 20 20 20 18 15 14 13 12 11 11 10 10 9 8 7 6 6 6 5 4 3 3 2 2 1 1 1 0 -0 -1 -1 -2
17 17 15 15 16 16 16 15 18 18 18 19 19 18 18 17 15 13 12 11 11 10 10 9 8 7 7 6 6 5 4 3 2 1 1 0 0 -0 -1 -1 -1 -1 -2 -2
17 17 17 17 18 17 18 17 18 18 18 17 18 17 17 16 14 13 12 11 10 10 9 8 7 6 5 5 4 3 3 2 2 1 -0 -1 -1 -2 -2 -2 -1 -1 -2 -3
17 17 16 15 17 17 17 18 18 18 18 18 17 16 16 16 14 13 12 11 10 9 8 7 6 5 4 3 2 2 1 1 -0 -1 -2 -2 -2 -2 -3 -2 -3 -3 -4 -4

GFSCGP_850_temp_081.txt.gz
Temp
19 16 15 15 17 19 19 20 18 18 20 19 19 17 15 16 16 13 12 10 10 9 9 9 9 9 10 9 9 9 9 9 9 9 8 8 10 10 11 12 12 12 12 11
17 16 18 19 19 20 21 20 19 20 22 21 19 19 19 18 16 14 12 12 11 10 9 9 9 9 10 10 9 9 10 10 9 9 9 9 10 10 11 11 11 11 10 10
17 18 20 20 20 20 20 20 19 19 21 20 21 18 20 21 17 15 14 13 13 12 11 10 9 9 9 10 11 11 11 11 11 11 10 10 10 11 11 11 11 11 11 11
17 20 20 20 20 21 19 21 21 21 20 17 20 15 19 19 18 16 15 14 13 12 12 11 11 11 11 11 11 11 11 11 11 11 11 11 10 10 11 11 11 11 11 11
18 18 19 20 20 21 20 21 21 21 18 18 18 17 17 19 18 18 16 15 14 14 14 12 12 12 12 11 11 11 10 11 11 11 11 11 10 11 11 12 12 11 11 11
18 21 20 21 22 21 22 21 20 20 17 15 18 19 16 17 20 20 19 16 15 14 14 15 14 12 12 12 12 12 11 11 11 12 12 11 11 12 12 12 12 12 12 12
18 18 20 22 20 20 20 19 15 14 14 14 17 17 18 20 20 21 19 19 17 16 15 14 14 14 13 12 12 13 12 11 12 12 13 12 12 12 12 12 12 12 12 12
15 15 18 21 21 19 19 18 13 14 11 13 14 15 18 21 22 23 23 20 19 17 16 15 16 15 14 14 14 13 13 13 12 13 13 13 13 13 13 12 12 12 13 13
15 17 20 21 22 20 19 17 18 16 15 14 15 17 20 21 21 21 23 24 20 18 17 17 16 16 15 15 15 15 14 13 13 13 13 13 13 12 13 12 12 13 13 12
17 16 20 21 21 20 20 20 17 16 14 13 18 17 17 19 20 21 21 21 22 21 18 17 17 17 16 16 16 16 15 15 15 14 13 14 14 13 13 13 12 13 13 11
18 16 17 19 20 19 18 18 19 19 16 13 13 15 17 19 20 21 21 23 23 23 23 21 19 18 18 18 17 16 16 15 14 14 14 14 14 14 13 13 13 13 13 10
17 17 15 16 19 21 21 19 18 14 16 15 13 14 19 19 19 20 21 23 23 23 22 22 22 20 18 18 17 16 16 16 14 14 14 14 14 14 14 12 12 11 11 10
16 15 14 16 18 20 20 19 20 18 15 15 11 13 20 19 20 22 23 23 23 23 22 22 22 21 19 18 18 17 16 15 15 14 14 15 14 14 14 12 12 10 10 10
15 15 15 14 16 18 18 19 19 18 13 14 14 17 19 19 20 20 22 22 23 22 22 22 21 21 21 19 19 18 17 16 16 15 15 14 14 13 14 13 13 10 10 10
15 14 15 17 18 19 19 19 19 18 18 17 17 18 19 19 20 21 22 23 22 22 22 22 21 21 21 20 18 18 17 17 16 15 15 15 14 14 13 14 12 10 9 9
13 13 14 15 16 18 19 18 18 19 19 19 18 18 19 21 22 22 22 22 21 21 22 22 21 20 20 19 19 18 17 16 16 16 16 15 14 12 10 10 10 9 9 8
12 10 14 12 16 16 13 17 18 18 19 18 17 18 19 20 22 22 22 22 22 22 21 21 21 20 19 19 18 17 17 16 16 15 14 11 10 10 9 9 9 8 8 7
10 10 11 10 12 12 16 19 19 18 19 20 20 20 20 20 22 21 22 21 20 20 20 18 18 18 18 17 17 17 16 15 12 10 10 10 9 8 8 8 7 7 6 5
11 9 7 8 11 14 15 18 18 18 17 20 20 19 20 21 21 17 20 20 19 19 18 17 17 16 16 16 15 14 12 11 11 10 10 9 8 8 8 7 7 5 4 4
11 10 8 7 9 10 15 16 20 19 14 18 19 19 18 19 14 14 18 19 18 17 16 16 15 15 14 13 12 11 11 10 10 10 9 8 7 6 6 5 4 4 3 3
7 6 7 7 7 10 16 17 19 15 12 18 20 20 20 16 15 18 17 17 17 16 14 14 13 13 12 12 10 10 9 9 9 8 8 7 6 5 5 4 3 2 2 2
8 8 7 7 7 9 16 17 16 14 19 19 20 20 19 19 18 17 16 17 16 14 12 12 12 11 10 9 8 8 8 7 6 6 5 5 4 3 3 2 2 2 2 1
9 9 9 10 10 13 15 15 14 17 16 18 19 19 19 17 16 16 16 15 14 12 11 10 10 9 8 7 7 6 5 5 4 4 3 2 2 2 2 1 1 1 1 1
12 12 12 11 13 14 15 15 16 16 16 17 18 18 19 19 17 17 15 13 12 11 10 10 9 8 7 6 5 5 4 4 3 3 2 2 2 1 1 1 1 0 -0 -0
11 12 12 12 14 15 16 17 16 15 16 17 18 18 17 17 16 15 13 12 11 10 10 9 8 7 6 6 5 4 4 3 2 2 1 1 0 -0 -0 -1 -1 -1 -2 -2
13 13 10 10 14 15 15 17 16 17 17 17 17 17 17 16 16 14 12 11 10 10 9 7 6 5 4 4 3 2 2 2 2 1 -0 -1 -1 -2 -2 -3 -2 -2 -3 -4

GFSCGP_850_temp_084.txt.gz
Temp
17 15 15 14 14 16 16 16 16 17 19 18 17 16 15 14 14 12 11 10 10 9 9 9 10 10 9 9 9 9 8 8 8 9 8 8 9 9 10 11 11 11 10 11
15 15 17 16 15 16 16 16 17 18 19 18 19 17 16 13 13 12 11 9 9 9 9 9 10 9 9 9 9 9 9 8 8 9 9 9 8 9 10 11 11 11 10 11
15 16 18 17 17 17 17 16 17 18 19 19 18 17 17 16 15 13 12 12 11 9 11 9 9 10 11 10 9 9 9 9 9 9 9 9 9 9 10 11 11 11 12 12
15 17 17 17 17 17 16 18 19 19 18 16 18 15 16 15 14 13 12 11 11 11 14 12 11 10 11 10 10 9 8 8 9 9 9 9 10 10 10 11 11 12 13 12
15 17 17 16 17 18 17 19 19 20 18 16 16 15 16 16 14 13 13 12 11 12 15 15 13 12 12 10 10 10 10 10 9 9 10 10 10 10 11 11 12 12 12 12
16 18 17 18 18 18 20 20 18 16 16 14 16 15 15 15 17 15 14 13 12 12 13 13 14 14 11 11 11 10 11 11 11 11 11 10 11 11 11 11 11 11 11 11
15 16 17 18 18 18 19 17 14 14 14 13 15 15 16 18 18 17 16 15 12 12 13 12 12 12 13 12 12 11 11 11 11 11 11 11 11 11 11 11 11 11 11 11
14 14 16 18 17 18 17 17 12 15 12 13 15 15 17 18 19 20 19 17 14 12 12 13 14 14 13 13 13 12 12 12 11 11 11 11 11 11 12 12 12 12 12 12
13 14 17 18 18 18 17 15 17 14 14 13 14 16 17 18 20 21 18 18 15 14 13 14 14 14 14 14 13 13 13 12 12 12 11 12 12 12 12 12 12 12 12 12
15 14 17 18 18 18 18 17 15 14 13 13 14 15 16 18 20 19 18 17 17 16 15 14 14 14 15 15 15 13 13 13 13 13 13 12 12 12 12 12 12 12 12 13
15 14 15 18 17 17 17 16 17 16 14 12 12 14 15 17 19 19 18 19 19 17 17 16 16 17 16 15 14 14 13 13 13 13 13 13 13 13 13 13 12 12 12 13
14 14 14 15 17 18 17 17 17 14 15 13 12 13 18 17 18 18 18 21 20 21 20 20 20 20 17 17 14 14 14 14 14 14 14 14 13 13 13 13 12 11 12 12
13 13 12 15 16 17 17 17 17 16 14 15 11 13 17 16 18 20 19 21 22 21 20 20 20 19 19 18 17 16 16 16 15 15 14 14 14 13 13 13 13 11 11 10
13 12 15 14 15 16 17 17 18 18 14 15 13 16 17 17 17 18 21 21 22 23 22 21 20 20 20 20 19 18 17 17 17 16 16 15 15 14 14 13 12 11 11 12
12 12 13 15 16 16 16 16 17 18 16 16 16 15 16 17 17 18 22 21 20 21 22 22 21 21 21 21 20 20 19 18 17 16 15 14 14 14 14 14 12 13 11 12
11 12 14 13 14 16 15 16 17 17 17 17 17 16 18 20 19 19 21 21 21 21 22 22 22 21 20 20 20 19 18 18 17 16 15 15 14 14 14 14 13 12 10 10
7 10 11 11 15 15 12 13 15 16 17 17 15 16 17 17 17 18 20 21 22 22 21 21 22 21 20 19 19 19 19 17 16 16 15 14 14 12 11 10 10 10 9 9
7 9 7 7 11 12 12 16 17 17 17 17 18 18 18 18 20 21 22 22 21 21 20 19 20 20 20 19 18 18 17 16 16 16 15 13 10 10 10 9 9 9 8 8
8 8 7 8 9 12 14 15 16 16 16 17 17 18 19 19 18 17 20 20 21 20 20 20 19 19 18 18 17 16 16 15 14 12 11 10 10 10 9 9 9 8 7 7
9 8 8 6 7 9 13 15 17 18 14 17 17 17 18 16 13 13 19 20 20 19 19 19 18 17 16 15 14 13 13 13 12 11 10 10 9 9 9 8 8 7 6 5
5 5 6 7 7 8 12 13 17 14 12 17 18 19 18 15 15 19 18 18 18 18 17 16 15 15 14 13 12 12 11 10 10 9 9 9 9 8 7 7 6 5 4 4
6 6 4 6 5 7 13 14 14 13 16 16 18 19 19 20 19 18 17 16 16 16 14 14 13 12 11 11 10 9 9 8 8 8 7 7 7 6 5 5 4 3 2 2
8 8 7 7 8 11 13 13 15 14 15 16 16 18 19 19 18 17 16 14 13 13 12 12 11 11 10 9 8 7 7 6 6 6 5 4 4 3 2 2 2 2 1 1
10 10 9 10 12 12 13 15 15 16 16 16 17 18 17 18 15 15 14 13 12 11 11 10 10 9 7 6 6 6 6 5 4 3 3 2 2 1 1 1 1 0 -1 -1
10 10 10 10 12 14 15 15 16 17 17 17 17 16 17 17 15 15 13 12 11 10 9 9 8 7 6 5 4 4 4 4 3 2 2 1 1 0 -0 -1 -2 -2 -3 -3
10 9 8 9 13 13 15 16 17 17 17 16 17 16 16 17 17 14 12 11 10 9 8 7 6 6 4 4 4 3 3 3 3 2 1 -0 -1 -1 -2 -4 -5 -5 -6 -5

GFSCGP_850_temp_087.txt.gz
Temp
15 13 14 14 13 15 15 15 14 15 17 17 16 15 16 14 14 11 10 10 10 10 9 10 9 10 9 10 10 9 10 10 9 9 9 10 10 10 10 11 11 11 11 13
14 13 16 15 14 14 14 14 14 15 17 16 15 15 16 12 13 12 10 11 12 10 9 9 8 9 9 9 9 10 9 9 9 8 9 9 10 10 9 10 10 11 12 12
14 15 16 15 15 15 14 14 14 14 16 16 17 15 17 15 14 13 11 12 14 14 10 9 9 9 9 9 9 9 9 9 8 8 8 9 9 9 9 10 10 11 11 11
13 16 15 15 15 15 14 16 16 16 15 15 17 14 15 15 13 12 11 11 12 14 14 10 10 10 9 9 8 9 10 9 8 8 8 9 9 8 9 10 11 11 11 12
13 14 15 15 15 16 16 17 16 15 15 15 16 14 14 14 13 12 11 11 12 13 15 14 13 11 11 10 10 10 10 10 9 9 9 9 9 8 9 10 10 11 11 11
14 16 15 16 17 16 17 16 16 14 14 13 15 14 13 13 15 15 13 12 12 13 13 15 14 11 12 12 11 11 11 11 10 9 9 9 10 10 10 10 10 11 11 10
14 14 15 17 15 16 15 15 12 12 13 12 14 13 14 16 16 16 14 13 13 13 13 13 14 14 13 12 12 11 11 11 10 10 9 10 10 10 10 10 11 11 11 12
13 13 15 15 15 15 14 14 12 14 11 13 14 13 15 16 18 18 19 18 14 12 15 15 15 14 14 14 14 12 12 12 12 11 10 10 11 11 11 12 12 12 12 13
12 12 16 16 17 16 15 14 16 14 13 12 13 14 16 16 17 18 16 15 15 14 15 16 16 16 16 15 15 15 13 13 12 12 11 11 11 11 11 12 12 12 12 12
13 13 15 16 16 16 17 16 15 12 13 12 13 14 14 16 19 18 15 15 15 15 15 15 16 16 16 16 15 14 13 13 12 11 11 11 11 11 11 11 11 12 12 12
10 11 13 16 14 14 15 16 15 15 12 14 12 12 14 15 16 18 17 17 17 16 16 17 17 17 16 15 14 14 14 13 13 12 11 11 11 11 11 11 12 12 12 12
9 10 11 13 15 16 16 16 16 13 14 12 11 13 16 15 15 16 18 20 18 17 19 18 18 17 15 15 14 14 13 13 13 13 12 12 12 12 12 12 12 11 11 11
7 8 9 13 14 16 15 15 16 14 12 12 12 13 16 16 15 18 18 20 22 21 17 18 17 16 16 16 14 14 14 14 13 13 13 13 12 12 13 13 12 12 12 10
7 7 9 11 13 14 15 16 16 15 12 13 13 15 16 16 15 17 19 20 20 21 21 21 19 18 19 18 17 16 16 16 14 14 13 13 13 13 13 13 12 12 11 11
6 7 10 12 14 16 16 15 15 15 14 14 15 15 16 15 16 17 21 22 21 20 20 20 20 21 20 19 19 18 18 17 16 15 14 14 14 13 13 12 12 12 12 11
6 7 7 11 12 15 16 16 15 14 15 14 15 15 16 17 18 17 19 20 20 22 22 20 21 21 21 21 20 20 19 19 18 16 15 14 13 12 12 12 11 11 10 11
5 6 7 9 13 13 12 13 15 16 15 16 14 15 17 15 15 16 19 19 21 20 21 21 22 21 21 21 20 20 19 18 16 15 14 14 13 13 12 11 10 10 10 10
6 6 5 7 10 10 13 14 15 15 16 15 16 17 16 16 19 20 20 21 21 20 20 21 22 21 21 20 19 19 18 17 17 15 15 14 13 13 10 10 10 10 9 9
8 7 6 7 9 10 13 13 14 14 14 16 16 17 17 18 17 18 20 21 22 22 21 20 20 20 20 19 19 18 17 16 15 14 13 11 10 10 10 9 10 9 9 9
8 8 7 6 8 8 11 14 15 14 12 15 16 16 15 15 14 14 19 20 20 19 19 19 19 18 17 17 17 16 14 13 12 11 11 10 10 9 8 9 8 8 8 7
6 6 7 7 7 7 9 11 13 10 11 14 17 16 16 14 15 19 19 19 19 19 18 18 17 16 15 14 14 13 12 11 10 10 9 9 8 8 7 7 7 7 6 5
6 6 6 6 5 6 12 12 13 11 14 16 17 19 17 20 20 19 17 18 18 17 16 15 15 13 12 11 11 10 10 9 9 8 7 7 6 6 6 6 6 5 4 4
6 7 7 7 7 9 12 14 15 14 14 15 14 17 18 19 17 16 16 16 15 15 14 12 12 11 9 9 8 8 7 7 7 6 6 6 6 4 4 4 4 3 2 1
8 9 8 8 10 9 12 13 14 13 15 15 16 14 16 16 14 13 13 13 13 12 11 10 10 9 8 7 6 6 5 5 5 5 4 4 3 3 2 2 1 1 0 -0
8 8 9 8 10 11 13 14 15 15 15 15 15 16 16 17 14 14 13 12 12 11 10 9 8 8 7 5 5 4 4 4 4 4 3 3 2 2 1 1 -1 -2 -3 -3
9 9 7 8 11 11 12 15 14 14 14 14 15 15 16 15 14 13 11 10 10 9 7 7 6 6 5 4 5 4 3 3 4 3 2 1 0 -1 -2 -3 -3 -3 -3 -3

GFSCGP_850_temp_090.txt.gz
Temp
13 11 11 14 12 14 14 13 13 13 15 16 14 13 14 14 13 11 11 10 9 10 9 9 10 10 10 10 10 10 10 10 10 9 9 9 9 10 10 11 11 11 11 11
12 12 14 13 13 13 14 13 13 13 15 15 14 14 15 13 12 13 11 10 10 9 9 9 10 10 10 10 9 9 9 9 9 9 9 8 9 10 10 11 11 11 11 11
13 14 14 14 13 13 13 13 13 13 14 14 14 13 15 15 13 14 13 12 11 12 10 9 9 9 9 9 9 9 9 10 9 9 9 8 9 9 10 10 10 10 9 10
12 14 14 14 14 14 13 14 14 14 13 12 15 12 14 16 14 12 12 12 11 11 11 11 9 9 9 9 9 9 9 9 9 9 9 8 9 9 10 10 10 9 10 11
12 13 13 14 14 14 14 15 14 14 13 13 14 12 13 14 15 14 11 13 12 13 14 14 12 9 10 9 9 9 9 9 9 9 8 9 9 10 10 10 10 10 10 11
13 15 14 14 15 14 15 15 15 14 12 11 13 13 12 14 15 15 14 14 15 13 13 14 14 13 11 9 9 8 8 8 8 8 8 9 9 10 9 10 9 10 10 11
13 13 14 16 14 14 14 13 11 11 11 11 13 12 14 15 15 15 15 16 16 15 14 14 13 13 12 12 11 10 9 9 8 8 8 9 9 9 9 9 9 10 10 10
11 12 13 14 15 14 14 13 10 13 11 13 13 12 14 15 16 17 19 17 17 14 15 16 15 15 14 13 13 13 13 11 10 9 9 9 9 9 9 10 10 10 10 10
11 11 14 15 16 16 13 12 14 13 12 11 12 13 15 16 17 15 16 15 16 15 16 17 16 15 15 15 15 14 14 13 13 11 10 10 10 10 11 10 10 10 10 10
9 9 13 15 15 15 15 14 14 11 12 12 12 13 14 16 16 16 16 13 15 15 16 17 17 17 16 16 15 14 14 15 15 13 13 12 11 11 10 10 10 10 10 11
7 9 10 13 13 13 13 14 14 14 11 12 12 12 12 15 16 16 15 17 16 16 18 19 19 18 16 16 15 15 14 14 13 13 13 13 13 12 12 12 12 12 12 12
6 6 8 11 13 14 15 14 15 13 12 10 11 14 15 14 14 14 16 19 19 19 19 19 17 16 16 16 15 15 14 14 14 14 14 14 13 12 12 12 12 11 12 11
8 6 7 10 12 13 13 13 14 13 12 13 12 13 15 13 15 17 16 19 20 20 20 19 18 19 18 17 17 16 15 16 15 14 14 14 14 12 13 12 12 12 12 12
8 7 7 8 8 9 10 13 14 14 11 13 13 14 15 16 16 16 17 19 21 21 21 21 20 20 20 19 19 19 18 17 16 15 15 15 15 15 14 13 12 12 12 11
7 5 7 8 8 7 8 12 14 14 13 13 14 14 14 15 15 16 19 20 20 20 21 21 22 22 21 20 20 20 19 19 17 15 14 15 14 13 13 12 12 12 11 11
5 5 7 6 8 9 9 12 13 13 13 13 13 13 14 16 16 16 18 20 20 19 22 22 22 21 21 21 21 20 20 19 17 15 15 14 12 12 12 12 11 10 10 10
5 5 6 7 8 7 8 11 13 13 13 13 12 13 15 15 14 14 18 19 20 21 22 22 22 22 22 21 20 19 18 17 15 15 14 13 12 12 11 11 10 10 10 10
5 5 5 6 7 8 10 13 14 13 14 13 14 15 14 15 17 18 19 19 20 21 21 21 21 21 21 19 18 18 17 15 14 13 12 11 11 10 10 10 9 9 9 9
5 6 5 7 8 7 9 12 13 13 13 13 14 13 14 16 16 16 19 20 20 21 20 19 20 20 19 19 18 17 16 14 13 11 10 10 9 9 9 9 9 9 9 9
6 7 5 6 7 8 9 10 11 14 10 13 13 13 13 14 14 14 18 17 18 19 18 19 18 18 18 18 17 15 13 11 10 9 9 8 8 8 8 8 8 7 8 8
5 6 6 6 7 7 9 9 10 10 10 13 13 14 14 14 16 18 17 16 17 15 17 17 16 17 16 15 15 13 10 9 9 9 9 8 8 8 8 7 7 7 7 6
4 6 6 6 7 8 10 9 8 10 12 12 14 14 14 16 16 15 16 15 15 15 14 14 15 14 12 11 11 10 9 8 8 8 8 7 7 7 6 6 6 5 5 4
5 6 6 6 7 9 11 12 13 12 12 12 14 14 15 15 16 16 15 14 12 12 13 12 13 11 9 8 8 8 7 7 7 7 6 6 6 6 6 5 4 4 3 2
6 8 6 7 9 9 10 11 13 13 14 14 13 14 14 13 12 11 11 9 9 9 10 9 10 9 7 6 5 5 5 5 5 6 6 5 5 4 3 2 1 1 -0 -1
5 7 7 7 9 10 12 14 13 13 13 13 12 13 12 11 8 9 8 9 8 8 8 8 6 7 5 4 4 4 4 4 5 4 3 2 1 0 0 -0 -2 -2 -3 -3
6 7 5 6 9 9 10 12 12 13 13 14 13 12 13 11 10 10 6 6 8 6 6 7 4 4 3 4 3 3 2 3 3 3 1 -0 -1 -2 -2 -3 -3 -3 -4 -4

GFSCGP_850_temp_093.txt.gz
Temp
12 13 13 15 15 15 15 15 16 16 16 17 18 17 18 19 15 14 13 12 11 10 10 9 9 10 10 10 10 10 10 10 10 10 10 10 10 9 9 10 10 10 11 12
12 13 14 15 14 15 15 16 16 16 16 16 17 17 19 18 18 16 14 12 12 10 9 9 9 9 10 10 10 10 10 10 10 10 10 10 10 10 11 10 10 11 11 12
14 14 15 14 14 14 15 15 15 16 16 16 16 17 18 18 15 14 13 13 12 12 10 9 8 9 9 9 9 10 9 9 10 10 10 10 9 10 10 10 11 10 11 11
13 15 14 14 14 15 14 15 15 15 15 15 16 16 17 19 19 17 14 12 11 12 12 11 9 10 9 9 10 9 9 9 10 9 9 10 9 9 10 10 11 11 11 11
13 14 14 14 14 15 15 15 15 16 15 15 16 16 17 16 18 20 19 13 11 14 13 12 11 12 9 9 9 9 9 9 9 9 9 9 9 9 10 10 10 11 11 10
13 14 14 15 15 15 15 15 15 14 14 14 15 16 18 18 19 20 18 15 13 14 13 13 11 9 11 9 9 9 9 9 9 9 9 9 10 9 10 10 10 11 11 10
13 13 14 15 15 14 15 15 14 13 13 15 15 15 18 18 18 19 20 19 16 15 13 14 13 11 11 10 9 9 9 8 9 9 9 9 9 10 10 10 10 11 10 10
12 12 14 14 16 15 14 15 14 14 14 16 13 15 18 18 19 17 17 17 16 15 15 15 15 14 15 14 12 11 11 9 9 8 8 8 8 9 10 10 10 10 10 10
10 12 14 15 16 17 14 14 16 15 13 14 16 15 17 18 19 18 18 17 15 15 16 16 15 15 16 16 15 13 12 11 10 10 9 9 9 8 9 9 10 9 10 9
9 9 13 14 15 16 15 15 14 13 14 14 15 15 18 18 20 20 19 18 16 15 14 15 16 16 16 16 16 15 14 13 13 11 10 10 10 9 9 9 9 9 9 9
9 9 11 13 14 15 14 15 15 15 13 15 15 16 16 18 20 19 20 17 18 16 16 17 16 16 15 16 16 16 15 15 14 13 12 11 11 11 10 11 11 11 10 10
8 8 8 11 13 13 15 14 15 14 14 13 14 16 17 17 18 16 17 18 19 19 17 18 17 15 15 15 16 16 15 15 15 14 14 13 13 13 13 12 13 12 12 11
8 7 8 11 12 12 11 12 12 14 13 14 13 15 16 15 16 17 17 20 19 19 18 18 18 17 16 16 16 16 16 16 15 14 14 14 14 14 14 14 13 13 13 13
7 7 8 9 9 9 9 10 10 9 11 14 14 16 17 18 17 18 18 20 20 19 19 19 19 19 18 17 17 18 17 16 15 15 15 14 14 14 14 13 13 13 13 12
7 6 7 8 9 9 10 9 10 10 10 12 15 15 17 19 19 20 19 20 19 19 19 21 21 21 20 19 19 20 19 18 16 15 14 14 14 13 13 12 11 11 11 11
3 6 6 7 8 9 9 10 11 10 11 12 14 16 16 17 17 16 17 17 19 21 21 22 22 22 21 21 21 20 20 18 16 15 15 13 13 13 12 12 12 11 11 10
4 4 5 7 9 9 9 10 10 12 13 14 14 16 16 16 16 16 17 17 17 20 21 21 22 22 22 22 21 19 18 17 16 15 14 13 12 12 12 11 11 10 10 10
4 5 4 6 6 8 12 11 12 11 13 15 16 16 16 17 18 18 18 19 19 20 20 21 21 20 20 20 20 19 17 16 15 14 13 12 12 11 11 10 10 9 9 9
4 4 5 6 7 10 11 10 10 9 10 14 15 16 17 17 15 16 18 19 19 18 18 19 19 19 19 18 18 17 16 15 14 13 12 11 10 9 9 9 9 9 9 9
5 5 5 6 6 8 11 11 9 11 11 12 13 14 14 15 15 18 16 17 17 14 17 17 16 15 16 15 15 15 14 11 9 9 9 9 9 8 8 8 8 8 8 7
3 3 4 5 6 8 10 10 11 9 10 9 11 12 12 14 15 15 14 14 13 10 11 12 12 11 9 11 11 10 9 9 9 8 8 8 8 8 7 7 7 6 6 6
6 5 5 5 5 6 9 9 10 8 8 10 10 11 11 13 13 11 10 12 10 7 7 8 8 8 8 8 8 8 8 7 8 7 7 7 6 6 6 5 5 5 4 4
6 8 7 5 6 7 9 9 11 10 11 10 11 11 12 10 10 13 11 9 7 7 6 6 7 7 7 7 8 8 6 6 6 6 6 5 5 5 4 4 3 3 2 1
7 7 7 7 9 9 9 10 10 10 10 12 11 11 11 9 7 8 9 8 7 6 6 7 7 7 6 6 5 5 5 5 5 5 5 3 3 2 2 1 1 -0 -1 -2
8 7 7 7 8 9 10 9 9 11 11 12 11 12 11 10 7 6 5 6 7 6 5 6 6 5 4 4 4 4 4 4 5 3 1 1 1 0 -0 -1 -2 -2 -3 -4
7 8 7 7 9 8 9 9 10 9 9 10 12 10 9 11 9 7 6 3 3 5 4 4 3 3 3 4 3 2 2 3 3 2 1 -1 -1 -2 -2 -3 -4 -5 -5 -5

GFSCGP_850_temp_099.txt.gz
Temp
16 17 18 19 20 19 20 22 23 24 25 24 24 24 25 26 26 26 26 25 25 24 22 19 16 13 11 10 11 12 10 10 11 10 10 10 11 10 11 11 11 11 10 9
18 17 19 20 20 19 19 20 21 23 24 24 23 23 24 25 26 26 26 26 25 24 21 18 15 13 10 10 11 12 10 10 10 10 10 10 10 10 10 11 11 11 10 9
17 20 20 17 18 19 19 19 20 21 22 24 23 22 23 25 25 25 25 25 24 24 22 19 16 14 11 10 10 12 11 10 10 10 10 10 10 10 10 11 11 10 10 9
18 19 19 18 18 19 19 20 20 20 20 20 23 21 24 25 26 26 25 25 24 24 23 20 17 14 12 10 10 10 11 10 10 10 10 10 10 10 10 10 10 10 9 8
17 17 17 18 18 18 18 20 19 19 20 20 21 21 23 24 24 25 26 25 25 24 23 20 18 15 13 11 10 10 10 10 10 10 10 10 10 11 11 10 10 9 9 9
17 18 17 17 19 19 19 19 19 19 19 18 20 21 22 24 25 26 26 26 25 24 22 20 18 16 13 11 11 10 10 10 10 10 10 11 11 10 10 10 9 9 9 9
17 17 18 16 16 18 17 17 16 17 18 18 22 21 22 24 26 26 26 25 24 23 22 20 18 17 14 11 10 10 10 10 10 10 10 10 10 10 10 9 9 9 9 9
16 17 18 17 16 17 17 16 16 16 18 19 22 21 23 25 25 25 25 24 24 23 21 20 19 17 16 12 11 9 9 9 10 10 9 9 9 9 9 9 9 9 9 9
15 16 18 17 17 17 18 16 19 17 18 16 18 21 23 23 23 25 25 24 24 23 22 20 19 18 16 14 12 11 10 10 9 9 9 9 9 9 9 9 10 9 9 10
14 13 17 17 17 17 17 19 17 18 14 16 19 20 21 23 22 24 25 25 25 24 22 21 20 18 17 15 13 11 12 11 10 9 9 9 9 9 9 9 10 10 9 9
14 13 16 16 16 17 15 16 17 19 18 17 17 19 23 24 22 23 25 24 25 24 23 21 20 19 17 15 14 12 12 12 11 10 9 9 9 9 9 10 10 10 9 9
13 12 12 15 18 17 17 18 18 16 16 18 18 19 23 23 23 22 24 24 24 23 23 22 21 19 18 16 15 13 12 13 12 11 10 9 9 9 9 9 9 10 10 10
11 12 12 14 16 17 15 17 18 18 18 17 17 18 23 23 23 23 21 23 23 22 22 21 20 20 18 17 15 14 12 12 12 12 11 11 10 10 10 10 9 9 9 9
9 10 12 13 13 11 14 15 16 16 15 16 18 19 21 22 22 22 22 22 22 23 22 21 21 20 19 17 16 15 13 12 12 12 11 11 11 10 10 10 10 10 9 9
10 9 11 13 13 14 13 14 15 15 16 15 17 18 20 21 21 22 21 21 21 23 23 22 21 20 19 18 17 16 14 12 12 12 12 11 11 11 10 10 10 9 9 9
11 9 11 11 13 13 13 14 15 15 16 17 17 17 20 20 19 20 20 21 21 22 23 23 22 21 20 19 18 17 16 14 13 12 12 12 11 11 10 10 10 9 9 9
6 8 9 9 12 13 12 14 15 16 17 17 16 18 20 19 20 20 19 20 21 22 22 22 22 22 21 19 18 17 16 15 14 13 13 12 12 11 11 10 10 9 9 9
6 7 7 8 10 9 14 17 17 16 17 17 18 19 19 19 19 20 20 20 21 22 22 22 21 21 20 19 18 17 16 15 14 13 13 13 12 12 11 11 10 9 9 9
8 7 7 7 9 12 13 15 15 15 15 18 18 17 16 17 18 20 21 21 21 20 18 18 18 19 18 18 18 16 16 14 13 13 13 12 12 11 11 10 9 9 9 8
9 8 7 7 8 9 13 14 11 14 12 14 14 13 13 14 15 19 19 20 16 15 15 15 15 14 14 15 15 15 15 13 12 12 10 10 10 9 9 9 9 8 8 8
8 6 6 7 7 10 13 14 12 11 10 10 11 13 12 12 12 13 13 11 12 12 11 10 11 11 10 11 11 12 11 10 9 9 9 9 9 9 8 8 7 6 6 5
7 6 6 7 6 7 13 12 10 9 8 9 11 12 12 10 9 10 8 7 7 7 7 7 6 7 8 8 7 8 8 8 8 8 8 7 7 7 6 5 4 4 3 3
7 10 8 9 10 12 12 10 8 6 6 8 10 10 10 8 8 7 5 5 4 5 5 5 5 5 6 6 7 7 5 5 6 8 6 5 4 4 4 4 2 2 1 1
10 12 11 11 12 12 11 9 8 6 6 7 9 10 9 8 7 6 5 3 2 2 3 4 4 4 4 4 4 5 3 4 5 5 4 2 3 2 2 2 0 -0 -1 -2
10 10 10 11 12 12 11 11 8 7 9 10 9 7 8 8 7 6 4 3 2 1 1 3 3 2 1 2 3 2 3 3 3 3 2 0 1 0 -1 -1 -1 -2 -3 -3
10 10 10 10 11 10 11 11 10 10 10 10 8 8 7 7 5 3 3 2 1 2 -1 2 2 1 0 0 1 1 0 3 3 2 0 -0 -1 -1 -1 -2 -4 -5 -5 -5

GFSCGP_850_temp_102.txt.gz
Temp
17 17 17 18 19 20 20 19 19 19 20 21 24 25 25 26 26 26 26 26 26 26 24 20 18 16 14 12 12 12 12 12 12 12 10 11 11 11 11 11 11 11 11 11
18 17 19 20 21 20 20 19 18 19 20 20 22 23 25 25 25 25 26 26 26 26 23 19 17 15 13 12 11 12 12 12 12 11 10 10 10 10 11 11 11 11 10 11
18 19 21 19 19 19 19 19 18 17 18 20 21 22 23 25 25 25 25 26 26 26 23 19 16 15 13 11 11 12 12 12 12 13 11 10 11 10 10 10 11 11 10 10
18 20 20 19 19 19 17 19 19 19 18 17 20 19 22 24 25 26 26 26 25 25 25 20 17 15 13 11 11 11 11 12 12 12 11 10 10 11 10 10 10 10 10 10
17 18 18 18 19 20 19 20 18 18 18 18 19 19 21 23 24 25 26 26 26 25 25 21 18 16 14 11 11 10 11 11 12 11 10 10 10 11 11 11 10 11 10 10
17 19 19 19 19 19 20 18 18 18 18 16 18 19 20 22 23 24 26 27 26 26 24 22 19 16 14 12 11 10 10 11 12 11 11 10 10 10 10 10 10 10 10 10
18 18 19 19 18 18 18 17 15 14 15 15 19 19 21 23 24 25 26 26 25 25 23 22 19 17 14 12 11 11 9 10 11 11 11 10 10 10 10 10 10 9 9 9
15 16 19 19 18 17 17 17 14 12 14 15 15 15 21 24 25 25 26 26 25 24 23 21 19 17 15 12 10 11 10 10 10 11 11 11 10 10 10 11 10 10 9 10
14 16 19 19 19 18 16 16 17 15 16 14 14 18 22 24 24 24 25 26 25 24 23 21 20 18 16 13 12 10 10 10 10 10 11 10 10 10 10 10 10 9 9 9
14 13 17 18 18 18 17 18 15 16 12 12 16 17 18 19 21 23 24 25 25 24 23 22 20 18 17 14 12 12 10 10 10 9 10 10 9 9 10 9 10 10 10 9
13 13 14 16 16 17 16 15 16 16 15 14 14 17 20 20 21 22 22 24 24 25 23 22 21 19 17 15 13 12 11 11 10 9 10 10 9 9 9 9 10 10 10 10
12 11 12 14 15 16 15 16 16 14 15 16 16 17 21 19 20 21 21 22 23 23 24 23 21 19 18 16 14 13 12 12 11 10 11 10 10 10 10 9 10 10 10 10
11 11 10 12 15 17 16 17 17 17 16 15 14 15 20 20 19 21 22 22 22 23 23 23 22 20 18 16 15 13 12 12 12 11 10 10 9 10 10 10 9 10 10 10
9 10 10 10 13 12 11 13 14 16 10 14 16 17 19 18 19 20 22 22 22 22 23 22 22 21 19 17 16 14 13 13 12 12 11 10 10 10 10 10 10 10 10 10
10 8 10 11 12 13 13 13 13 13 15 12 15 16 18 18 17 20 20 20 21 21 22 22 22 21 20 18 16 15 14 13 13 13 12 11 11 10 10 10 10 10 10 10
11 8 9 9 12 13 13 13 13 14 15 15 16 16 19 20 20 20 20 20 20 20 21 22 23 22 21 19 17 16 15 14 13 13 12 12 11 11 10 10 10 10 10 10
7 8 9 8 11 12 11 13 14 14 15 16 15 17 18 18 19 20 19 19 20 20 20 20 22 22 21 20 19 17 16 15 14 12 12 12 11 11 11 10 10 10 10 10
6 5 7 7 9 8 12 15 16 16 16 17 17 17 18 19 19 18 18 20 20 20 20 21 21 21 18 20 19 18 17 15 14 13 12 12 12 11 11 11 10 10 10 9
9 8 6 6 8 11 13 15 14 12 13 12 11 13 15 15 15 17 14 14 15 17 20 18 20 20 20 20 19 18 17 16 14 13 13 13 12 12 12 11 10 10 10 9
9 9 7 7 7 8 12 13 14 14 11 11 11 10 12 14 12 15 12 12 12 12 13 15 16 18 18 18 18 17 16 15 14 14 14 13 13 12 11 11 10 9 8 8
7 7 6 6 6 9 13 14 14 10 9 8 10 11 11 11 13 11 9 9 9 8 10 10 12 14 16 16 16 17 15 15 13 12 12 12 11 11 9 9 8 7 7 6
6 5 5 7 6 7 12 12 10 9 10 9 9 10 10 10 10 9 9 6 6 7 7 7 7 10 11 11 13 14 11 8 9 9 9 9 9 10 9 7 5 4 3 2
5 9 7 9 9 11 11 11 9 9 9 9 9 9 9 9 9 7 8 7 5 5 5 5 6 5 6 7 8 9 7 8 8 8 8 7 6 5 4 5 2 1 1 -0
9 8 8 7 10 9 9 11 9 9 8 8 9 9 9 7 8 8 6 4 3 3 3 3 3 4 4 4 5 6 5 5 6 7 5 3 2 0 -0 1 -0 -1 -2 -2
7 10 10 10 10 10 10 10 9 9 9 9 9 8 8 7 7 6 3 2 1 1 1 1 1 1 1 1 1 2 2 3 3 3 1 1 1 1 -1 -1 -2 -2 -3 -3
9 10 9 8 8 8 8 10 11 10 10 9 8 8 5 4 3 3 2 1 -0 -0 -0 -0 -1 -1 -1 -0 -0 -1 -0 2 2 1 0 -0 -2 -1 -2 -2 -3 -4 -4 -5

GFSCGP_850_temp_105.txt.gz
Temp
15 12 11 12 13 15 15 15 15 17 18 18 17 17 18 19 21 21 23 24 25 25 23 21 20 19 18 17 15 14 12 11 11 11 11 11 11 11 12 12 12 12 12 12
13 13 14 15 15 15 15 15 16 17 18 18 16 16 16 17 19 20 23 24 24 24 21 20 19 19 18 17 16 14 11 11 11 11 12 12 12 11 11 12 12 12 12 12
13 15 17 17 16 16 16 16 15 16 17 17 16 15 16 18 20 22 24 25 25 24 20 19 18 18 17 17 16 14 11 12 11 10 11 11 11 10 10 11 11 11 12 11
13 16 16 16 16 17 15 17 17 17 15 14 16 14 14 16 18 20 23 24 24 24 20 19 18 17 18 17 16 14 11 12 11 10 10 10 10 11 10 11 11 11 10 11
14 16 15 15 16 16 16 16 16 16 14 14 15 15 15 18 19 21 21 22 24 25 20 19 19 19 18 16 17 14 11 11 11 10 10 10 11 11 11 10 10 10 11 10
14 16 15 15 17 17 17 16 15 16 14 12 15 15 15 17 19 20 22 23 24 24 20 19 18 18 17 15 16 12 11 10 11 10 10 10 10 10 11 10 10 10 10 10
14 14 16 16 15 15 16 14 11 11 11 12 16 16 16 17 20 21 22 23 24 24 19 17 17 17 16 16 17 12 11 10 10 10 10 10 10 10 11 11 10 10 10 10
13 12 15 17 15 15 13 12 10 11 10 12 15 13 15 19 20 21 23 24 22 20 18 18 18 17 17 17 16 13 10 10 10 10 11 10 10 10 10 10 10 10 10 10
11 13 14 16 16 16 14 13 14 13 13 12 13 14 17 17 17 19 22 24 22 19 18 18 17 17 17 17 17 15 11 9 10 10 10 10 10 10 10 11 10 10 11 10
12 10 14 15 15 15 14 15 12 13 11 10 13 14 15 15 14 16 19 20 21 22 19 19 19 18 18 18 16 15 11 9 10 11 10 10 10 10 10 10 10 10 10 10
10 10 10 13 14 11 10 12 13 13 12 10 10 12 16 13 13 14 17 21 21 21 20 20 20 19 18 17 16 15 13 10 10 10 10 10 10 10 10 10 10 10 10 10
11 9 7 10 12 11 10 9 11 11 11 12 12 12 17 16 16 14 16 18 19 21 20 20 19 19 17 17 16 15 13 12 11 10 9 10 10 10 9 9 10 10 10 9
10 8 6 9 11 13 11 11 10 8 12 12 11 12 17 17 13 14 15 16 17 20 19 19 18 18 18 17 16 15 14 12 11 11 9 9 9 10 10 10 9 10 9 9
9 8 7 6 8 9 9 11 12 6 8 9 10 12 15 16 13 12 14 15 18 19 20 18 17 17 18 17 17 15 14 12 12 12 11 9 10 10 10 10 10 9 10 10
8 6 7 8 9 9 9 10 11 11 12 9 10 9 12 15 14 14 14 17 19 20 20 20 18 16 17 16 16 16 15 12 12 12 12 11 10 10 10 10 10 10 10 10
8 6 7 7 8 9 8 10 11 12 12 12 13 13 15 17 17 17 17 18 19 19 19 20 18 18 16 17 17 16 16 14 12 12 12 12 11 10 10 10 10 9 9 9
5 6 5 5 7 8 7 9 10 11 13 13 12 13 15 16 17 13 13 13 13 13 15 18 20 18 16 15 17 17 16 15 13 12 12 11 11 11 10 10 10 10 10 10
4 4 3 4 5 5 8 11 12 12 13 13 11 10 11 11 13 11 11 11 11 12 13 13 15 19 19 18 16 17 16 15 14 13 12 11 11 11 10 10 10 10 10 10
6 5 4 4 5 6 9 11 12 12 11 9 10 9 10 10 13 10 10 10 10 11 11 12 12 16 18 17 17 14 15 15 14 13 12 12 11 11 10 10 10 10 9 9
6 5 4 3 4 4 9 10 11 11 8 8 9 8 9 10 8 10 9 9 10 10 11 12 13 13 15 18 17 15 15 14 13 13 12 12 11 11 11 11 10 9 8 8
5 4 4 3 3 5 9 11 12 8 7 8 8 9 9 7 8 9 8 8 8 8 9 10 11 11 12 11 14 15 15 14 12 12 12 12 12 11 11 10 9 8 8 7
4 3 3 3 2 4 9 11 9 7 8 9 9 8 9 9 9 8 7 7 6 6 7 7 7 8 9 10 10 13 13 12 11 10 10 10 10 10 9 9 7 7 6 5
4 5 4 4 4 7 7 7 8 8 8 8 8 8 8 8 8 8 6 5 4 4 5 5 5 5 5 6 7 9 7 7 8 8 7 7 6 6 5 5 3 1 1 1
3 4 4 5 6 7 7 8 8 9 9 9 9 9 8 7 6 6 6 5 4 3 3 3 3 3 4 4 5 6 6 6 6 6 5 3 3 2 1 0 -0 -1 -2 -2
5 4 3 4 5 7 6 8 9 9 9 9 9 8 8 6 5 5 4 3 2 1 1 0 1 1 1 1 2 3 3 3 4 4 1 1 -0 -0 -1 -1 -3 -2 -3 -3
7 6 5 4 5 4 6 9 9 9 9 8 9 7 9 5 4 3 2 1 -0 -0 -1 -1 -2 -1 -1 -1 -1 -2 -1 0 1 0 -1 -2 -2 -2 -3 -3 -6 -6 -6 -5

GFSCGP_850_temp_108.txt.gz
Temp
14 11 10 13 11 14 13 13 12 13 15 15 14 14 15 16 17 17 18 18 18 21 23 21 21 20 19 18 17 16 15 14 12 12 11 11 11 11 11 11 11 12 11 11
12 11 13 13 12 12 12 12 12 14 15 15 14 15 17 15 16 17 17 18 19 20 20 21 20 19 19 19 17 16 15 14 13 12 11 11 11 11 11 11 11 11 12 12
12 13 15 13 13 13 13 12 12 13 15 15 15 14 15 16 16 17 17 18 19 20 19 19 18 18 19 18 17 16 15 15 13 12 11 11 11 11 11 11 11 11 11 12
12 14 14 14 13 14 13 15 14 14 14 14 14 13 15 16 16 16 17 19 20 20 20 20 18 18 19 18 16 15 15 15 13 12 11 11 11 11 11 11 11 11 12 12
12 14 12 13 14 14 14 14 14 14 13 13 14 11 15 15 16 17 18 19 20 21 20 19 20 19 19 18 16 15 15 15 13 12 10 10 10 10 10 11 11 10 10 11
12 14 14 13 15 14 15 14 14 14 12 11 14 12 14 13 15 18 19 20 20 20 21 19 17 18 18 16 15 14 14 14 12 11 10 10 10 9 10 10 10 11 11 11
13 13 13 14 13 14 13 12 10 10 10 12 14 13 14 15 16 17 18 19 19 19 21 17 16 18 17 16 15 14 13 12 10 10 10 10 10 10 10 10 10 10 10 10
11 11 13 15 13 13 11 12 10 11 10 12 14 12 13 16 16 15 16 16 19 22 20 18 17 18 17 16 14 14 13 12 10 10 10 10 10 10 10 11 10 10 10 10
10 11 13 14 14 14 13 11 13 11 11 10 11 13 15 16 13 14 14 15 16 17 18 15 15 17 17 15 16 15 14 12 10 10 10 10 11 11 11 10 10 10 10 10
11 10 11 13 14 12 13 12 12 10 10 10 11 11 12 13 12 13 13 13 14 17 15 13 17 18 17 16 16 14 14 14 13 10 9 10 10 10 11 10 10 10 10 10
9 9 9 11 11 10 9 10 9 10 10 11 10 10 11 11 11 11 10 12 13 14 16 15 14 17 17 16 16 16 14 13 13 9 10 10 10 10 10 11 10 10 10 10
9 8 7 8 10 11 11 9 9 7 8 8 10 11 15 12 13 11 9 10 13 16 17 17 15 12 17 17 16 16 15 13 14 14 10 10 10 10 10 10 10 10 10 10
9 7 6 8 9 9 8 10 10 8 6 8 7 10 13 14 12 10 9 9 13 13 14 17 16 14 12 17 16 16 16 15 15 15 12 10 9 10 9 9 10 10 10 10
9 7 7 6 7 7 7 9 9 7 5 6 7 9 11 12 13 11 10 10 12 12 14 16 15 14 13 11 16 16 16 15 15 14 12 12 10 10 10 10 10 10 9 9
7 6 6 7 7 7 7 7 8 8 9 7 9 10 12 12 13 12 11 10 12 12 15 16 15 15 13 13 12 14 16 16 14 13 13 11 10 10 10 10 10 10 10 10
5 5 6 6 7 7 6 7 7 8 9 10 11 11 14 13 14 13 13 12 13 11 10 12 14 15 16 14 14 12 11 15 15 13 13 11 11 9 10 9 9 9 9 9
4 4 4 5 6 6 5 7 7 8 10 10 9 11 10 10 13 11 11 10 9 9 9 10 11 11 13 16 17 14 12 11 13 14 13 12 11 10 10 9 9 9 8 8
3 4 3 3 5 3 7 9 9 9 10 11 10 9 9 10 9 9 9 9 8 8 8 9 11 12 12 15 14 14 13 12 11 12 13 12 11 10 9 9 9 9 9 9
4 3 0 1 3 6 7 9 8 7 9 8 8 8 9 9 9 8 8 8 8 8 8 8 9 11 13 14 13 17 14 13 11 10 11 12 12 10 9 9 9 9 9 9
4 4 3 1 2 4 7 8 10 9 7 7 8 8 8 8 7 7 7 7 8 8 8 8 8 9 12 12 12 12 13 15 12 11 10 10 11 11 10 9 9 9 9 9
3 3 2 3 1 3 7 9 9 6 7 7 8 8 7 7 7 8 7 7 7 6 7 7 7 7 10 12 11 11 12 12 11 11 11 10 10 11 10 10 9 9 8 8
3 3 2 3 1 3 7 6 8 6 8 8 8 8 7 7 7 6 6 5 5 5 6 6 6 5 5 8 10 10 10 9 9 9 10 10 10 10 10 9 9 8 7 6
3 3 3 2 3 6 6 6 7 8 8 8 8 8 8 7 6 5 3 4 4 4 4 4 5 5 4 5 6 7 7 7 7 8 8 8 8 8 8 8 6 5 4 4
2 2 3 5 4 4 5 7 7 8 8 9 8 8 8 7 5 4 3 3 2 2 2 1 3 3 4 3 4 4 5 5 6 5 5 4 4 3 2 2 -1 -1 -2 -2
2 2 3 3 2 3 5 5 8 8 9 8 8 7 6 5 5 2 1 2 1 0 1 0 1 1 0 1 2 3 2 2 3 3 2 2 1 0 -1 -2 -3 -4 -5 -4
5 4 3 3 3 4 5 7 8 8 7 7 7 5 5 3 5 2 1 -0 -1 -1 -1 -1 -1 -1 -2 -1 -1 -1 -0 -0 0 -1 -2 -3 -3 -4 -4 -4 -5 -4 -4 -4

GFSCGP_850_temp_111.txt.gz
Temp
13 11 9 11 13 14 13 12 11 12 13 14 13 13 14 15 15 14 17 18 18 19 20 20 20 22 18 19 18 17 16 15 14 13 12 12 12 12 11 11 11 10 10 10
11 10 11 13 12 11 11 11 11 12 13 12 12 13 15 13 14 16 17 18 18 18 18 19 20 19 21 18 17 16 16 15 14 13 12 12 12 12 11 11 11 11 11 11
11 12 13 12 12 11 11 11 11 11 13 13 12 13 14 14 14 16 17 18 18 18 17 20 19 18 18 18 17 17 17 16 14 12 12 11 11 11 11 11 11 11 11 11
11 12 13 12 12 12 11 12 12 12 11 11 13 13 15 14 14 15 16 17 17 18 19 20 19 18 19 17 18 17 17 16 14 12 11 12 12 11 11 11 11 11 11 11
11 13 11 12 12 13 13 13 12 12 12 12 12 10 14 13 15 15 15 17 18 18 20 20 20 20 19 16 17 17 17 16 14 12 11 11 11 11 11 11 11 11 10 11
11 13 13 13 14 13 14 13 13 12 10 10 13 11 14 12 14 15 16 17 16 15 17 19 19 17 17 15 15 16 16 16 13 11 11 11 12 11 11 11 11 11 11 11
12 12 12 13 12 13 12 11 9 9 9 11 12 11 13 13 14 14 13 14 14 14 15 18 19 18 17 16 15 15 16 15 12 11 10 11 11 10 11 10 10 11 11 11
10 10 12 13 12 12 10 10 9 10 9 11 12 10 12 15 14 13 13 13 13 12 14 15 16 19 17 16 15 15 16 15 11 10 10 9 10 10 10 9 10 10 10 10
10 11 13 13 13 13 12 10 12 10 10 10 10 11 13 13 12 12 12 11 11 11 11 13 14 13 15 16 16 15 16 15 11 10 10 10 10 10 10 10 10 11 10 10
10 8 11 12 12 11 11 11 10 8 9 10 10 10 10 12 11 11 10 10 10 12 10 11 13 12 12 14 16 15 15 15 12 10 10 9 10 9 10 10 10 10 10 10
8 8 9 11 9 9 9 8 7 8 8 9 9 9 11 11 11 9 9 9 8 10 10 10 12 12 11 12 12 15 14 14 12 11 10 10 9 10 9 10 10 10 10 10
8 7 7 8 9 10 9 7 7 7 7 7 7 7 10 10 10 10 9 10 9 9 10 11 12 13 12 11 10 12 13 13 12 12 11 10 10 10 9 10 10 10 9 10
7 7 6 8 7 7 8 9 9 7 6 7 7 8 11 11 11 10 9 10 10 9 10 11 13 12 13 13 10 10 10 11 12 12 11 9 9 10 10 10 9 10 10 9
8 6 7 6 7 7 7 7 8 7 4 7 7 7 9 10 11 11 10 10 9 9 9 10 13 13 13 13 13 12 10 10 10 12 12 10 9 10 10 9 9 9 9 9
5 5 6 6 6 7 6 6 6 6 6 5 7 7 9 10 11 11 12 11 9 8 9 9 10 11 11 12 12 11 12 10 9 10 11 10 10 10 10 9 9 9 9 9
4 4 5 5 6 6 5 6 6 6 6 7 7 7 10 11 11 12 12 11 9 8 8 8 10 10 11 10 10 11 12 12 10 10 10 9 10 10 10 10 9 9 9 9
3 3 4 4 5 5 5 6 6 6 7 7 6 8 10 9 10 11 10 10 8 8 8 8 10 10 12 12 11 11 12 11 13 11 10 9 9 9 10 10 9 9 9 9
3 3 2 2 4 3 6 7 7 7 8 8 8 8 8 8 8 9 8 8 7 8 7 9 8 10 11 11 12 12 12 11 11 11 11 10 9 9 9 9 9 8 8 9
2 3 -0 -0 2 5 6 7 7 6 6 7 8 7 8 8 7 7 7 7 6 6 6 7 8 7 9 11 12 12 11 11 11 12 11 10 10 9 8 9 9 9 9 8
3 3 2 0 1 1 6 8 8 7 5 6 6 6 7 7 7 7 7 6 5 5 4 6 7 7 8 10 10 10 10 10 10 14 13 11 10 10 9 9 8 9 8 8
2 2 2 2 -1 3 6 7 8 4 5 6 7 7 7 6 6 6 6 5 4 4 4 5 6 6 7 8 9 10 10 10 10 10 12 11 10 9 9 9 9 9 8 8
2 3 2 2 0 2 6 7 6 6 7 7 7 7 7 6 6 5 4 4 4 4 4 3 4 5 5 5 6 8 9 9 9 9 9 11 10 9 9 9 9 8 8 8
2 2 3 3 2 4 4 5 6 5 6 7 7 8 7 6 4 4 3 2 2 4 1 2 4 4 5 4 5 5 6 7 8 8 9 9 9 9 9 8 7 6 5 4
2 1 3 3 3 3 4 5 6 6 6 7 7 7 5 4 3 2 3 2 1 1 0 0 1 2 2 4 3 4 4 4 6 7 6 7 7 6 4 3 4 4 1 1
1 2 2 3 2 2 3 5 6 6 7 6 6 5 4 3 1 1 2 1 0 -1 -2 -1 -0 -0 0 1 2 2 3 3 4 4 3 3 2 1 0 -0 -2 -2 -4 -3
3 4 2 2 3 2 2 4 4 4 4 3 4 4 3 1 -1 -1 -0 -1 -2 -1 -2 -2 -2 -2 -2 -1 0 -1 -0 1 3 2 0 -1 -1 -2 -3 -4 -5 -4 -4 -4

GFSCGP_850_temp_114.txt.gz
Temp
13 10 8 9 12 14 13 11 11 12 13 13 13 12 11 13 13 13 16 17 18 19 19 19 19 19 20 21 19 19 18 18 16 15 14 13 11 11 11 11 12 11 10 10
11 9 10 11 12 12 11 11 11 12 12 12 10 11 12 13 13 15 16 17 18 18 19 19 19 19 21 20 19 19 18 18 16 16 14 13 12 12 11 11 11 10 10 10
11 11 11 11 11 11 10 9 10 11 12 11 11 12 13 13 13 16 17 17 18 18 18 19 19 19 20 20 18 17 17 18 16 15 13 13 12 11 11 11 10 10 10 11
11 11 12 11 11 12 11 11 12 12 10 10 13 10 14 14 14 14 16 17 17 16 16 17 18 18 20 19 17 15 16 17 15 14 12 13 12 11 11 11 11 11 10 11
10 11 10 11 12 12 10 11 11 11 10 10 10 10 11 14 14 14 13 16 15 14 14 15 15 17 17 18 17 16 16 16 14 13 12 13 12 11 12 11 11 12 11 10
11 12 11 11 12 12 13 12 12 10 9 8 10 10 13 12 14 13 14 14 13 13 12 12 14 15 18 17 17 15 15 15 14 12 12 13 12 11 11 11 11 11 11 11
11 11 12 13 12 12 11 10 10 10 9 9 11 10 13 13 13 13 11 12 13 12 12 12 12 13 13 14 16 14 15 14 14 12 11 12 11 10 11 11 11 11 11 11
9 10 10 11 12 11 9 10 9 10 9 10 11 9 11 13 12 12 12 11 11 12 12 13 11 13 12 13 14 13 14 14 13 12 11 12 11 10 10 10 11 11 11 11
8 10 12 12 12 12 11 10 11 10 10 9 9 10 12 12 10 10 10 11 11 13 13 13 13 11 11 11 12 12 13 13 13 12 10 10 10 9 9 9 10 10 10 10
7 8 10 12 12 11 11 10 10 8 9 10 9 10 10 10 10 9 9 9 10 12 12 12 13 11 10 11 10 10 11 11 13 12 10 10 9 9 9 9 10 9 10 10
7 7 8 10 9 9 9 8 8 8 8 8 8 9 10 8 9 9 8 10 10 11 11 10 12 12 10 11 10 10 10 11 11 10 9 9 9 9 9 9 9 9 10 10
7 6 7 8 7 8 8 7 7 7 6 6 7 7 10 8 9 9 9 10 10 10 9 10 11 10 10 10 10 10 10 11 11 10 9 9 9 9 10 9 10 10 9 10
6 6 6 7 8 7 7 7 7 6 5 5 5 7 10 9 10 10 10 11 9 9 10 10 9 8 10 10 10 10 10 11 11 11 9 8 9 9 9 9 10 9 9 9
7 6 6 5 6 7 7 7 7 5 2 5 6 7 8 8 8 9 10 10 9 8 9 9 7 7 9 10 10 10 11 12 11 11 9 8 8 9 9 9 9 9 9 9
5 5 5 5 6 6 6 5 5 5 5 4 6 6 7 8 9 9 10 10 9 8 10 7 7 8 7 9 9 10 10 11 12 10 9 9 8 8 8 8 8 9 9 9
4 4 4 4 5 5 5 4 4 4 5 5 6 6 8 8 9 9 10 10 9 9 10 8 8 8 7 7 9 9 10 10 10 11 10 9 8 8 8 8 8 8 8 9
3 3 3 4 5 4 4 5 5 5 5 5 5 6 7 7 8 8 9 9 8 8 8 6 7 7 7 7 8 9 10 10 10 10 10 9 9 9 9 8 8 9 8 8
2 2 2 2 3 2 5 6 6 5 6 6 7 7 7 8 8 8 8 7 7 6 9 6 6 7 7 8 8 8 9 10 10 10 9 9 9 9 9 8 9 8 8 7
2 2 -0 -1 2 4 4 6 6 5 5 6 6 6 7 8 7 7 6 6 5 5 5 5 5 5 6 7 8 10 9 9 10 10 10 10 10 9 9 8 8 8 8 8
1 2 2 1 1 0 4 6 6 5 4 4 3 5 6 7 6 6 5 6 5 4 4 4 4 4 5 5 6 10 11 9 10 10 10 10 10 11 10 9 8 8 8 8
2 2 2 2 1 3 4 6 7 4 4 2 4 5 6 5 5 5 5 5 4 4 4 3 2 2 3 4 6 8 9 10 10 10 10 9 9 10 9 8 8 8 8 8
2 2 2 2 1 1 4 4 4 4 4 4 4 5 6 7 5 4 4 3 3 3 2 2 2 2 3 4 4 6 8 8 9 9 9 9 9 9 9 9 8 8 8 7
1 2 2 2 2 2 2 3 4 5 4 4 5 6 5 5 3 2 1 1 2 0 -0 1 1 1 2 2 3 4 6 5 8 10 9 9 9 9 9 8 7 7 6 6
1 1 2 2 3 2 2 4 4 3 3 4 5 6 5 4 2 1 0 0 0 -0 -0 -0 0 0 0 0 1 3 3 4 5 6 7 7 6 8 8 6 5 4 3 3
1 2 2 2 2 2 4 3 3 3 3 3 3 4 3 2 0 -0 -0 -1 -2 -1 -1 -1 -1 -2 -2 -1 -1 -0 1 1 3 3 2 3 3 3 5 2 1 1 -0 -0
2 1 2 2 1 1 2 2 2 1 0 0 2 2 0 -0 -0 -1 -1 -2 -2 -2 -2 -2 -2 -3 -3 -3 -2 -2 -1 -0 1 1 0 -1 -0 -0 -1 -2 -4 -4 -3 -3

GFSCGP_850_temp_117.txt.gz
Temp
12 12 11 12 13 14 14 13 14 13 15 15 16 15 16 15 14 14 15 16 17 18 18 18 18 18 18 19 19 20 20 18 17 16 16 15 15 14 13 12 12 11 11 10
12 11 12 12 12 13 13 13 13 13 14 13 14 15 15 15 15 15 16 16 17 16 17 17 17 18 18 18 18 17 18 17 16 16 16 16 16 14 12 12 11 11 11 10
12 12 12 12 12 12 12 12 13 13 13 13 13 15 15 15 14 15 16 17 16 15 14 16 17 17 18 19 17 16 16 15 15 15 15 15 14 13 12 11 11 11 11 10
11 13 12 12 12 12 12 12 13 12 12 13 14 14 15 15 15 15 15 14 14 13 14 14 15 16 16 18 17 16 15 14 15 15 15 15 16 12 11 11 11 11 10 11
10 11 11 12 12 12 13 12 12 13 12 12 13 13 14 14 16 16 15 14 13 12 12 13 14 14 16 17 16 15 14 14 14 15 15 15 15 12 11 11 11 10 10 10
10 11 11 12 13 13 13 12 12 11 12 11 13 14 14 15 15 15 15 14 12 12 13 13 13 14 15 15 14 14 13 13 13 14 15 15 15 12 12 11 11 10 10 10
11 11 12 12 12 12 13 12 11 10 10 12 12 12 14 14 14 13 13 12 11 11 11 11 11 12 13 14 12 12 13 12 13 13 13 14 14 12 12 12 11 11 10 10
9 10 11 12 13 12 12 12 12 12 12 13 11 13 14 12 12 11 11 11 11 11 11 11 10 11 11 11 12 11 11 11 12 13 12 12 12 11 11 11 11 10 11 11
7 9 11 11 12 13 10 10 13 12 11 11 12 12 13 12 12 12 12 11 11 10 10 10 10 9 11 12 11 10 9 11 11 12 12 12 11 10 10 11 10 10 11 10
8 7 10 10 11 11 11 11 11 11 11 11 11 12 12 11 11 12 12 12 11 11 10 9 9 9 10 12 12 10 10 9 11 11 12 11 10 10 10 10 10 10 10 10
7 7 8 10 8 8 10 10 9 10 9 12 11 12 11 10 11 11 12 12 11 10 9 9 9 10 9 10 10 11 10 9 10 11 12 11 9 9 9 9 9 9 10 10
7 6 6 8 8 8 8 7 8 10 9 8 9 11 12 10 10 11 11 11 10 10 9 9 9 12 10 9 9 10 10 9 10 10 11 10 9 9 9 9 9 9 9 9
7 5 5 6 8 8 8 8 8 7 7 8 9 11 11 11 11 11 10 10 10 9 9 8 10 10 10 8 8 9 9 9 9 10 10 9 9 10 9 9 9 9 9 10
6 6 6 5 5 7 7 8 8 7 7 8 9 10 11 11 10 10 10 9 10 9 9 8 8 9 9 8 7 8 9 9 9 9 9 9 9 10 9 9 9 9 9 9
6 5 6 7 7 7 7 7 7 7 8 7 9 8 10 10 10 10 9 9 9 10 9 9 8 9 8 7 7 8 9 9 9 10 9 9 10 10 9 9 9 9 9 9
5 5 5 5 6 6 6 7 6 6 7 7 7 7 10 9 9 9 9 9 10 9 8 7 7 9 8 7 7 7 8 9 9 10 9 9 9 9 9 9 9 9 9 8
4 4 4 4 6 6 4 6 6 7 7 7 7 8 10 9 9 9 9 9 8 8 6 5 7 8 8 7 6 7 8 8 9 9 9 8 9 8 9 9 8 8 8 8
4 3 4 4 4 3 6 7 7 6 7 7 7 8 8 8 8 8 8 7 6 5 4 5 6 6 6 6 8 7 8 8 8 9 9 9 8 9 8 8 8 8 8 8
2 3 3 2 3 5 6 7 7 6 7 8 6 6 6 6 7 8 6 6 5 4 4 4 4 4 5 5 7 7 7 8 8 9 9 9 9 8 8 8 8 8 8 8
1 2 3 2 2 2 6 6 7 6 5 4 3 3 5 7 7 9 5 4 4 3 3 3 3 3 3 5 5 6 7 9 9 9 9 9 8 8 8 8 8 8 8 8
2 2 2 2 2 4 5 5 6 5 5 4 2 1 5 5 6 4 3 3 2 1 1 1 1 2 2 3 4 5 6 8 8 9 9 9 8 8 8 8 8 8 8 8
2 2 3 2 2 3 3 6 5 5 3 2 3 3 3 4 3 3 1 1 1 0 -0 -0 0 1 2 3 3 4 4 4 7 8 9 8 8 8 8 8 8 8 8 7
2 1 2 2 4 3 3 3 3 3 3 2 3 3 4 3 2 1 -0 0 -0 -1 -1 -1 -1 -1 1 1 2 2 3 4 4 6 7 8 8 8 8 8 8 7 7 7
2 1 2 2 3 3 2 2 3 3 3 2 2 2 1 0 -0 -1 -0 -1 -2 -2 -2 -2 -2 -2 -1 -0 0 0 -0 2 3 6 7 7 7 8 6 6 5 4 5 4
1 1 2 2 1 1 1 0 1 0 0 0 1 -0 -1 -1 -2 -1 -1 -2 -3 -3 -3 -3 -3 -3 -3 -2 -1 -0 -0 -1 -0 1 1 2 4 3 4 4 3 3 1 3
0 1 1 1 -1 -1 -1 -1 -1 0 0 -0 -1 -2 -2 -2 -2 -2 -2 -3 -3 -3 -4 -4 -4 -4 -4 -3 -2 -2 -2 -2 -1 -1 -0 -0 -0 0 1 0 -1 -2 -2 -2

GFSCGP_850_temp_120.txt.gz
Temp
14 14 15 16 17 17 17 18 18 20 19 19 19 20 21 21 20 20 19 20 20 20 19 19 18 17 16 16 17 18 18 18 15 14 13 13 15 15 15 14 14 14 13 11
15 14 16 17 17 16 16 16 17 18 18 17 18 19 21 21 20 20 20 20 20 19 19 18 17 16 15 15 17 17 15 15 13 13 12 12 14 15 15 15 14 14 12 12
15 16 16 15 15 14 15 15 16 16 17 17 17 18 19 21 20 19 19 19 18 18 17 17 16 15 15 15 14 14 14 13 13 12 12 12 14 14 14 14 14 13 11 11
15 16 15 14 14 14 14 16 16 15 14 15 19 17 19 19 19 19 19 18 18 17 16 16 15 15 15 14 13 13 13 15 14 11 12 12 14 15 16 16 15 11 11 11
13 13 14 13 15 15 14 15 14 13 15 15 17 16 19 19 19 19 19 17 16 15 15 15 15 15 15 13 14 12 12 16 12 12 12 12 12 12 13 15 14 11 11 11
13 14 13 14 14 14 15 14 14 14 15 14 16 17 19 19 19 18 18 16 15 15 15 15 15 14 14 13 12 14 13 12 12 12 13 12 12 12 11 12 11 11 11 11
13 14 14 13 13 13 13 12 12 11 12 13 18 16 18 19 18 17 16 15 15 14 14 14 14 14 13 13 12 11 12 11 12 12 12 12 12 11 11 11 11 11 11 11
11 12 12 12 11 12 12 13 12 11 13 15 16 15 17 16 15 15 14 14 14 14 14 14 13 13 12 12 12 12 11 10 11 11 12 12 13 13 12 11 11 11 11 11
10 11 13 12 12 12 11 11 14 13 13 13 16 15 14 15 15 15 15 15 14 14 13 13 13 13 12 11 10 11 11 10 10 11 11 12 12 11 11 11 11 11 12 11
10 8 12 11 10 12 11 13 12 12 11 12 15 15 16 14 14 15 15 15 14 14 14 13 13 12 12 11 10 11 10 10 10 11 11 11 12 11 10 11 11 11 11 10
10 9 10 12 8 6 7 10 10 12 13 13 14 16 17 15 14 14 14 14 14 14 13 13 12 12 12 11 10 11 10 10 10 10 10 11 11 10 10 11 10 11 11 11
9 8 8 10 11 10 8 6 6 9 11 13 14 14 16 14 14 14 14 13 13 13 13 12 12 12 11 10 9 10 10 9 9 9 10 10 11 10 9 10 10 10 10 10
7 8 7 10 10 8 7 9 9 7 8 11 12 14 15 15 15 15 14 13 12 12 13 13 12 11 10 9 8 9 9 9 9 9 9 10 10 10 9 9 9 10 10 10
6 7 7 7 6 7 7 6 8 9 8 10 12 14 14 15 15 15 13 13 12 12 13 12 12 11 10 9 10 9 9 8 9 9 9 10 10 9 10 9 10 9 9 9
7 6 8 8 9 9 7 7 8 8 9 9 11 12 13 14 14 14 12 12 12 12 12 12 11 10 9 7 9 9 9 7 8 9 9 9 9 9 9 9 9 9 9 9
8 6 7 7 8 8 8 9 9 10 10 11 11 11 14 14 12 12 12 12 12 12 12 10 9 8 7 5 7 9 8 7 7 9 9 9 9 9 9 9 9 9 9 9
5 6 6 6 8 8 7 8 9 10 11 10 10 12 13 12 12 12 11 11 11 11 9 8 7 6 5 4 6 7 9 7 7 8 9 9 9 9 9 9 9 9 9 9
5 5 5 5 6 4 9 10 9 9 10 11 11 11 12 11 11 10 10 11 10 7 7 6 5 4 3 3 3 6 8 7 7 8 9 9 9 9 8 9 9 9 9 8
6 5 4 4 6 7 8 9 9 9 9 11 11 10 10 8 8 11 9 7 6 5 4 4 3 2 2 2 4 4 7 7 7 7 8 9 9 9 8 9 9 9 9 8
3 4 5 5 4 4 7 8 8 9 7 8 7 6 4 3 7 8 4 3 2 2 1 1 1 0 0 2 3 3 5 6 6 7 8 9 9 8 8 9 8 8 8 8
2 3 3 4 3 6 8 8 7 6 6 6 3 1 0 4 3 2 1 1 1 0 -0 -0 -1 -0 1 2 2 3 3 3 5 7 8 8 9 8 8 8 9 8 8 8
2 3 4 4 4 4 6 7 5 6 5 3 2 2 3 4 2 1 1 -0 -1 -1 -2 -1 -2 -0 -0 0 1 1 3 3 5 7 6 8 8 8 8 8 8 8 8 8
2 2 2 3 4 5 3 3 4 4 4 2 2 2 2 2 1 0 -1 -2 -2 -3 -3 -2 -2 -2 -1 -1 -1 0 1 2 2 3 6 7 8 8 7 8 8 7 7 7
2 1 2 2 1 1 -1 -1 0 1 0 -0 -0 0 0 -0 -1 -2 -3 -3 -4 -4 -4 -4 -4 -3 -2 -2 -2 -2 -1 -0 0 3 3 4 5 7 7 7 7 7 6 6
1 2 2 2 1 0 -0 -1 -1 -1 -1 -1 -1 -1 -2 -1 -2 -3 -4 -4 -5 -5 -5 -5 -5 -5 -4 -3 -3 -3 -2 -1 -0 0 -0 1 2 3 1 2 3 5 3 4
1 0 1 1 -1 -1 -1 -2 -2 -2 -2 -2 -2 -1 -3 -3 -3 -4 -5 -5 -5 -5 -6 -6 -5 -6 -6 -4 -4 -4 -3 -3 -2 -1 -0 1 -0 -0 0 -1 -1 -0 1 2

GFSCGP_850_temp_123.txt.gz
Temp
17 16 16 18 19 19 19 19 18 20 22 21 21 22 23 24 24 23 23 23 22 22 22 21 20 19 18 18 18 18 18 17 17 17 16 15 14 14 13 14 13 13 13 13
17 16 18 19 19 19 19 18 18 19 20 20 19 20 21 23 24 23 23 23 22 22 22 21 20 18 18 17 17 17 17 17 16 16 16 15 13 13 13 13 13 13 13 12
16 18 19 18 18 18 18 18 17 17 19 19 19 18 19 21 22 23 22 22 22 22 21 20 18 18 17 17 15 16 17 17 16 16 15 13 13 13 13 13 13 15 14 13
16 18 18 18 17 17 16 18 18 17 16 15 18 17 20 21 22 23 23 21 21 20 19 18 18 18 17 16 14 15 16 16 15 14 14 13 12 12 12 13 13 14 14 12
15 16 16 15 16 17 16 17 17 16 15 16 17 17 19 22 21 21 21 21 20 19 18 18 18 17 17 15 14 13 14 15 14 12 14 12 12 12 13 12 12 14 13 11
15 16 16 16 16 17 17 16 16 15 14 13 15 17 19 20 21 21 21 20 18 18 17 17 17 17 17 15 14 14 12 12 12 12 12 12 12 13 13 13 12 11 12 12
15 16 17 17 15 16 15 13 11 11 11 12 17 17 18 20 22 22 20 18 17 17 17 17 17 16 16 15 14 14 15 12 12 12 12 12 12 13 14 12 11 12 12 12
12 12 15 14 15 15 15 14 11 10 12 15 17 16 18 20 19 19 18 17 17 17 16 16 16 15 15 14 13 12 14 14 11 11 12 12 12 13 13 13 12 12 12 12
10 11 15 13 13 13 14 12 14 12 13 12 15 17 17 18 17 17 18 17 16 16 16 16 16 15 15 15 14 11 12 14 11 11 11 12 12 12 13 12 11 12 12 12
10 9 13 14 12 13 9 13 10 9 9 10 15 16 16 16 16 17 17 17 16 16 16 16 15 15 14 14 13 11 10 11 11 10 10 11 12 12 12 12 12 11 11 11
10 10 10 13 12 10 8 9 12 11 10 12 13 15 17 16 16 17 16 16 16 15 16 16 15 14 14 13 12 11 10 9 10 10 10 10 11 11 12 12 12 11 12 11
10 8 9 10 13 11 10 9 6 8 11 12 14 14 15 17 17 16 16 15 15 15 15 15 15 14 14 12 11 11 9 9 9 10 10 10 11 11 11 11 11 11 11 11
7 8 7 9 12 11 8 8 8 7 6 7 11 11 14 14 16 17 16 15 15 15 15 15 15 15 14 13 11 10 9 8 8 9 10 10 10 11 11 11 10 11 11 11
7 7 7 7 9 5 8 6 8 8 8 9 8 9 9 9 15 17 16 15 15 14 14 15 15 14 14 12 10 8 7 7 9 9 9 10 10 11 11 10 10 10 10 10
8 6 7 9 10 10 10 10 9 8 8 8 12 12 10 14 16 16 15 14 14 14 14 14 14 14 12 10 9 8 6 6 7 8 9 9 10 10 10 10 10 10 10 10
8 4 7 7 9 10 10 10 10 10 10 10 11 12 15 15 15 15 14 14 14 14 14 14 12 11 10 8 8 7 5 8 7 8 8 9 9 10 10 10 10 10 9 10
6 6 6 6 8 9 8 10 11 11 11 10 10 12 15 14 14 14 13 13 13 13 12 11 10 8 7 7 5 5 4 6 7 7 8 9 9 10 10 10 9 9 9 9
6 6 6 5 7 5 10 12 11 11 11 12 12 13 14 14 12 11 11 11 12 11 9 9 8 7 6 5 3 5 4 4 6 7 8 8 9 10 10 10 9 9 9 9
8 7 5 4 5 7 9 8 10 10 10 12 12 12 12 9 7 10 8 8 7 6 6 5 5 4 3 1 1 4 3 4 5 6 8 8 9 10 10 9 9 9 9 9
4 4 4 6 4 5 6 9 10 10 8 9 8 8 7 5 4 6 2 2 2 2 2 2 2 1 -0 -0 1 2 3 3 5 6 7 7 9 9 9 9 9 9 9 9
4 4 4 5 4 7 5 8 8 6 6 6 4 2 1 1 2 1 0 0 0 1 0 0 0 -1 -2 -0 0 2 1 1 3 5 7 7 8 9 9 9 9 9 9 9
2 3 5 4 5 4 2 7 4 4 6 3 2 0 -0 1 1 1 0 -1 -1 -1 -1 -0 -0 -1 -3 -2 -0 0 0 0 2 3 6 7 7 8 9 8 8 9 8 8
3 2 2 3 3 1 -0 -1 -1 -0 2 1 0 0 2 1 1 -0 -1 -2 -2 -1 -1 -1 -1 -1 -3 -4 -1 -1 -1 0 0 0 5 4 6 8 8 8 8 8 8 8
2 2 2 2 2 0 -1 -1 -2 -2 -2 -1 -0 1 1 0 -0 -1 -2 -2 -2 -2 -3 -3 -3 -3 -4 -5 -3 -3 -2 -1 -1 -1 1 1 3 3 6 7 8 7 7 7
2 2 2 2 2 1 1 -1 -2 -2 -2 -1 -1 -0 -0 -1 -1 -2 -3 -3 -4 -4 -5 -5 -5 -6 -5 -6 -5 -4 -3 -3 -2 -1 -1 -0 1 1 0 3 3 4 4 5
3 0 1 2 -0 -1 -1 -2 -1 -2 -2 -2 -1 -1 -1 -2 -3 -3 -5 -5 -6 -7 -7 -7 -8 -8 -8 -8 -7 -5 -4 -4 -3 -2 -2 -1 0 -0 0 -1 -2 -2 -0 1